[[{"header":{"parameterUnit":"m.s-1","parameterCategory":1,"la1":30.6,"la2":29.2853,"lo1":-89.7004,"lo2":-87.6739,"dy":0.0162,"dx":0.0183,"nx":112,"ny":82,"refTime":"2025-12-17T12:00:00:Z","depth":0,"parameterNumber":2,"parameterNumberName":"U-component_of_WINDS"},"data":[0.0,0.0,0.0,0.0,0.0,0.0,0.0,0.0,0.0,0.0,0.0,0.0,0.0,0.0,0.0,0.0,0.0,0.0,0.0,0.0,0.0,0.0,0.0,0.0,0.0,0.0,0.0,0.0,0.0,0.0,0.0,0.0,0.0,0.0,0.0,0.0,0.0,0.0,0.0,0.0,0.0,0.0,0.0,0.0,0.0,0.0,0.0,0.0,0.0,0.0,0.0,0.0,0.0,0.0,0.0,0.0,0.0,0.0,0.0,0.0,0.0,0.0,0.0,0.0,0.0,0.0,0.0,0.0,0.0,0.0,0.0,0.0,0.0,0.0,0.0,0.0,0.0,0.0,0.0,0.0,0.0,0.0,0.0,0.0,0.0,0.0,0.0,0.0,0.0,0.0,5.6811,6.1985,6.8908,7.2798,7.1942,7.0193,6.5482,5.6918,0.0,0.0,0.0,0.0,0.0,0.0,0.0,0.0,0.0,0.0,0.0,0.0,0.0,0.0,0.0,0.0,0.0,0.0,0.0,0.0,0.0,0.0,0.0,0.0,0.0,0.0,0.0,0.0,0.0,0.0,0.0,0.0,0.0,0.0,0.0,0.0,0.0,0.0,0.0,0.0,0.0,0.0,0.0,0.0,0.0,0.0,0.0,0.0,0.0,0.0,0.0,0.0,0.0,0.0,0.0,0.0,0.0,0.0,0.0,0.0,0.0,0.0,0.0,0.0,0.0,0.0,0.0,0.0,0.0,0.0,0.0,0.0,0.0,0.0,0.0,0.0,0.0,0.0,0.0,0.0,0.0,0.0,0.0,0.0,0.0,0.0,0.0,0.0,0.0,0.0,0.0,0.0,0.0,0.0,0.0,0.0,0.0,0.0,0.0,0.0,0.0,0.0,0.0,0.0,5.7311,6.7945,7.2548,7.4225,7.2762,6.9943,6.4876,5.6882,0.0,0.0,0.0,0.0,0.0,0.0,0.0,0.0,0.0,0.0,0.0,0.0,0.0,0.0,0.0,0.0,0.0,0.0,0.0,0.0,0.0,0.0,0.0,0.0,0.0,0.0,0.0,0.0,0.0,0.0,0.0,0.0,0.0,0.0,0.0,0.0,0.0,0.0,0.0,0.0,0.0,0.0,0.0,0.0,0.0,0.0,0.0,0.0,0.0,0.0,0.0,0.0,0.0,0.0,0.0,0.0,0.0,0.0,0.0,0.0,0.0,0.0,0.0,0.0,0.0,0.0,0.0,0.0,0.0,0.0,0.0,0.0,0.0,0.0,0.0,0.0,0.0,0.0,0.0,0.0,0.0,0.0,0.0,0.0,0.0,0.0,0.0,0.0,0.0,0.0,0.0,0.0,0.0,0.0,0.0,0.0,0.0,0.0,0.0,0.0,0.0,0.0,0.0,5.6204,6.1521,7.0764,7.3833,7.4547,7.2941,6.9907,6.4947,5.7525,5.2457,0.0,0.0,0.0,0.0,0.0,0.0,0.0,0.0,0.0,0.0,0.0,0.0,0.0,0.0,0.0,0.0,0.0,0.0,0.0,0.0,0.0,0.0,0.0,0.0,0.0,0.0,0.0,0.0,0.0,0.0,0.0,0.0,0.0,0.0,0.0,0.0,0.0,0.0,0.0,0.0,0.0,0.0,0.0,0.0,0.0,0.0,0.0,0.0,0.0,0.0,0.0,0.0,0.0,0.0,0.0,0.0,0.0,0.0,0.0,0.0,0.0,0.0,0.0,0.0,0.0,0.0,0.0,0.0,0.0,0.0,0.0,0.0,0.0,0.0,0.0,0.0,0.0,0.0,0.0,0.0,0.0,0.0,0.0,0.0,0.0,0.0,0.0,0.0,0.0,0.0,0.0,0.0,0.0,0.0,0.0,0.0,0.0,0.0,0.0,0.0,0.0,0.0,6.2806,6.6303,7.2441,7.4368,7.4547,7.2941,6.9229,6.4198,5.7703,5.0852,0.0,0.0,0.0,0.0,0.0,0.0,0.0,0.0,0.0,0.0,0.0,0.0,0.0,0.0,0.0,0.0,0.0,0.0,0.0,0.0,0.0,0.0,0.0,0.0,0.0,0.0,0.0,0.0,0.0,0.0,0.0,0.0,0.0,0.0,0.0,0.0,0.0,0.0,0.0,0.0,0.0,0.0,0.0,0.0,0.0,0.0,0.0,0.0,0.0,0.0,0.0,0.0,0.0,0.0,0.0,0.0,0.0,0.0,0.0,0.0,0.0,0.0,0.0,0.0,0.0,0.0,0.0,0.0,0.0,0.0,0.0,0.0,0.0,0.0,0.0,0.0,0.0,0.0,0.0,0.0,0.0,0.0,0.0,0.0,0.0,0.0,0.0,0.0,0.0,0.0,0.0,0.0,0.0,0.0,0.0,0.0,0.0,0.0,0.0,0.0,0.0,0.0,6.4305,7.0122,7.3583,7.4689,7.4547,7.2941,6.7231,6.1664,5.6775,4.8532,0.0,0.0,0.0,0.0,0.0,0.0,0.0,0.0,0.0,0.0,0.0,0.0,0.0,0.0,0.0,0.0,0.0,0.0,0.0,0.0,0.0,0.0,0.0,0.0,0.0,0.0,0.0,0.0,0.0,0.0,0.0,0.0,0.0,0.0,0.0,0.0,0.0,0.0,0.0,0.0,0.0,0.0,0.0,0.0,0.0,0.0,0.0,0.0,0.0,0.0,0.0,0.0,0.0,0.0,0.0,0.0,0.0,0.0,0.0,0.0,0.0,0.0,0.0,0.0,0.0,0.0,0.0,0.0,0.0,0.0,0.0,0.0,0.0,0.0,0.0,0.0,0.0,0.0,0.0,0.0,0.0,0.0,0.0,0.0,0.0,0.0,0.0,0.0,0.0,0.0,0.0,0.0,0.0,0.0,0.0,0.0,0.0,0.0,0.0,0.0,0.0,0.0,6.3249,6.8908,0.0,7.4725,7.4547,7.2941,6.8409,6.277,5.6062,0.0,0.0,0.0,0.0,0.0,0.0,0.0,0.0,0.0,0.0,0.0,0.0,0.0,0.0,0.0,0.0,0.0,0.0,0.0,0.0,0.0,0.0,0.0,0.0,0.0,0.0,0.0,0.0,0.0,0.0,0.0,0.0,0.0,0.0,0.0,0.0,0.0,0.0,0.0,0.0,0.0,0.0,0.0,0.0,0.0,0.0,0.0,0.0,0.0,0.0,0.0,0.0,0.0,0.0,0.0,0.0,0.0,0.0,0.0,0.0,0.0,0.0,0.0,0.0,0.0,0.0,0.0,0.0,0.0,0.0,0.0,0.0,0.0,0.0,0.0,0.0,0.0,0.0,0.0,0.0,0.0,0.0,0.0,0.0,0.0,0.0,0.0,0.0,0.0,0.0,0.0,0.0,0.0,0.0,0.0,0.0,0.0,0.0,0.0,0.0,0.0,0.0,5.7585,6.3811,6.9586,0.0,7.5617,7.5403,7.4047,6.9444,6.3448,5.6062,0.0,0.0,0.0,0.0,0.0,0.0,0.0,0.0,0.0,0.0,0.0,0.0,0.0,0.0,0.0,0.0,0.0,0.0,0.0,0.0,0.0,0.0,0.0,0.0,0.0,0.0,0.0,0.0,0.0,0.0,0.0,0.0,0.0,0.0,0.0,0.0,0.0,0.0,0.0,0.0,0.0,0.0,0.0,0.0,0.0,0.0,0.0,0.0,0.0,0.0,0.0,0.0,0.0,0.0,0.0,0.0,0.0,0.0,0.0,0.0,0.0,0.0,0.0,0.0,0.0,0.0,0.0,0.0,0.0,0.0,0.0,0.0,0.0,0.0,0.0,0.0,0.0,0.0,0.0,0.0,0.0,0.0,0.0,0.0,0.0,0.0,0.0,0.0,0.0,0.0,0.0,0.0,0.0,0.0,0.0,0.0,0.0,0.0,0.0,0.0,0.0,0.0,5.8682,6.6594,7.3226,7.7116,7.7508,7.7223,7.6438,6.9907,6.3127,0.0,0.0,0.0,0.0,0.0,0.0,0.0,0.0,0.0,0.0,0.0,0.0,0.0,0.0,0.0,0.0,0.0,0.0,0.0,0.0,0.0,0.0,0.0,0.0,0.0,0.0,0.0,0.0,0.0,0.0,0.0,0.0,0.0,0.0,0.0,0.0,0.0,0.0,0.0,0.0,0.0,0.0,0.0,0.0,0.0,0.0,0.0,0.0,0.0,0.0,0.0,0.0,0.0,0.0,0.0,0.0,0.0,0.0,0.0,0.0,0.0,0.0,0.0,0.0,0.0,0.0,0.0,0.0,0.0,0.0,0.0,0.0,0.0,0.0,0.0,0.0,0.0,0.0,0.0,0.0,0.0,0.0,0.0,0.0,0.0,0.0,0.0,0.0,0.0,0.0,0.0,0.0,0.0,0.0,0.0,0.0,0.0,0.0,0.0,0.0,0.0,0.0,0.0,6.2026,7.0734,7.7271,7.9575,7.9323,7.8314,7.6583,7.0871,6.4019,5.6062,0.0,0.0,0.0,0.0,0.0,0.0,0.0,0.0,0.0,0.0,0.0,0.0,0.0,0.0,0.0,0.0,0.0,0.0,0.0,0.0,0.0,0.0,0.0,0.0,0.0,0.0,0.0,0.0,0.0,0.0,0.0,0.0,0.0,0.0,0.0,0.0,0.0,0.0,0.0,0.0,0.0,0.0,0.0,0.0,0.0,0.0,0.0,0.0,0.0,0.0,0.0,0.0,0.0,0.0,0.0,0.0,0.0,0.0,0.0,0.0,0.0,0.0,0.0,0.0,0.0,0.0,0.0,0.0,0.0,0.0,0.0,0.0,0.0,0.0,0.0,0.0,0.0,0.0,0.0,0.0,0.0,0.0,0.0,0.0,0.0,0.0,0.0,0.0,0.0,0.0,0.0,0.0,0.0,0.0,0.0,0.0,0.0,0.0,0.0,0.0,0.0,0.0,6.3443,7.2471,7.9287,8.1526,8.0836,7.9569,7.7901,7.2976,6.6161,5.7168,0.0,0.0,0.0,0.0,0.0,0.0,0.0,0.0,0.0,0.0,0.0,0.0,0.0,0.0,0.0,0.0,0.0,0.0,0.0,0.0,0.0,0.0,0.0,0.0,0.0,0.0,0.0,0.0,0.0,0.0,0.0,0.0,0.0,0.0,0.0,0.0,0.0,0.0,0.0,0.0,0.0,0.0,0.0,0.0,0.0,0.0,0.0,0.0,0.0,0.0,0.0,0.0,0.0,0.0,0.0,0.0,0.0,0.0,0.0,0.0,0.0,0.0,0.0,0.0,0.0,0.0,0.0,0.0,0.0,0.0,0.0,0.0,0.0,0.0,0.0,0.0,0.0,0.0,0.0,0.0,0.0,0.0,0.0,0.0,0.0,0.0,0.0,0.0,0.0,0.0,0.0,0.0,0.0,0.0,0.0,0.0,0.0,0.0,0.0,0.0,0.0,0.0,6.3763,7.2959,8.0116,8.2937,8.2198,8.1025,8.0018,7.562,6.897,5.9745,0.0,0.0,0.0,0.0,0.0,0.0,0.0,0.0,0.0,0.0,0.0,0.0,0.0,0.0,0.0,0.0,0.0,0.0,0.0,0.0,0.0,0.0,0.0,0.0,0.0,0.0,0.0,0.0,0.0,0.0,0.0,0.0,0.0,0.0,0.0,0.0,0.0,0.0,0.0,0.0,0.0,0.0,0.0,0.0,0.0,0.0,0.0,0.0,0.0,0.0,0.0,0.0,0.0,0.0,0.0,0.0,0.0,0.0,0.0,0.0,5.1509,0.0,0.0,0.0,0.0,0.0,0.0,0.0,0.0,0.0,0.0,0.0,0.0,0.0,0.0,0.0,0.0,0.0,0.0,0.0,0.0,0.0,0.0,0.0,0.0,0.0,0.0,0.0,0.0,0.0,0.0,0.0,0.0,0.0,0.0,0.0,0.0,0.0,0.0,0.0,0.0,0.0,6.5938,7.6442,8.3698,8.4395,8.4149,8.2993,8.0433,7.6403,7.0799,6.3148,5.6703,0.0,0.0,0.0,0.0,0.0,0.0,0.0,0.0,0.0,0.0,0.0,0.0,0.0,0.0,0.0,0.0,0.0,0.0,0.0,0.0,0.0,0.0,0.0,0.0,0.0,0.0,0.0,0.0,0.0,0.0,0.0,0.0,0.0,0.0,0.0,0.0,0.0,0.0,0.0,0.0,0.0,0.0,0.0,0.0,0.0,0.0,0.0,0.0,0.0,0.0,0.0,0.0,0.0,0.0,0.0,0.0,0.0,0.0,0.0,0.0,5.4389,0.0,0.0,0.0,0.0,0.0,0.0,0.0,0.0,0.0,0.0,0.0,0.0,0.0,0.0,0.0,0.0,0.0,0.0,0.0,0.0,0.0,0.0,0.0,0.0,0.0,0.0,0.0,0.0,0.0,0.0,0.0,0.0,0.0,0.0,0.0,0.0,0.0,0.0,0.0,0.0,6.7195,7.7414,8.4359,8.4764,8.4168,8.2732,8.0143,7.702,7.2382,6.5728,5.9849,0.0,0.0,0.0,0.0,0.0,0.0,0.0,0.0,0.0,0.0,0.0,0.0,0.0,0.0,0.0,0.0,0.0,0.0,0.0,0.0,0.0,0.0,0.0,0.0,0.0,0.0,0.0,0.0,0.0,0.0,0.0,0.0,0.0,0.0,0.0,0.0,0.0,0.0,0.0,0.0,0.0,0.0,0.0,0.0,0.0,0.0,0.0,0.0,0.0,0.0,0.0,0.0,0.0,0.0,0.0,6.7579,6.9247,7.0005,6.9778,6.5609,6.2728,6.0643,0.0,0.0,0.0,0.0,0.0,0.0,0.0,0.0,0.0,0.0,0.0,0.0,0.0,0.0,0.0,0.0,0.0,0.0,0.0,0.0,0.0,0.0,0.0,0.0,0.0,6.1794,6.141,0.0,0.0,0.0,0.0,0.0,0.0,0.0,0.0,0.0,0.0,0.0,0.0,6.8283,7.7509,8.3898,8.4488,8.3618,8.2085,7.9889,7.771,7.3993,6.8454,6.3336,5.8172,0.0,0.0,0.0,0.0,0.0,0.0,0.0,0.0,0.0,0.0,0.0,0.0,0.0,0.0,0.0,0.0,0.0,0.0,0.0,0.0,0.0,0.0,0.0,0.0,0.0,0.0,0.0,0.0,0.0,0.0,0.0,0.0,4.6364,4.6657,0.0,0.0,0.0,0.0,0.0,0.0,0.0,0.0,0.0,0.0,0.0,0.0,0.0,0.0,6.2122,6.6783,6.9664,7.0801,7.6107,7.8382,7.7965,7.967,8.0428,8.039,7.9708,0.0,6.5192,6.3827,0.0,0.0,0.0,0.0,0.0,0.0,0.0,0.0,0.0,0.0,0.0,0.0,0.0,0.0,0.0,0.0,0.0,0.0,0.0,0.0,0.0,0.0,6.8691,6.8208,6.8431,6.8208,0.0,5.8029,5.0636,4.9113,0.0,0.0,0.0,0.0,0.0,0.0,0.0,0.0,6.988,7.8592,8.4026,8.3432,8.3915,8.3163,8.0733,7.8957,7.6439,7.2758,6.8592,6.445,6.0419,5.5023,0.0,0.0,0.0,0.0,0.0,0.0,0.0,0.0,0.0,0.0,0.0,0.0,0.0,0.0,0.0,0.0,0.0,0.0,0.0,0.0,0.0,0.0,0.0,0.0,0.0,0.0,0.0,0.0,0.0,4.5665,4.967,4.7694,4.9162,4.8403,0.0,0.0,0.0,0.0,0.0,0.0,0.0,0.0,0.0,6.4244,6.6025,6.8565,7.2014,7.5615,7.8116,7.9443,8.2475,8.3991,8.4143,8.4863,8.5204,8.5204,8.5204,8.1944,7.6259,7.1218,6.6215,6.1401,0.0,0.0,0.0,0.0,0.0,0.0,6.2652,0.0,0.0,0.0,0.0,0.0,0.0,0.0,0.0,0.0,0.0,0.0,0.0,0.0,0.0,7.2889,7.3855,7.419,7.2889,6.7205,6.1187,0.0,5.4426,5.1268,4.6401,0.0,0.0,0.0,0.0,6.7577,7.2369,7.9279,8.3589,8.3217,8.3514,8.2765,8.0489,7.9675,7.7629,7.3726,7.1055,6.8086,6.4809,5.969,5.4954,0.0,0.0,0.0,0.0,0.0,0.0,0.0,0.0,0.0,0.0,0.0,0.0,0.0,0.0,0.0,0.0,0.0,0.0,0.0,0.0,0.0,0.0,0.0,0.0,0.0,0.0,0.0,0.0,4.9466,5.2872,4.9451,5.2399,5.2134,0.0,0.0,0.0,0.0,0.0,0.0,6.125,6.3676,6.7352,7.2583,7.4364,7.6941,8.0466,8.2399,8.4181,8.5848,8.6455,8.7213,8.8009,8.8009,8.8009,8.8009,8.7819,8.6985,8.5242,7.751,7.2317,6.8906,6.4964,6.3941,0.0,6.5381,6.667,6.8603,7.2128,7.3075,7.2241,6.9361,0.0,6.4289,5.8273,0.0,0.0,0.0,0.0,6.181,6.7542,0.0,7.367,7.5899,7.7385,7.7942,7.6716,7.4004,7.0177,0.0,6.1707,5.8401,5.2494,0.0,0.0,0.0,0.0,7.0995,7.5304,8.0134,8.318,8.318,8.2994,8.2171,8.0332,7.9815,7.8039,7.4378,7.2886,7.0869,6.8076,6.4196,6.0208,5.6257,0.0,0.0,0.0,0.0,0.0,0.0,0.0,0.0,0.0,0.0,0.0,0.0,0.0,0.0,0.0,0.0,0.0,0.0,0.0,0.0,0.0,0.0,0.0,0.0,0.0,0.0,0.0,0.0,0.0,5.3783,5.7687,0.0,0.0,0.0,0.0,5.6664,6.0681,6.4888,6.9096,7.3151,7.6941,8.0428,8.2134,8.3877,8.5735,8.5848,8.6758,8.8426,8.8463,8.8918,8.9676,8.9676,8.9676,8.9638,8.888,8.8501,8.7971,8.1982,7.8912,7.7623,7.425,7.3454,7.4212,7.425,7.5349,7.6676,7.6107,7.6449,7.7169,7.7737,7.4464,6.9951,6.799,6.5041,0.0,0.0,6.6292,6.8931,7.2235,7.4338,7.6047,7.7756,7.8239,7.8276,7.8165,7.6196,7.3372,0.0,6.6685,6.3899,6.2004,0.0,6.297,6.6091,6.9657,7.3744,7.8611,8.1545,8.318,8.318,8.2511,8.1694,8.0765,7.9279,7.7589,7.579,7.4863,7.3314,7.0711,6.8924,6.5856,6.1235,5.5436,0.0,0.0,0.0,0.0,0.0,0.0,0.0,0.0,0.0,0.0,0.0,0.0,0.0,0.0,0.0,0.0,0.0,0.0,0.0,0.0,0.0,0.0,0.0,0.0,0.0,0.0,0.0,0.0,5.8672,6.3372,0.0,5.9355,6.106,6.3334,6.5305,6.9816,7.4099,7.7737,8.0352,8.2816,8.509,8.6227,8.7099,8.7705,8.8236,8.8767,8.9373,8.9373,8.9525,8.979,8.979,8.979,8.979,8.9487,8.9373,8.9184,8.6568,8.437,8.2475,8.0731,8.0239,8.0504,8.0504,8.1565,8.2892,8.2058,8.2323,8.2657,8.0628,7.7583,7.4507,7.3161,7.177,7.1023,7.2571,7.3503,7.4741,7.7385,7.8945,7.9651,7.9168,7.9465,7.9539,7.8499,7.7199,7.5861,7.4673,7.1812,6.8877,6.6722,6.8097,6.9509,6.962,7.3335,7.731,8.0654,8.2326,8.318,8.318,8.2474,8.162,8.0765,7.9688,7.8016,7.5513,7.5107,7.3901,7.161,7.0157,6.7861,6.4459,6.0071,5.3618,0.0,0.0,0.0,0.0,0.0,0.0,0.0,0.0,0.0,0.0,0.0,0.0,0.0,0.0,0.0,0.0,0.0,0.0,0.0,0.0,0.0,0.0,0.0,0.0,0.0,0.0,6.4168,6.3334,6.8413,7.0233,6.576,6.8641,7.1483,7.3151,7.7396,8.1035,8.3498,8.5242,8.6682,8.7781,8.8577,8.8994,8.8994,8.9525,8.979,8.979,8.979,8.9942,9.0245,9.0245,9.0396,9.0624,9.0359,9.0245,9.0169,8.9335,8.8047,8.6493,8.5621,8.5621,8.6076,8.581,8.6568,8.763,8.653,8.5962,8.5271,8.2765,8.0386,7.8322,7.7516,7.7116,7.717,7.8251,7.8386,7.8685,8.0282,8.1137,8.1285,8.0171,8.032,8.032,7.8982,7.8276,7.783,7.7533,7.5267,7.2889,7.1255,7.3224,7.4561,7.3187,7.6716,8.0022,8.1397,8.2511,8.318,8.318,8.2214,8.1211,8.0357,7.8796,7.6903,7.47,7.3721,7.2483,7.0807,6.9223,6.7246,6.4803,6.0118,5.4204,4.7159,0.0,0.0,0.0,0.0,0.0,0.0,0.0,0.0,0.0,0.0,0.0,0.0,0.0,0.0,0.0,0.0,0.0,0.0,0.0,0.0,0.0,0.0,0.0,5.7573,6.4055,6.8527,6.7845,7.281,7.5046,7.1787,7.5198,7.8306,7.9973,8.3157,8.5356,8.6151,8.7743,8.8653,8.8691,8.9449,8.9866,8.9866,8.9866,8.9866,8.9866,8.9866,9.0321,9.1155,9.1155,9.1571,9.2254,9.1458,9.1155,9.1079,9.0245,8.9866,8.979,8.8956,8.9638,9.0965,9.0093,9.0321,9.0813,8.9184,8.7061,8.4968,8.4616,8.3188,8.1581,8.1265,8.0991,8.0765,8.0765,8.0765,8.0765,8.0765,8.0765,8.0765,8.0728,8.0728,8.0505,7.9688,7.9539,7.9316,7.8536,7.705,7.5936,7.5899,7.7236,7.809,7.7347,7.9948,0.0,8.0877,8.2177,8.318,8.3106,8.1657,8.032,7.9502,7.6456,7.4264,7.3447,7.1106,6.9341,6.8434,6.6459,6.4421,6.2414,5.568,5.1325,4.9458,0.0,0.0,0.0,0.0,0.0,0.0,0.0,0.0,0.0,0.0,0.0,0.0,0.0,0.0,0.0,0.0,0.0,0.0,0.0,0.0,0.0,5.9317,6.4168,6.3789,6.8641,7.3037,7.5274,7.8571,8.0542,8.0201,8.1793,8.3271,8.4332,8.6379,8.7668,8.7895,8.8918,8.9752,9.0396,9.0624,9.1003,9.1609,9.1609,9.1609,9.1609,9.1609,9.1723,9.195,9.195,9.2102,9.2292,9.2064,9.195,9.195,9.1723,9.1609,9.1458,9.0017,8.9752,9.0131,8.9904,8.9942,9.0093,8.9638,8.8469,8.721,8.6915,8.5521,8.3844,8.3599,8.3016,8.2511,8.2511,8.2511,8.2511,8.2511,8.2511,8.2363,8.1768,8.162,8.1397,8.0542,8.0357,8.0282,8.0059,7.9651,7.9168,7.8573,7.8833,7.9502,8.0468,0.0,0.0,8.2474,8.2883,8.2734,8.1508,8.0431,7.9502,7.8685,7.6121,7.4264,7.3447,7.1626,7.0036,6.8843,6.7704,6.6006,6.369,5.8263,5.471,0.0,0.0,0.0,0.0,0.0,0.0,0.0,0.0,0.0,0.0,0.0,0.0,0.0,0.0,0.0,0.0,0.0,0.0,0.0,0.0,0.0,0.0,6.6025,7.137,7.2279,7.4895,7.7851,8.0883,8.2854,8.4294,8.509,8.5962,8.6644,8.7099,8.835,8.9259,8.9638,9.0093,9.0738,9.1571,9.1609,9.1837,9.2292,9.2292,9.2292,9.2292,9.2292,9.2481,9.2822,9.2822,9.3012,0.0,9.2974,9.2822,9.2822,9.2443,9.2292,0.0,0.0,0.0,0.0,0.0,9.0093,8.979,8.979,8.9112,8.8126,8.7824,8.6593,8.5263,8.5009,8.4592,8.422,8.422,8.422,8.422,8.422,8.422,8.3997,8.318,8.2994,8.266,8.1508,8.1248,8.1137,8.0765,0.0,0.0,8.0542,8.0542,8.0617,8.0914,8.1843,8.24,0.0,8.2771,8.2809,8.1843,8.1025,8.0059,7.8871,7.6196,0.0,0.0,0.0,6.8444,6.6345,6.5472,0.0,0.0,0.0,0.0,0.0,0.0,0.0,0.0,5.408,5.3598,0.0,0.0,0.0,0.0,0.0,0.0,0.0,0.0,0.0,0.0,0.0,0.0,0.0,0.0,0.0,0.0,7.2355,7.7927,8.1073,8.1679,8.2627,8.4787,8.5772,8.6606,8.744,8.8198,8.8653,8.8729,8.9487,9.0283,9.1041,0.0,0.0,0.0,0.0,9.2481,9.2595,9.2595,9.2595,9.2595,9.2595,9.2974,9.3732,9.3732,9.4111,9.4755,9.4035,9.3732,9.3656,9.2898,9.2595,9.2557,9.2367,9.2292,9.2216,9.1382,9.0624,0.0,0.0,0.0,0.0,8.7974,8.708,8.6064,8.5827,8.5669,8.5595,8.5595,8.5595,8.5595,8.5595,8.5595,8.5409,8.4703,8.4518,8.4109,8.2586,8.2251,8.1991,8.1137,8.0988,8.1211,8.1991,8.2066,8.1508,8.0134,8.1768,0.0,8.1174,8.2288,8.3106,8.292,0.0,0.0,7.9614,7.6567,7.4115,7.2666,6.9571,6.6408,6.3361,6.2537,6.1742,6.0919,6.1359,6.2784,6.5221,6.6083,6.7256,6.8394,5.9392,5.8081,0.0,0.0,0.0,0.0,0.0,0.0,0.0,0.0,0.0,0.0,0.0,0.0,0.0,0.0,0.0,6.9475,7.6335,8.1869,8.3877,8.5318,8.6114,8.5886,8.6644,8.7478,8.8274,8.8501,8.888,8.9525,9.0359,9.0927,9.1079,9.1723,0.0,9.3315,9.3353,9.3656,9.43,9.43,9.43,9.43,0.0,0.0,9.4566,9.4566,9.4642,9.4793,9.4642,9.4566,9.4528,9.4376,9.43,9.4187,9.2822,9.2292,9.2216,9.1382,9.1003,9.0738,9.0055,8.9427,8.8947,8.8784,8.7884,8.684,8.6622,8.6115,0.0,8.5595,8.5595,8.5595,8.5595,8.5595,8.5558,8.5409,8.5372,8.5112,8.4146,8.3923,8.37,8.2883,8.2697,8.2771,8.292,8.24,8.2103,8.2437,8.2883,8.3069,8.2734,8.2994,8.266,8.1323,8.1025,8.0542,7.9576,7.7087,7.5416,7.5118,7.2206,6.9811,6.8182,6.8159,6.7694,6.6554,6.7273,6.7886,6.8394,6.9739,7.0877,7.1705,6.7945,6.6842,0.0,0.0,0.0,0.0,0.0,0.0,0.0,0.0,0.0,0.0,0.0,5.7308,6.106,0.0,7.137,7.5994,8.0618,8.4256,8.5924,8.7213,8.8009,8.7971,8.7971,8.8501,8.9714,8.9866,9.0017,9.0434,9.123,9.1875,9.2329,9.2709,9.3315,9.4149,9.4187,9.4376,9.4793,9.4793,9.4793,9.4793,9.4793,9.4793,9.4793,9.4793,9.4793,9.4793,9.4793,9.4793,9.4793,9.4793,9.4793,9.4717,9.3883,9.3315,9.286,9.1988,9.1685,9.1647,9.1192,9.0471,8.9704,8.9648,8.8687,8.7576,8.7452,8.7155,8.6858,8.6858,8.6858,8.6858,8.6858,8.6858,8.6747,8.6301,8.6189,8.5966,8.5149,8.5,8.4889,8.448,8.4406,8.4406,8.4406,8.4072,8.3663,8.3254,8.3886,8.4257,8.3849,8.3775,8.3477,8.2623,8.2177,8.162,8.0802,7.8462,7.6865,7.6456,7.4571,7.2797,7.1369,7.1401,7.094,6.9773,7.0946,7.1705,7.2119,7.3636,7.4568,7.4912,7.4188,7.3222,0.0,0.0,0.0,0.0,0.0,0.0,0.0,5.1668,5.3859,5.7535,6.0719,6.4396,6.9588,7.3151,7.6979,8.2058,8.4408,8.6151,8.7668,8.8577,8.9449,9.0434,8.9676,8.9601,9.0965,9.123,9.1344,9.1344,9.2102,9.286,9.3542,9.3732,9.4111,9.4755,9.4793,9.4793,9.4793,9.4793,9.4793,9.4793,9.4793,9.4793,9.4793,9.4793,9.4793,9.4793,9.4793,9.4793,9.4793,9.4793,9.4793,9.4793,9.4793,9.4376,9.3732,9.286,9.2557,9.2519,9.2367,9.1529,9.0475,9.0418,8.9489,8.8369,8.8307,8.8195,8.8084,8.8084,8.8084,8.8084,8.8084,8.8084,8.7898,8.723,8.7044,8.6821,8.6004,8.5818,8.5781,8.5632,8.5595,8.5595,8.5595,8.5743,8.5335,8.3886,8.4778,8.5372,8.4703,8.4629,8.4629,8.4629,8.4035,8.3329,8.2511,8.0617,7.9131,7.8313,7.7478,7.6263,7.4808,7.4539,7.4038,7.3109,7.4356,7.5189,7.5844,7.7051,7.7672,7.7672,7.8465,7.7672,4.9951,4.8086,4.8447,5.1147,5.2537,5.5325,0.0,6.4092,6.4585,6.9437,7.19,7.4099,7.6941,7.9632,8.2096,8.4256,8.6644,8.8501,8.9411,9.0283,9.142,9.2974,9.1761,9.0889,9.1079,9.1761,9.2178,9.2178,9.2974,9.3504,9.358,9.4262,9.4717,9.4793,9.4793,9.4793,9.4793,9.4793,9.4793,9.4793,9.4793,9.4793,9.4793,9.4793,9.4793,9.4793,9.4793,9.4793,9.4793,9.4793,9.4793,9.4793,9.4793,9.4717,9.4566,9.3732,9.3429,9.3315,9.2557,9.1959,9.1489,9.1339,9.0371,8.9312,8.9224,8.8678,8.8084,8.8084,8.8084,8.8084,8.8084,8.8084,8.8084,8.7973,8.7935,8.7712,8.6858,8.6672,8.6449,8.5743,8.5595,8.5595,8.5595,8.6189,8.6375,8.5483,8.5483,8.5558,8.5483,8.5483,8.5483,8.5483,8.5372,8.5,8.4183,8.3886,8.3366,8.2549,8.2103,8.1497,8.0631,8.0218,7.9673,7.8771,7.8946,7.9008,7.9017,7.9189,7.9258,7.9258,8.0017,7.9534,5.7429,5.5745,5.5352,5.8235,6.0559,6.3359,6.8079,6.9203,7.0422,7.4478,7.7017,7.9102,8.1148,8.3195,8.5242,0.0,8.8653,8.979,9.1079,9.1155,9.1155,9.1382,9.123,9.1458,9.2443,9.2405,9.2519,9.3012,9.3808,9.43,9.43,9.4604,9.4793,9.4793,9.4793,9.4793,9.4793,9.4793,9.4793,9.4793,9.4793,9.4793,9.4793,9.4793,9.4793,9.4793,9.4793,9.4793,9.4793,9.4793,9.4793,9.4793,9.4793,9.4793,9.4755,9.4414,9.4197,9.4001,9.3623,9.2843,9.2008,9.1912,9.0751,8.9399,8.931,8.8716,8.8084,8.8084,8.8084,8.8084,8.8084,8.8455,8.8678,8.8195,8.8455,8.8567,8.775,8.7564,8.7452,8.7118,8.7044,8.7192,8.7675,8.7638,8.7601,8.7712,8.7341,8.6858,8.6375,8.6301,8.6115,8.5632,8.5595,8.5446,8.5112,8.5112,8.4903,8.4508,8.4225,8.3471,8.1996,8.1734,8.0946,7.958,8.0032,8.0143,8.0155,8.0603,8.0603,8.0189,8.0948,8.0741,6.1002,6.0884,6.1649,6.447,6.7779,7.0898,7.2711,7.3992,7.569,7.8836,8.0883,8.274,8.4635,8.5962,8.7516,8.979,9.0207,9.07,9.2102,9.1609,9.0851,9.0245,9.0321,9.1155,9.305,9.3088,9.3353,9.4225,9.4831,9.5172,9.5172,9.4907,9.4793,9.4793,9.4793,9.4793,9.4793,9.4793,9.4793,9.4793,9.4793,9.4907,9.5172,9.5172,9.5021,9.4793,9.4793,9.4793,9.4793,9.4793,9.4793,9.4831,9.5058,9.5021,9.4831,9.5058,9.4863,9.4459,9.4404,9.3651,9.2591,9.253,9.1348,8.9942,8.9942,8.9384,8.8753,8.8753,8.8753,8.8753,8.8753,8.9198,8.9459,8.8901,8.9198,8.9459,8.8901,8.8753,8.8753,8.8753,8.8753,8.8938,8.9533,8.9161,8.8938,8.9533,8.9124,8.8381,8.7304,8.7155,8.7007,8.6672,8.6598,8.6598,8.6598,8.6598,8.6462,8.609,8.5826,8.5097,8.3678,8.3265,8.23,8.0858,8.1078,8.1194,8.0948,8.1741,8.181,8.1259,8.2052,8.2086,5.7773,6.0982,6.5427,6.8745,7.3185,7.7303,7.9514,8.0418,8.1565,8.4143,8.4749,8.5545,8.8009,8.8501,8.907,9.0775,9.1041,9.1344,9.2178,9.1609,9.1079,9.1041,8.9638,8.9638,0.0,9.377,9.5096,9.5968,9.6044,9.6082,9.6082,9.5248,9.4793,9.4793,9.4793,9.4793,9.4793,9.4793,9.4793,9.4793,9.4793,9.5248,9.6082,9.6082,9.5589,9.4793,9.4793,9.4793,9.4793,9.4793,9.4793,9.4869,9.5741,9.5551,9.4907,9.5741,9.5446,9.4567,9.4459,9.4085,9.3635,9.3451,9.2577,9.165,9.165,9.1056,9.0424,9.0424,9.0424,9.0424,9.0424,9.0462,9.0462,9.0424,9.0462,9.0462,9.0424,9.0424,9.0424,9.0424,9.0424,9.0424,9.0462,9.0424,9.0424,9.0462,9.0424,8.983,8.827,8.8047,8.8344,8.9124,8.9198,8.9198,8.9198,8.9198,8.8764,8.7794,8.7554,8.7316,8.6933,8.6093,8.5087,8.4086,8.3419,8.2565,8.1776,8.2535,8.2845,8.2845,8.3604,8.3949,6.4152,6.7813,7.1777,7.5873,7.916,8.1893,8.3764,8.4631,8.5204,8.5871,8.5143,8.4415,8.4454,8.4901,8.6,8.8274,9.0017,9.1382,9.2178,9.2064,9.1079,8.8918,8.9108,0.0,0.0,0.0,0.0,9.5096,9.5248,9.5248,9.5248,9.4945,9.4793,9.4793,9.4793,9.4793,9.4793,9.4793,9.4793,9.4793,9.54,9.612,9.6916,9.6916,9.6764,9.6423,9.5892,9.5665,9.5665,9.5665,9.5665,9.5741,9.6575,9.6385,9.5703,9.6006,9.534,9.4217,9.4142,9.3852,9.3488,9.3211,9.2459,9.1688,9.1688,9.113,9.0499,9.0499,9.0499,9.0499,9.0499,9.0907,9.1167,9.061,9.0907,9.1167,9.061,9.0499,9.0499,9.0499,9.0499,9.0685,9.1205,9.0833,9.0499,9.0499,9.0499,9.0313,8.9756,8.9681,8.9793,9.0053,9.009,9.009,9.009,9.009,8.9915,8.9461,8.9292,8.8787,8.8029,8.7547,8.6567,8.5089,8.4753,8.4193,8.3259,8.3535,8.3638,8.3638,8.388,8.4018,6.9778,7.3509,7.6943,8.164,8.3938,8.5419,8.6825,8.7094,8.6889,8.6393,8.4362,8.2525,8.1782,8.1236,8.2292,8.645,8.8159,8.9906,9.2565,9.2147,9.0846,8.8918,8.9108,8.9525,0.0,0.0,0.0,9.4604,9.5096,9.54,9.5665,9.5134,9.5058,9.5665,9.54,9.54,9.5703,9.54,9.5248,9.5286,9.6461,9.7105,9.7333,9.7636,9.7598,9.7295,9.6764,9.6537,9.6537,9.6537,9.6537,9.6612,9.7446,9.7105,9.6158,9.6423,9.5567,9.4217,9.4027,9.3672,9.3301,9.3054,9.2616,9.2171,9.2171,9.1799,9.139,9.139,9.139,9.139,9.139,9.1762,9.2022,9.1502,9.1799,9.2022,9.1502,9.139,9.139,9.139,9.139,9.1539,9.2059,9.1725,9.139,9.139,9.139,9.1167,9.0573,9.0499,9.061,9.0907,9.0945,9.0945,9.0945,9.0945,9.0703,9.0247,9.0076,8.9632,8.8713,8.8305,8.7357,8.5898,8.5526,8.4961,8.4018,8.4294,8.4432,8.4466,8.4708,8.4846,7.4286,7.7851,8.1031,8.5913,8.7468,8.8014,8.8682,8.7924,8.6838,8.5698,8.2529,7.9896,7.9743,7.7718,7.828,8.5159,8.5883,8.7561,9.3167,9.1909,9.0555,0.0,0.0,0.0,0.0,0.0,0.0,9.4617,0.0,9.6309,9.7143,9.5703,9.5589,9.7181,9.6537,9.6537,9.7295,9.6537,9.6196,9.6271,9.7863,9.8204,9.7484,9.828,9.8204,9.7446,9.737,9.737,9.737,9.737,9.7333,9.7408,9.8318,9.7598,9.6196,9.6991,9.6128,9.4476,9.4085,9.3611,9.3211,9.3054,9.2988,9.2988,9.2988,9.2988,9.2988,9.2988,9.2988,9.2988,9.2988,9.2988,9.2988,9.2988,9.2988,9.2988,9.2988,9.2988,9.2988,9.2988,9.2988,9.2988,9.2988,9.2988,9.2988,9.2988,9.2988,9.2431,9.0833,9.061,9.0907,9.1688,9.1762,9.1762,9.1762,9.1762,9.1334,9.0261,9.012,8.9929,8.9507,8.8703,8.7798,8.6706,8.5968,8.5066,8.4121,8.4915,8.5294,8.5328,8.6087,8.6432,7.9169,8.3229,8.6566,8.8455,8.9387,8.9745,8.9294,8.84,8.6645,8.3041,7.8523,7.4589,7.2499,7.3947,7.6807,8.1151,8.6197,9.0162,9.1643,9.2032,9.1431,8.9459,0.0,9.1921,9.1431,9.3155,0.0,0.0,9.4274,9.4604,9.54,9.5665,9.5968,9.6385,9.6802,9.7105,9.7295,9.7105,9.7333,9.7977,9.8394,9.8811,9.919,9.9379,9.9379,9.9152,9.8545,9.828,9.828,9.828,9.7901,9.7446,9.8924,9.8091,9.6196,9.6991,9.5966,9.4085,9.3969,9.3732,9.3526,9.3119,9.2988,9.2988,9.2988,9.2988,9.2988,9.2988,9.2988,9.2988,9.2988,9.2988,9.2988,9.2988,9.2988,9.2988,9.2988,9.2988,9.2988,9.2988,9.2988,9.2988,9.2988,9.2988,9.2988,9.2988,9.2988,9.2839,9.2431,9.2356,9.2431,9.2653,9.2653,9.2653,9.2653,9.2521,9.2276,9.2023,9.1712,9.1505,9.1363,9.1033,9.0087,8.8472,8.8259,8.7382,8.5708,8.6467,8.6846,8.688,8.7639,8.8019,8.4221,8.7464,8.973,9.0586,9.0733,8.9965,8.7226,8.5521,8.2896,7.6945,7.2444,6.9014,6.7022,6.9534,7.3644,7.8979,8.4771,8.9779,9.3275,9.3644,9.3421,9.2977,9.4122,9.4627,9.3816,9.4828,9.538,0.0,9.442,9.4744,9.6033,9.611,9.6679,9.7896,9.801,9.8086,9.8086,9.831,9.847,9.8621,9.8962,9.9379,9.9796,9.9796,9.9796,9.9758,0.0,9.9152,9.9152,9.9152,9.8849,9.8508,9.9417,9.8735,9.7257,9.7712,9.6704,9.5042,9.4608,9.4519,9.4435,9.3342,9.2988,9.2988,9.2988,9.2988,9.2988,9.2988,9.2988,9.2988,9.2988,9.2988,9.2988,9.2988,9.2988,9.2988,9.2988,9.2988,9.2988,9.2988,9.2988,9.3099,9.3471,9.3545,9.3657,9.3991,9.4065,9.4065,9.4065,9.3434,9.3136,9.3471,9.3545,9.3657,9.4028,9.3961,9.3826,9.362,9.3373,9.3231,9.3051,9.2533,9.1567,9.0105,8.9698,8.8721,8.7329,8.7708,8.795,8.795,8.8398,8.8605,8.9001,9.0882,9.1669,9.2276,9.1606,8.9429,8.4125,8.1109,7.724,6.9512,6.5655,6.3461,6.2783,6.5465,7.031,7.8118,8.299,8.8374,9.5818,9.567,9.5555,9.782,9.7594,9.721,9.713,9.6554,9.6211,9.6211,9.5646,9.5969,9.7638,9.6957,9.7667,10.0319,9.9708,9.9279,9.9231,9.9644,9.9471,9.8773,9.9493,9.9796,9.9796,9.9796,9.9796,9.9796,0.0,0.0,9.9796,9.9796,9.9758,9.9645,9.9758,9.9228,9.8432,9.8545,9.7742,9.6476,9.5585,9.5483,9.5446,9.3723,9.3211,9.3285,9.3174,9.3136,9.3136,9.3025,9.2988,9.2988,9.2988,9.2988,9.2988,9.2988,9.2988,9.2988,9.2988,9.3062,9.3136,9.3025,9.3174,9.3508,9.4102,9.4288,9.4585,9.5291,9.5403,9.5403,9.5403,9.4177,9.3582,9.4288,9.4362,9.4622,9.5328,9.5403,9.5198,9.481,9.4739,9.4631,9.4299,9.3462,9.2579,9.1602,9.0644,8.9765,8.8775,8.8777,8.8743,8.8743,8.8846,8.8881,9.2197,9.3599,9.4076,9.3467,9.2054,8.9235,8.3307,7.8331,7.2822,6.5102,6.0867,5.876,5.9302,6.4224,7.0613,7.8122,8.4401,9.0078,9.4974,9.5619,9.5747,9.6209,9.7241,9.7731,9.717,9.7866,0.0,0.0,0.0,9.7614,9.7235,9.8066,9.925,10.0722,10.0684,10.0397,10.007,10.0212,10.0012,9.9607,9.972,9.9796,9.9796,9.9796,9.9796,9.9796,0.0,0.0,9.9796,9.9796,9.9417,9.8887,9.9531,9.8887,9.7636,9.8318,9.7742,9.6589,9.6261,9.5969,9.552,9.4355,9.4437,9.4845,9.4177,9.3991,9.3842,9.3174,9.2988,9.2988,9.2988,9.2988,9.2988,9.2988,9.2988,9.2988,9.2988,9.3508,9.3805,9.3136,9.4065,9.4808,9.4288,9.4734,9.5254,9.5365,9.5403,9.5403,9.5403,9.5143,9.5031,9.518,9.518,9.5254,9.5403,9.5266,9.5022,9.481,9.4704,9.4522,9.4299,9.4112,9.3577,9.2662,9.169,9.0701,8.9792,8.9567,8.9502,8.9536,9.0123,9.0433,9.3755,9.4613,9.4676,9.3722,9.1102,8.671,7.8845,7.2985,6.6766,5.8178,5.547,5.4774,5.52,6.0955,6.7384,7.2694,7.8321,8.4633,9.2141,9.291,9.4287,9.851,9.9635,9.9784,9.9008,9.9424,9.9569,0.0,0.0,0.0,9.8673,9.9706,10.0586,10.1095,10.121,10.1091,10.0928,10.0489,10.0201,10.0075,9.9866,9.9796,9.9796,9.9796,9.9796,9.9796,0.0,0.0,9.9796,9.9796,9.9569,9.9266,9.9645,9.9303,9.8659,9.9076,9.8593,9.7712,9.72,9.6954,9.669,9.5737,9.544,9.5328,9.4957,9.4808,9.4734,9.4362,9.4251,9.4251,9.4251,9.4251,9.4251,9.4251,9.4251,9.4251,9.4251,9.4548,9.4697,9.4325,9.4883,9.5403,9.544,9.5774,9.6183,9.6629,9.6703,9.6703,9.6703,9.6703,9.6517,9.6071,9.6034,9.622,9.6666,9.6528,9.6317,9.6103,9.5994,9.5773,9.5547,9.5089,9.454,9.4094,9.2639,9.1834,9.1775,9.116,9.1088,9.1468,9.1847,9.1985,9.4885,9.5416,9.5112,9.3782,9.015,8.4359,7.4654,6.8142,6.1562,5.2492,5.0906,5.1331,5.2066,5.7371,6.3113,6.7564,7.2234,7.8985,8.9431,9.0813,9.345,10.0775,10.158,10.1386,10.069,10.0613,0.0,0.0,0.0,0.0,10.0401,10.1092,10.1475,10.1475,10.1475,10.1514,10.1402,10.0798,10.0395,10.0299,9.9972,9.9796,9.9796,9.9796,9.9796,9.9796,0.0,0.0,0.0,9.9796,9.9796,9.9796,9.9796,9.9796,9.9796,9.9742,9.9367,9.8778,9.8017,9.7862,9.7849,9.7112,9.6443,9.5886,9.57,9.5663,9.5626,9.544,9.5403,9.5403,9.5403,9.5403,9.5403,9.5403,9.5403,9.5403,9.5403,9.5551,9.5626,9.544,9.57,9.6071,9.6517,9.674,9.7112,9.778,9.7892,9.7966,9.8115,9.8152,9.7966,9.7446,9.7074,9.7149,9.7855,9.7752,9.7502,9.7285,9.7138,9.6987,9.6942,9.6202,9.583,9.6012,9.4061,9.3369,9.3968,9.2756,9.2537,9.3089,9.3089,9.3089,9.6366,9.7177,9.6467,9.3959,9.0069,8.4199,7.3795,6.6303,5.9314,5.1424,4.8624,4.8508,5.1641,5.4641,5.9224,6.7013,7.1948,7.8323,8.8579,9.1968,9.5263,10.0079,10.069,10.069,10.0613,10.0613,10.1193,0.0,0.0,0.0,0.0,10.1611,10.1896,10.1896,10.1896,10.1688,10.1402,10.0973,10.0665,10.0299,9.9972,9.9796,9.9796,9.9796,9.9796,9.9796,0.0,0.0,0.0,9.9796,9.9796,9.9796,9.9796,9.9796,9.9742,9.9481,9.9251,9.9013,9.844,9.815,9.8023,9.7849,9.7743,9.752,9.674,9.648,9.6331,9.5626,9.5403,9.5403,9.5403,9.5403,9.5403,9.5403,9.5403,9.5403,9.5403,9.596,9.6257,9.5551,9.6629,9.7446,9.674,9.726,9.7817,9.7892,9.7892,9.8152,9.8895,9.9006,9.9229,9.9898,9.8635,9.7817,9.7892,9.7752,9.7502,9.7285,9.7138,9.7245,9.775,9.7672,9.8039,9.8693,9.6742,9.5829,9.5806,9.3937,9.302,9.3089,9.3089,9.3089,9.6132,9.741,9.6719,9.4018,8.9313,8.2725,7.283,6.4909,5.7749,5.1061,4.874,4.8469,5.0364,5.2337,5.5474,6.0825,6.3119,6.8158,7.9416,8.2775,8.7234,9.5739,9.8137,9.9916,10.2005,0.0,10.2508,0.0,0.0,0.0,0.0,10.1787,10.1889,10.1889,10.1889,10.1787,10.1688,10.1404,10.1011,10.0703,10.0288,10.0024,9.9796,9.9796,9.9796,9.9796,0.0,0.0,0.0,9.9796,9.9796,9.9796,9.9796,9.9796,9.9742,9.9424,9.9133,9.8891,9.845,9.8158,9.7924,9.7892,9.7892,9.7855,9.7483,9.7372,9.7334,9.7,9.6889,9.6889,9.6889,9.6889,9.6889,9.6889,9.6889,9.6889,9.6889,9.7149,9.7297,9.6963,9.7446,9.778,9.7446,9.7669,9.7892,9.7892,9.83,9.8746,9.9043,9.9526,9.9935,10.0307,9.9303,9.882,9.9303,9.8754,9.8427,9.8725,9.8576,9.8496,9.8594,9.8631,9.8778,9.9108,9.7136,9.635,9.6778,9.4739,9.4054,9.4468,9.4468,9.4468,9.5026,9.6865,9.6347,9.3707,8.807,8.0805,7.1804,6.3785,5.6609,5.0867,4.901,4.8662,4.9552,5.0867,5.2879,5.6051,5.8062,6.282,7.3303,7.69,8.189,9.1213,9.4385,9.7054,0.0,10.2199,0.0,0.0,0.0,0.0,0.0,10.2315,10.2315,10.2315,10.2005,10.2005,10.2315,10.1701,10.1212,10.0885,10.0489,10.0101,9.9796,9.9796,9.9796,0.0,0.0,0.0,0.0,9.9796,9.9796,9.9796,9.9796,9.9742,9.9631,9.9309,9.8915,9.8604,9.8254,9.8061,9.7892,9.7892,9.7892,9.7892,9.7892,9.7892,9.7892,9.7892,9.7892,9.7892,9.7892,9.7892,9.7892,9.7892,9.7892,9.7892,9.7892,9.7892,9.7892,9.7892,9.7892,9.7892,9.7892,9.7892,9.7892,9.7892,9.8598,9.9192,9.9415,10.0195,10.0715,10.1012,10.0307,9.9935,10.0307,9.9313,9.8984,9.9649,9.9459,9.9338,9.9438,9.9475,9.9389,9.9367,9.7642,9.6874,9.7119,9.5471,9.4882,9.54,9.54,9.54,9.3032,9.5452,9.5417,9.2848,8.634,7.8496,7.0696,6.2965,5.5962,5.0767,4.901,4.8662,4.9552,5.0364,5.1757,5.4387,5.9764,6.6031,7.2955,7.7519,8.2122,8.7345,8.9433,9.1484,9.4037,9.9684,0.0,0.0,0.0,0.0,0.0,0.0,10.3204,10.3204,10.2315,10.2315,10.3204,10.2009,10.1212,10.0885,10.0489,10.0101,9.9796,9.9796,0.0,0.0,0.0,0.0,0.0,9.9796,9.9796,9.9796,9.9796,9.9631,9.9251,9.8915,9.8604,9.8254,9.7992,9.7892,9.7892,9.7892,9.7892,9.7892,9.7892,9.7892,9.7892,9.7892,9.7892,9.7892,9.7892,9.7892,9.7892,9.7892,9.7892,9.7892,9.7892,9.7892,9.7892,9.7892,9.7892,9.7892,9.7892,9.7892,9.7892,9.7892,9.8598,9.9378,10.0195,10.1012,10.1793,10.261,10.2015,10.1198,10.0381,9.9205,9.8836,9.9649,9.9342,9.9475,10.0283,10.0283,10.0208,9.9962,9.9021,9.7972,9.6901,9.5843,9.5365,9.54,9.54,9.54,8.2255,8.4893,8.5464,8.1726,7.7951,7.3316,6.6126,6.0765,5.6029,5.1447,4.9861,4.9552,5.0364,5.0751,5.3111,5.9803,6.2472,6.6263,7.369,7.8409,8.2355,8.572,9.276,9.8176,0.0,0.0,0.0,0.0,0.0,0.0,0.0,0.0,10.3204,10.3204,10.2895,10.2895,10.3204,10.218,10.1585,10.1212,10.0885,10.0489,10.0101,9.9866,0.0,0.0,0.0,0.0,0.0,9.9796,9.9796,9.9796,9.9796,9.9631,9.9251,9.8915,9.8604,9.8254,9.7992,9.7892,9.7892,9.7892,9.7892,9.7892,9.7892,9.7892,9.7892,9.7892,9.7892,9.7892,9.7892,9.7892,9.7892,9.7892,9.7892,9.7892,9.7892,9.7892,9.7892,9.7892,9.7892,9.7892,9.7892,9.7892,9.7892,9.7892,9.9043,10.0009,10.0307,10.1495,10.2424,10.2721,10.2015,10.1572,10.1685,10.0944,10.061,10.108,10.1039,10.1029,10.109,10.109,10.0792,9.9998,9.9057,9.7972,9.6936,9.5878,9.54,9.54,9.54,9.54,7.4763,7.8287,7.932,7.6638,7.3389,6.9343,6.3817,5.9332,5.5316,5.1641,5.0519,5.0326,5.0828,5.1177,5.3265,5.8913,6.1737,6.5218,7.0943,7.6281,8.1233,8.5759,0.0,0.0,0.0,0.0,0.0,0.0,0.0,0.0,0.0,0.0,10.3901,10.3204,10.3204,10.3204,10.3204,10.2315,10.1683,10.1402,10.1091,10.071,10.0299,0.0,0.0,0.0,0.0,0.0,0.0,9.9796,9.9796,9.9796,9.9687,9.9424,9.9035,9.873,9.845,9.8091,9.7961,9.7892,9.7892,9.7892,9.7892,9.7892,9.7892,9.7892,9.7892,9.7892,9.7892,9.7892,9.7892,9.7892,9.7892,9.7892,9.7892,9.7892,9.7892,9.7892,9.7892,9.7892,9.7892,9.8003,9.83,9.8338,9.8449,9.8746,9.9935,10.0789,10.0789,10.1904,10.2721,10.2721,10.2313,10.2128,10.2389,10.1611,10.1274,10.1776,10.1697,10.1617,10.1494,10.1494,10.1012,9.9998,9.9057,9.7972,9.6936,9.5878,9.5537,9.5813,9.5813,9.5813,0.0,7.3884,7.5385,7.5261,7.1037,6.5985,6.2687,5.8186,0.0,5.1447,5.0906,5.0945,5.1061,5.1718,5.2647,5.4078,5.9184,6.3864,6.6456,7.2761,0.0,0.0,9.0787,0.0,0.0,0.0,0.0,0.0,0.0,0.0,0.0,0.0,0.0,10.3204,10.3204,10.3204,10.3204,10.2315,10.1683,10.14,10.1091,10.071,10.0309,0.0,0.0,0.0,0.0,0.0,0.0,9.9834,9.9796,9.9742,9.9424,9.9095,9.873,9.8413,9.8158,9.7892,9.7892,9.7892,9.7892,9.7892,9.7892,9.7892,9.7892,9.7892,9.7892,9.7892,9.7892,9.7892,9.7892,9.7892,9.7892,9.7892,9.7892,9.7892,9.7892,9.7892,9.7929,9.7966,9.8003,9.8226,9.9043,9.9192,9.9452,10.0195,10.1012,10.1495,10.1495,10.2201,10.2721,10.2721,10.2721,10.2611,10.2426,10.1497,10.1234,10.1812,10.1654,10.1494,10.1494,10.1494,10.1012,9.991,9.887,9.781,9.6833,9.5878,9.5779,9.6503,9.6503,9.6538,5.5413,0.0,6.1632,6.039,5.9381,5.8192,0.0,5.4691,5.3265,5.1293,5.0906,5.1331,5.2647,5.2492,5.4426,6.1195,6.5644,6.9357,7.2568,7.9492,0.0,9.5623,9.717,0.0,0.0,0.0,0.0,0.0,0.0,0.0,0.0,0.0,0.0,10.3204,10.3204,10.3204,10.3204,10.2315,10.1896,10.1793,10.1211,10.088,10.0716,0.0,0.0,0.0,0.0,0.0,0.0,10.0099,9.9796,9.9742,9.9424,9.9095,9.873,9.8413,9.8158,9.7892,9.7892,9.7892,9.7892,9.7892,9.7892,9.7892,9.7892,9.7892,9.7892,9.7892,9.7892,9.7892,9.7892,9.7892,9.7892,9.7892,9.7892,9.7892,9.7892,9.7892,9.8077,9.8709,9.882,9.9081,9.9898,10.0009,10.0084,10.0307,10.1012,10.1495,10.1495,10.2201,10.2721,10.2721,10.2721,10.2612,10.22,10.1975,10.1825,10.1812,10.1654,10.1494,10.1494,10.1494,10.0676,9.887,9.7039,9.5951,9.5769,9.5475,9.5779,9.6503,9.6503,9.6814,4.8977,5.2903,5.6668,5.6133,5.6007,5.5664,5.4387,5.2879,5.137,5.0016,5.0055,5.0751,5.2066,5.2569,5.4813,6.1041,6.5218,0.0,0.0,0.0,9.0362,9.8872,9.9529,0.0,0.0,0.0,0.0,0.0,0.0,0.0,0.0,0.0,0.0,0.0,10.3011,10.3011,10.2585,10.2082,10.1889,10.1889,10.1212,10.0885,10.0923,0.0,0.0,0.0,0.0,0.0,10.0516,9.9986,9.9687,9.9537,9.9154,9.8854,9.8541,9.8225,9.7992,9.7892,9.7892,9.7892,9.7892,9.7892,9.7892,9.7892,9.7892,9.7892,9.7892,9.7892,9.7892,9.7892,9.7892,9.7892,9.7892,9.7892,9.7892,9.7892,9.7892,9.7892,9.8152,9.8932,9.9118,9.9452,10.0604,10.0901,10.1012,10.131,10.1793,10.209,10.209,10.2424,10.2721,10.2721,10.2721,10.2575,10.2313,10.2237,10.1969,10.1654,10.1611,10.1494,10.1494,10.1494,10.0591,9.8587,9.6936,9.5878,9.54,9.5744,9.6296,9.7055,9.74,9.7779,4.739,5.1687,5.5939,5.6106,5.5896,5.5354,5.4426,5.195,4.9668,4.8933,4.9475,5.0403,5.1486,5.3227,5.5702,5.9532,0.0,0.0,8.6416,8.8776,9.2064,10.0187,0.0,0.0,0.0,0.0,0.0,0.0,0.0,0.0,0.0,0.0,0.0,0.0,10.2585,10.2585,10.1889,10.1889,10.1889,10.1889,10.1212,10.0885,10.0923,10.0088,0.0,0.0,0.0,0.0,9.9986,9.9872,9.9593,9.9309,9.8915,9.8604,9.8254,9.7992,9.7892,9.7892,9.7892,9.7892,9.7892,9.7892,9.7892,9.7892,9.7892,9.7892,9.7892,9.7892,9.7892,9.7892,9.7892,9.7892,9.7892,9.7892,9.7892,9.7892,9.7892,9.8003,9.83,9.9118,9.9378,9.9935,10.1421,10.1718,10.1904,10.261,10.2721,10.2721,10.2721,10.2721,10.2721,10.2721,10.2721,10.2575,10.2351,10.22,10.1891,10.1457,10.1494,10.1494,10.1494,10.1413,10.0347,9.8587,9.7411,9.6484,9.5572,9.6193,9.6952,9.7848,9.8504,9.8849,4.9543,5.2601,5.432,5.1579,5.2376,5.3459,5.1873,5.1099,5.0674,5.0558,5.1215,5.2492,5.4813,5.725,6.0731,6.634,0.0,8.3863,0.0,0.0,9.6706,0.0,0.0,0.0,0.0,0.0,0.0,0.0,0.0,0.0,0.0,0.0,0.0,0.0,0.0,10.2005,10.1889,10.1889,10.1889,10.1889,10.1212,10.0885,10.0923,10.0088,10.0213,0.0,0.0,0.0,10.082,10.0099,9.9593,9.9309,9.8915,9.8604,9.8254,9.7992,9.7892,9.7892,9.7892,9.7892,9.7892,9.7892,9.7892,9.7892,9.7892,9.7892,9.7892,9.7892,9.7892,9.7892,9.7892,9.7892,9.7892,9.7892,9.7892,9.7892,9.7892,9.8449,9.9155,9.9972,10.0715,10.1421,10.2387,10.2498,10.261,10.2721,10.2721,10.2721,10.2721,10.2721,10.2721,10.2721,10.25,10.2351,10.2237,10.2006,10.1697,10.1457,10.1494,10.1494,10.1494,10.0676,9.9695,9.8491,9.7411,9.6764,9.6331,9.6434,9.7227,9.8607,9.8745,9.9124,4.7091,5.0031,5.2663,5.2492,5.4387,5.5935,5.4658,5.3304,5.2298,5.2298,5.2995,5.4387,5.694,6.1002,6.6882,7.5624,0.0,8.9356,0.0,0.0,0.0,0.0,0.0,0.0,0.0,0.0,0.0,0.0,0.0,0.0,0.0,0.0,0.0,0.0,10.1889,10.1889,10.1889,10.1889,10.1889,10.1889,10.1212,10.0885,10.0923,10.0088,9.9986,0.0,0.0,9.9986,10.0403,9.9783,9.9367,9.8975,9.8667,9.832,9.8061,9.7961,9.7892,9.7892,9.7892,9.7892,9.7892,9.7892,9.7892,9.7892,9.7892,9.7892,9.7892,9.7892,9.7892,9.7892,9.7892,9.7892,9.7892,9.7892,9.7892,9.7892,9.7892,9.8523,9.9341,10.0121,10.0901,10.1793,10.261,10.2721,10.2721,10.2721,10.2721,10.2721,10.2721,10.2721,10.2721,10.2721,10.2464,10.2314,10.2086,10.1891,10.1734,10.1494,10.1494,10.1494,10.1494,10.0518,9.9515,9.8491,9.7834,9.7253,9.6503,9.7331,9.809,9.8814,9.9193,9.9573,4.6123,4.874,5.1873,5.4697,5.6863,5.8488,5.9223,5.7404,5.5857,5.6863,5.7288,5.8139,6.0306,6.6379,0.0,8.3747,8.9665,0.0,0.0,0.0,0.0,0.0,0.0,0.0,0.0,0.0,0.0,0.0,0.0,0.0,0.0,0.0,0.0,0.0,10.1889,10.1889,10.1889,10.1889,10.1896,10.1793,10.1211,10.088,10.0716,10.0075,9.9796,9.9796,9.9796,9.9796,9.9796,9.9424,9.9095,9.8792,9.845,9.8158,9.7892,9.7892,9.7892,9.7892,9.7892,9.7892,9.7892,9.7892,9.7892,9.7892,9.7892,9.7892,9.7892,9.7892,9.7892,9.7892,9.7892,9.7892,9.7892,9.7892,9.7892,9.7892,9.7892,9.8672,9.9563,10.0195,10.1124,10.2015,10.261,10.2721,10.2721,10.2721,10.2721,10.2721,10.2721,10.2721,10.2721,10.2611,10.2352,10.2239,10.1969,10.1776,10.1691,10.1494,10.1494,10.1494,10.1494,10.0518,9.9515,9.8491,9.8187,9.7602,9.6503,9.8055,9.878,9.8814,9.9538,9.9883,5.0573,5.1873,5.2917,5.6283,5.725,5.8836,6.4329,6.3594,6.2897,6.6882,6.6456,6.5682,6.6688,7.5005,8.3244,8.8041,9.57,0.0,0.0,0.0,0.0,0.0,0.0,0.0,0.0,0.0,0.0,0.0,0.0,0.0,0.0,0.0,0.0,0.0,0.0,10.1889,10.1889,10.1889,10.1683,10.14,10.1091,10.071,10.0309,9.9972,9.9796,9.9796,9.9796,9.9796,9.9796,9.9424,9.9095,9.8792,9.845,9.8158,9.7892,9.7892,9.7892,9.7892,9.7892,9.7892,9.7892,9.7892,9.7892,9.7892,9.7892,9.7892,9.7892,9.7892,9.7892,9.7892,9.7892,9.7892,9.7892,9.7892,9.7892,9.7892,9.7892,9.9118,10.0195,10.0307,10.1607,10.261,10.2721,10.2721,10.2721,10.2721,10.2721,10.2721,10.2721,10.2721,10.2611,10.2389,10.2239,10.2006,10.1574,10.1457,10.1457,10.1494,10.1494,10.1494,10.1494,10.0518,9.9515,9.8491,9.8187,9.7602,9.6503,9.8055,9.878,9.8814,9.9538,9.9883,4.7671,4.9784,5.2608,5.7675,6.0538,6.2936,6.6263,6.7501,6.9164,7.3458,7.338,7.3303,7.574,0.0,8.7538,9.2335,0.0,0.0,0.0,0.0,0.0,0.0,0.0,0.0,0.0,0.0,0.0,0.0,0.0,0.0,0.0,0.0,0.0,0.0,0.0,10.1889,10.1889,10.1889,10.1616,10.1131,10.0966,10.071,10.0299,9.9972,9.9796,9.9796,9.9796,9.9687,9.9481,9.9095,9.8792,9.845,9.8158,9.7992,9.7892,9.7892,9.7892,9.7892,9.7892,9.7892,9.7892,9.7892,9.7892,9.7892,9.7892,9.7892,9.7892,9.7892,9.7892,9.7892,9.7892,9.7892,9.7892,9.7892,9.7892,9.804,9.8523,9.9526,10.0418,10.0901,10.1904,10.2721,10.2721,10.2721,10.2721,10.2721,10.2721,10.2721,10.2721,10.2721,10.2611,10.2389,10.2123,10.1812,10.1457,10.1494,10.1494,10.1494,10.1494,10.1177,10.0555,10.0173,9.9242,9.7511,9.7916,9.7602,9.6503,9.8055,9.8538,9.8124,9.9331,9.9642,4.6535,4.8933,5.2492,5.7443,6.224,6.6572,6.9628,7.2297,7.5546,8.0653,8.0382,7.984,8.1929,8.5797,0.0,0.0,0.0,0.0,0.0,0.0,0.0,0.0,0.0,0.0,0.0,0.0,0.0,0.0,0.0,0.0,0.0,0.0,0.0,0.0,0.0,0.0,10.1889,10.1889,10.1585,10.0885,10.0885,10.0627,10.0101,9.9866,9.9796,9.9796,9.9687,9.9481,9.9251,9.8792,9.845,9.8158,9.7924,9.7892,9.7892,9.7892,9.7892,9.7892,9.7892,9.7892,9.7892,9.7892,9.7892,9.7892,9.7892,9.7892,9.7892,9.7892,9.7892,9.7892,9.7892,9.7892,9.7892,9.7892,9.7892,9.804,9.8598,9.9563,10.0492,10.1012,10.2015,10.2721,10.2721,10.2721,10.2721,10.2721,10.2721,10.2721,10.2721,10.2611,10.2501,10.2239,10.1891,10.1617,10.1494,10.1494,10.1494,10.1494,10.1213,10.0724,9.9962,9.9333,9.836,9.6901,9.7395,9.7102,9.6158,9.7676,9.8055,9.7331,9.8607,9.9055,4.8624,5.0248,5.284,5.5432,6.1892,6.9125,7.5121,7.8448,8.22,8.9047,8.7731,8.514,8.4327,8.7615,0.0,0.0,0.0,0.0,0.0,0.0,0.0,0.0,0.0,0.0,0.0,0.0,0.0,0.0,0.0,0.0,0.0,0.0,0.0,0.0,0.0,0.0,10.1889,10.1889,10.1585,10.0885,10.0885,10.0527,9.9796,9.9796,9.9796,9.9796,9.9424,9.9309,9.9251,9.8541,9.8158,9.7892,9.7892,9.7892,9.7892,9.7892,9.7892,9.7892,9.7892,9.7892,9.7892,9.7892,9.7892,9.7892,9.7892,9.7892,9.7892,9.7892,9.7892,9.7892,9.7892,9.7892,9.7892,9.7892,9.7892,9.7892,9.7929,9.9192,10.0307,10.0307,10.1607,10.2721,10.2721,10.2721,10.2721,10.2721,10.2721,10.2721,10.2721,10.2464,10.2239,10.1776,10.1617,10.1494,10.1494,10.1494,10.1494,10.1494,10.0518,9.9998,9.9998,9.7972,9.6936,9.6936,9.6572,9.6124,9.54,9.6917,9.7262,9.6503,9.7296,9.8055,4.7903,5.0674,5.52,6.019,6.7191,7.4734,8.1929,8.4173,8.63,9.1909,9.1329,8.9743,8.9472,9.1445,0.0,0.0,0.0,0.0,0.0,0.0,0.0,0.0,0.0,0.0,0.0,0.0,0.0,0.0,0.0,0.0,0.0,0.0,0.0,0.0,0.0,0.0,10.1889,10.1889,10.1585,10.0885,10.0885,10.0527,9.9796,9.9796,9.9796,9.9796,9.9424,9.9154,9.8915,9.8291,9.7924,9.7892,9.7892,9.7892,9.7892,9.7892,9.7892,9.7892,9.7892,9.7892,9.7892,9.7892,9.7892,9.7892,9.7892,9.7892,9.7892,9.7892,9.7892,9.7892,9.7892,9.7892,9.7892,9.7892,9.7892,9.8189,9.9341,9.9972,10.0604,10.1793,10.2387,10.2721,10.2721,10.2721,10.2721,10.2721,10.2721,10.2574,10.2464,10.2314,10.2123,10.1776,10.1617,10.1494,10.1494,10.1494,10.1494,10.1494,9.9873,9.8964,9.8964,9.7576,9.652,9.5878,9.5793,9.5606,9.54,9.6365,9.6469,9.5744,9.7055,9.7814,5.1076,5.4658,5.9687,6.5296,7.1949,7.926,8.7306,8.9665,9.1097,9.4539,9.3882,9.2799,9.3147,9.4037,0.0,0.0,0.0,0.0,0.0,0.0,0.0,0.0,0.0,0.0,0.0,0.0,0.0,0.0,0.0,0.0,0.0,0.0,0.0,0.0,0.0,0.0,10.1889,10.1793,10.14,10.0885,10.0716,10.0424,9.9796,9.9796,9.9742,9.9575,9.9133,9.8767,9.8385,9.8061,9.7892,9.7892,9.7892,9.7892,9.7892,9.7892,9.7892,9.7892,9.7892,9.7892,9.7892,9.7892,9.7892,9.7892,9.7892,9.7892,9.7892,9.7892,9.7892,9.7892,9.7892,9.7892,9.7892,9.7892,9.7892,9.8152,9.9155,9.9861,10.0604,10.1607,10.2313,10.2721,10.2721,10.2721,10.2721,10.2721,10.2721,10.2648,10.2314,10.22,10.1969,10.1734,10.1611,10.1494,10.1494,10.1494,10.1494,10.1494,9.9606,9.8491,9.8491,9.7141,9.6059,9.54,9.54,9.54,9.54,9.5848,9.5813,9.54,9.6331,9.6917,5.6205,6.0422,6.5218,7.0556,7.6668,8.3438,9.1329,9.4346,9.57,9.6435,0.0,9.4578,9.5468,0.0,0.0,0.0,0.0,0.0,0.0,0.0,0.0,0.0,0.0,0.0,0.0,0.0,0.0,0.0,0.0,0.0,0.0,0.0,0.0,0.0,0.0,0.0,10.1696,10.1315,0.0,0.0,10.0298,9.9949,9.9628,9.9704,9.9537,9.9154,9.8541,9.8158,9.7892,9.7892,9.7892,9.7892,9.7892,9.7892,9.7892,9.7892,9.7892,9.7892,9.7892,9.7892,9.7892,9.7892,9.7892,9.7892,9.7892,9.7892,9.7892,9.7892,9.7892,9.7892,9.7892,9.7892,9.7892,9.7892,9.7892,9.7929,9.8077,9.9266,10.0307,10.0492,10.1718,10.2721,10.2721,10.2721,10.2721,10.2721,10.2721,10.2612,10.2237,10.2123,10.1932,10.1538,10.1494,10.1494,10.1494,10.1494,10.1494,10.1494,9.9606,9.8491,9.8491,9.6555,9.54,9.54,9.54,9.54,9.54,9.54,9.54,9.54,9.54,9.5779,5.4984,6.0383,6.7384,7.4541,8.3322,9.0903,9.3379,9.4733,9.5352,9.4849,9.5004,9.5468,0.0,0.0,0.0,0.0,0.0,0.0,0.0,0.0,0.0,0.0,0.0,0.0,0.0,0.0,0.0,0.0,0.0,0.0,0.0,0.0,0.0,0.0,0.0,9.9878,9.9878,9.9579,9.925,0.0,9.872,9.8601,9.8518,9.9122,9.9035,9.8514,9.8385,9.8158,9.7892,9.7892,9.7892,9.7892,9.7892,9.7892,9.7892,9.7892,9.7892,9.7892,9.7892,9.7892,9.7892,9.7892,9.7892,9.7892,9.7892,9.7892,9.7892,9.7892,9.7892,9.7892,9.7892,9.7892,9.7892,9.7892,9.7892,9.8263,9.9526,10.0084,10.0715,10.1904,10.2498,10.2721,10.2721,10.2721,10.2721,10.2721,10.2721,10.2612,10.2237,10.2123,10.1932,10.1538,10.1494,10.1494,10.1494,10.1494,10.1494,10.1494,9.9606,9.8491,9.8491,9.6555,9.54,9.54,9.54,9.54,9.54,9.54,9.54,9.54,9.54,9.5779,5.7228,6.3439,7.0982,8.0769,8.8428,9.3572,9.3611,9.4269,9.4501,9.3263,9.3998,9.512,0.0,0.0,0.0,0.0,0.0,0.0,0.0,0.0,0.0,0.0,0.0,0.0,0.0,0.0,0.0,0.0,0.0,0.0,0.0,0.0,0.0,0.0,9.9297,9.9297,9.9297,9.8821,9.8517,9.8278,9.7782,9.7393,9.7065,9.8266,9.8604,9.832,9.8158,9.8061,9.7892,9.7892,9.7892,9.7892,9.7892,9.7892,9.7892,9.7892,9.7892,9.7892,9.7892,9.7892,9.7892,9.7892,9.7892,9.7892,9.7892,9.7892,9.7892,9.7892,9.7892,9.7892,9.7892,9.7892,9.7892,9.7892,9.7892,9.8115,9.8969,9.9749,10.0492,10.1421,10.2201,10.2721,10.2721,10.2721,10.2721,10.2721,10.2314,10.2019,10.2086,10.1714,10.1449,10.1538,10.1494,10.1494,10.1494,10.1494,10.1295,10.0808,9.9333,9.8299,9.781,9.6272,9.54,9.54,9.54,9.54,9.54,9.54,9.54,9.54,9.54,9.5606,5.8952,6.6727,7.5276,8.6223,9.1367,9.3572,9.2915,9.3302,9.3379,9.1986,9.2915,0.0,0.0,0.0,0.0,0.0,0.0,0.0,0.0,0.0,0.0,0.0,0.0,0.0,0.0,0.0,0.0,0.0,0.0,0.0,0.0,0.0,9.8872,9.8872,9.8872,9.8872,9.8872,9.8211,9.7856,9.7935,9.7072,9.6342,9.5769,9.7134,9.7852,9.8001,9.7918,9.7892,9.7892,9.7892,9.7892,9.7892,9.7892,9.7892,9.7892,9.7892,9.7892,9.7892,9.7892,9.7892,9.7892,9.7892,9.7892,9.7892,9.7892,9.7892,9.7892,9.7892,9.7892,9.7892,9.7892,9.7892,9.7892,9.7892,9.7892,9.7929,9.8077,9.9155,10.0121,10.0307,10.1495,10.2498,10.2721,10.261,10.2498,10.2498,10.161,10.1204,10.1791,10.1121,10.0814,10.1384,10.1494,10.1494,10.1494,10.1494,10.1131,10.0122,9.9057,9.8007,9.6901,9.5951,9.54,9.54,9.54,9.54,9.54,9.54,9.54,9.54,9.54,9.54,5.4503,6.665,7.9608,8.6377,9.0091,9.2025,9.1909,9.1948,9.1986,0.0,0.0,0.0,0.0,0.0,0.0,0.0,0.0,0.0,0.0,0.0,0.0,0.0,0.0,0.0,0.0,0.0,0.0,0.0,0.0,0.0,0.0,9.7131,9.7131,9.7131,9.7131,0.0,9.7131,9.648,9.6249,9.6443,9.5945,9.5459,9.5105,9.5586,9.6176,9.6883,9.7557,9.7892,9.7892,9.7892,9.7892,9.7892,9.7892,9.7892,9.7892,9.7892,9.7892,9.7892,9.7892,9.7892,9.7892,9.7892,9.7892,9.7892,9.7892,9.7892,9.7892,9.7892,9.7892,9.7892,9.7892,9.7892,9.7892,9.7892,9.7892,9.8077,9.8783,9.9118,9.9452,10.0195,10.1012,10.1904,10.261,10.2127,10.1718,10.1718,10.0794,10.0389,10.0978,10.0826,10.0814,10.1384,10.1494,10.1494,10.1494,10.1494,10.1131,10.0122,9.9057,9.8007,9.6901,9.5951,9.54,9.54,9.54,9.54,9.54,9.54,9.54,9.54,9.54,9.54,5.8488,6.9203,7.9105,8.5565,8.8737,9.0284,9.0284,9.0633,9.0826,9.04,0.0,0.0,0.0,0.0,0.0,0.0,0.0,0.0,0.0,0.0,0.0,0.0,0.0,0.0,0.0,0.0,0.0,0.0,0.0,0.0,9.6783,9.6783,9.6783,9.6783,9.6783,0.0,9.6783,9.6352,9.5747,9.5189,9.4916,9.4516,9.3924,9.4458,9.518,9.596,9.6814,9.6926,9.6554,9.752,9.7595,9.7223,9.7706,9.7892,9.7892,9.7892,9.7892,9.7892,9.7892,9.7892,9.7892,9.7892,9.7892,9.7892,9.7892,9.7892,9.7892,9.7892,9.7892,9.7892,9.7892,9.7892,9.7892,9.7892,9.7892,9.8003,9.8338,9.8783,9.9341,10.0121,10.0604,10.0901,10.131,10.1087,10.0789,10.0789,9.9906,9.9391,10.0092,9.9529,9.948,10.0686,10.0796,10.098,10.1494,10.1048,10.0173,9.9242,9.8167,9.7106,9.6059,9.5695,9.54,9.54,9.54,9.54,9.54,9.54,9.54,9.54,9.54,9.54,5.9764,6.781,7.4193,8.1271,8.4985,8.7074,8.7731,0.0,8.9395,0.0,0.0,0.0,0.0,0.0,0.0,0.0,0.0,0.0,0.0,0.0,0.0,0.0,0.0,0.0,0.0,0.0,0.0,0.0,0.0,0.0,9.6125,9.6358,9.6474,9.6474,9.6667,9.6753,9.6653,9.6386,9.5542,9.416,9.4308,9.3894,9.3025,9.3619,9.4214,9.4845,9.5848,9.596,9.5514,9.674,9.6889,9.6369,9.7223,9.7557,9.7595,9.7817,9.7892,9.7892,9.7892,9.7892,9.7892,9.7892,9.7892,9.7892,9.7892,9.7892,9.7892,9.7892,9.7892,9.7892,9.7892,9.7892,9.7892,9.7892,9.7892,9.7892,9.7892,9.8375,9.9043,9.9861,10.0009,10.0084,10.0307,10.0121,10.0009,10.0009,9.8946,9.8504,9.9279,9.8496,9.8521,10.0099,10.0283,10.0613,10.1384,10.0591,9.9606,9.8587,9.7511,9.645,9.551,9.54,9.54,9.54,9.54,9.54,9.54,9.54,9.54,9.54,9.54,9.54,5.2995,5.8565,6.3748,7.1407,7.7016,8.131,8.3786,0.0,8.7267,0.0,0.0,0.0,0.0,0.0,0.0,0.0,0.0,0.0,0.0,0.0,0.0,0.0,0.0,0.0,0.0,0.0,0.0,0.0,0.0,0.0,9.4346,9.512,9.5584,9.5584,9.6358,9.6622,9.6352,9.6097,9.5142,9.3451,9.4215,9.3991,9.2988,9.3025,9.3099,9.3211,9.4771,9.544,9.5403,9.5477,9.5514,9.5551,9.6369,9.6666,9.6777,9.7595,9.7892,9.7892,9.7892,9.7892,9.7892,9.7892,9.7892,9.7892,9.7892,9.7892,9.7892,9.7892,9.7892,9.7892,9.7892,9.7892,9.7892,9.7892,9.7892,9.7892,9.7892,9.7929,9.8189,9.9006,9.9155,9.9415,10.0195,9.9675,9.9155,9.9155,9.8094,9.7654,9.8467,9.8128,9.8521,10.0099,10.0283,10.0613,10.1384,10.0591,9.9606,9.8587,9.7511,9.645,9.551,9.54,9.54,9.54,9.54,9.54,9.54,9.54,9.54,9.54,9.54,9.54,5.0094,5.5006,6.0228,6.6843,7.1949,7.6127,7.926,8.2587,8.5333,0.0,0.0,0.0,0.0,0.0,0.0,0.0,0.0,0.0,0.0,0.0,0.0,0.0,0.0,0.0,0.0,0.0,0.0,0.0,0.0,0.0,9.4191,9.4501,9.4655,9.4655,9.4775,9.4895,9.4863,9.5597,9.5234,9.376,9.4341,9.4048,9.2988,9.2988,9.2988,9.3025,9.3619,9.3842,9.3954,9.4957,9.5105,9.4771,9.6071,9.6591,9.6703,9.7595,9.7892,9.7892,9.7892,9.7892,9.7892,9.7892,9.7892,9.7892,9.7892,9.7892,9.7892,9.7892,9.7892,9.7892,9.7892,9.7892,9.7892,9.7892,9.7892,9.7892,9.7892,9.7892,9.8003,9.8263,9.8338,9.8412,9.8709,9.8523,9.7896,9.6713,9.6949,9.6953,9.6142,9.7095,9.83,9.9402,9.9989,10.0371,10.0482,9.9606,9.8551,9.7511,9.6555,9.5769,9.54,9.54,9.54,9.54,9.54,9.54,9.54,9.54,9.54,9.54,9.54,9.54,4.6341,5.0403,5.547,6.2008,6.5799,6.9628,7.6204,7.9453,8.189,0.0,0.0,0.0,0.0,0.0,0.0,0.0,0.0,0.0,0.0,0.0,0.0,0.0,0.0,0.0,0.0,0.0,0.0,0.0,0.0,0.0,9.334,9.365,9.3891,9.4034,9.3666,9.3404,9.3381,9.4299,9.422,9.317,9.3652,9.3593,9.2988,9.2988,9.2988,9.2988,9.2988,9.2988,9.3062,9.414,9.4288,9.3917,9.5254,9.5774,9.5923,9.7037,9.7446,9.752,9.778,9.7892,9.7892,9.7892,9.7892,9.7892,9.7892,9.7892,9.7892,9.7892,9.7892,9.7892,9.7892,9.7892,9.7892,9.7892,9.7892,9.7892,9.7892,9.7892,9.7892,9.7892,9.7892,9.7892,9.7892,9.8115,9.7859,9.6499,9.7356,9.7654,9.6326,9.7463,9.8594,9.9438,9.9989,10.0216,10.0013,9.9057,9.8069,9.7004,9.5951,9.54,9.54,9.54,9.54,9.54,9.54,9.54,9.54,9.54,9.54,9.54,9.54,9.54,0.0,0.0,0.0,5.6321,5.8294,6.166,7.427,0.0,7.6707,0.0,0.0,0.0,0.0,0.0,0.0,0.0,0.0,0.0,0.0,0.0,0.0,0.0,0.0,0.0,0.0,0.0,0.0,0.0,0.0,9.1716,9.1716,9.2489,9.3184,9.3658,9.3054,9.248,9.186,9.2128,9.2052,9.165,9.2301,9.269,9.2951,9.2988,9.2988,9.2988,9.2988,9.2988,9.2988,9.2988,9.2988,9.3062,9.3879,9.4214,9.44,9.5997,9.6591,9.674,9.7595,9.7892,9.7892,9.7892,9.7892,9.7892,9.7892,9.7892,9.7892,9.7892,9.7892,9.7892,9.7892,9.7892,9.7892,9.7892,9.7892,9.7892,9.7892,9.7892,9.7892,9.7929,9.7929,9.7929,9.7929,9.8598,9.901,9.8759,9.9242,9.9537,9.9309,9.9191,9.9402,10.0209,10.0319,10.0171,9.9926,9.9057,9.8007,9.6936,9.5951,9.54,9.54,9.54,9.54,9.54,9.54,9.54,9.54,9.54,9.54,9.54,9.54,9.54,4.1003,0.0,0.0,0.0,0.0,0.0,0.0,0.0,0.0,0.0,0.0,0.0,0.0,0.0,0.0,0.0,0.0,0.0,0.0,0.0,0.0,0.0,0.0,0.0,0.0,0.0,0.0,0.0,9.1716,9.1716,9.1716,9.1693,9.1587,9.1259,9.1489,9.113,9.0342,9.1391,9.1583,9.0833,9.2039,9.2451,9.2096,9.2691,9.2988,9.2988,9.2988,9.2988,9.2988,9.2988,9.2988,9.3062,9.3879,9.4214,9.44,9.5997,9.6591,9.674,9.7595,9.7892,9.7892,9.7892,9.7892,9.7892,9.7892,9.7892,9.7892,9.7892,9.7892,9.7892,9.7892,9.7892,9.7892,9.7892,9.7892,9.7892,9.7892,9.7892,9.8077,9.8672,9.8783,9.8783,9.8783,9.8932,9.8568,9.7097,9.6952,9.7138,9.7426,9.786,9.8741,10.0209,10.0796,10.0626,9.9021,9.8682,9.7711,9.5986,9.5585,9.54,9.54,9.54,9.54,9.54,9.54,9.54,9.54,9.54,9.54,9.54,9.54,9.54,4.1583,4.3053,4.5452,4.785,0.0,0.0,5.9339,6.1969,0.0,0.0,0.0,0.0,0.0,0.0,0.0,0.0,0.0,0.0,0.0,0.0,0.0,0.0,0.0,0.0,0.0,0.0,0.0,0.0,9.1716,9.1687,9.1659,9.1125,9.0647,9.0284,9.0228,8.9867,8.9205,9.0004,9.0301,9.0016,9.0863,9.1361,9.1725,9.2245,9.2653,9.2988,9.2988,9.2988,9.2988,9.2988,9.2988,9.3062,9.3508,9.3694,9.3842,9.5143,9.5811,9.622,9.7074,9.7595,9.7892,9.7892,9.7892,9.7892,9.7892,9.7892,9.7892,9.7892,9.7892,9.7892,9.7892,9.7892,9.7892,9.7892,9.7892,9.7892,9.7892,9.8152,9.8523,9.9006,9.9118,9.9081,9.901,9.9236,9.9053,9.7691,9.7728,9.8169,9.8672,9.9108,9.9573,10.0125,10.0553,10.0013,9.7972,9.7775,9.7141,9.5475,9.54,9.54,9.54,9.54,9.54,9.54,9.54,9.54,9.54,9.54,9.54,9.54,9.54,9.54,4.3363,4.4987,4.8082,5.0906,4.8972,0.0,6.0344,6.135,6.2472,0.0,0.0,0.0,0.0,0.0,0.0,0.0,0.0,0.0,0.0,0.0,0.0,0.0,0.0,0.0,0.0,0.0,9.16,9.1677,9.1716,9.1687,9.16,9.0761,9.0241,9.0149,8.9362,8.8823,8.8473,8.8473,8.8726,8.9161,8.9273,9.0053,9.1428,9.1613,9.2133,9.2839,9.2951,9.2988,9.2988,9.2988,9.2988,9.2988,9.2988,9.2988,9.3099,9.3879,9.466,9.5403,9.6294,9.7112,9.778,9.7855,9.7892,9.7892,9.7892,9.7892,9.7892,9.7892,9.7892,9.7892,9.7892,9.7892,9.7892,9.7892,9.7892,9.7892,9.7892,9.8449,9.9006,9.9081,9.9155,9.9159,9.8979,9.95,9.9871,9.9606,9.9971,10.0593,10.1427,10.1193,10.0829,10.0086,9.991,9.9057,9.7106,9.6901,9.645,9.5475,9.54,9.54,9.54,9.54,9.54,9.54,9.54,9.54,9.54,9.54,9.54,9.54,9.54,9.54,4.7463,4.8159,4.901,4.8275,0.0,0.0,4.9591,5.1293,5.4387,0.0,0.0,0.0,0.0,0.0,0.0,0.0,0.0,0.0,0.0,0.0,0.0,0.0,0.0,0.0,0.0,0.0,9.0942,9.1638,9.1716,9.1687,9.16,9.0761,9.016,8.9885,8.9044,8.8473,8.8208,8.8208,8.8221,8.8344,8.8976,8.9459,8.9793,9.1093,9.1799,9.1985,9.2691,9.2988,9.2988,9.2988,9.2988,9.2988,9.2988,9.2988,9.3099,9.3879,9.4288,9.4622,9.6108,9.6703,9.6963,9.7669,9.7892,9.7892,9.7892,9.7892,9.7892,9.7892,9.7892,9.7892,9.7892,9.7892,9.7892,9.7892,9.7892,9.7892,9.7892,9.8003,9.8338,9.8969,9.9638,9.9975,9.9759,9.9907,10.0093,10.0343,9.9419,9.9342,10.1317,9.9713,9.8758,9.9853,9.9242,9.8264,9.7004,9.6901,9.645,9.5475,9.54,9.54,9.54,9.54,9.54,9.54,9.54,9.54,9.54,9.54,9.54,9.54,9.54,9.54,4.9629,4.9977,5.0828,5.0403,0.0,0.0,0.0,5.0287,5.226,5.6979,0.0,0.0,0.0,0.0,0.0,0.0,0.0,0.0,0.0,0.0,0.0,0.0,0.0,0.0,0.0,0.0,9.0749,9.1638,9.1716,9.1561,9.1198,9.049,8.9847,8.93,8.8653,8.8269,8.8084,8.8084,8.8084,8.8084,8.8493,8.8901,8.931,9.0127,9.0945,9.1725,9.2171,9.2579,9.2988,9.2988,9.2988,9.2988,9.2988,9.2988,9.3062,9.3434,9.3842,9.4362,9.5588,9.6257,9.674,9.7632,9.7892,9.7892,9.7892,9.7892,9.7892,9.7892,9.7892,9.7892,9.7892,9.7892,9.7892,9.7892,9.7892,9.7892,9.7892,9.8226,9.8486,9.8486,9.9084,9.9461,9.9242,9.9242,9.9242,9.9268,9.8101,9.8006,9.9886,9.8607,9.7729,9.8408,9.7972,9.731,9.6238,9.6166,9.5951,9.54,9.54,9.54,9.54,9.54,9.54,9.54,9.54,9.54,9.54,9.54,9.54,9.54,9.54,9.54,0.0,0.0,5.4,0.0,0.0,5.0828,0.0,0.0,0.0,5.5393,0.0,0.0,0.0,0.0,0.0,0.0,0.0,0.0,0.0,0.0,0.0,0.0,0.0,0.0,0.0,0.0,8.9549,9.1097,9.0594,9.0312,9.0493,9.0126,8.9563,8.8914,8.8376,8.8084,8.8084,8.8084,8.8084,8.8084,8.8084,8.8418,8.905,8.9236,9.009,9.1465,9.165,9.2171,9.2988,9.2988,9.2988,9.2988,9.2988,9.2988,9.2988,9.2988,9.3397,9.4065,9.4883,9.57,9.6517,9.7372,9.7743,9.7892,9.7892,9.7892,9.7892,9.7892,9.7892,9.7892,9.7892,9.7892,9.7892,9.7892,9.7892,9.7892,9.7892,9.8412,9.8672,9.804,9.8271,9.8538,9.854,9.8504,9.8353,9.8107,9.7424,9.7304,9.8576,9.7867,9.7164,9.6934,9.6729,9.6238,9.5475,9.54,9.54,9.54,9.54,9.54,9.54,9.54,9.54,9.54,9.54,9.54,9.54,9.54,9.54,9.54,9.54,9.54,0.0,0.0,0.0,0.0,5.5509,0.0,0.0,0.0,5.021,4.7773,0.0,0.0,0.0,0.0,0.0,0.0,0.0,0.0,0.0,0.0,0.0,0.0,0.0,0.0,0.0,0.0,0.0,8.9201,8.6594,8.6268,8.9713,8.9821,8.9649,8.922,8.8495,8.8084,8.8084,8.8084,8.8084,8.8084,8.8084,8.8158,8.827,8.8976,8.9793,9.0685,9.139,9.2171,9.2988,9.2988,9.2988,9.2988,9.2988,9.2988,9.2988,9.2988,9.3062,9.3248,9.4065,9.4845,9.5663,9.648,9.726,9.7892,9.7892,9.7892,9.7892,9.7892,9.7892,9.7892,9.7892,9.7892,9.7892,9.7892,9.7892,9.7892,9.7892,9.7966,9.8003,9.7929,9.7826,9.7872,9.843,9.8355,9.8337,9.8626,9.8636,9.8487,9.8526,9.7569,9.6898,9.6901,9.6059,9.5475,9.54,9.54,9.54,9.54,9.54,9.54,9.54,9.54,9.54,9.54,9.54,9.54,9.54,9.54,9.54,9.54,9.54,9.54,0.0,0.0,0.0,0.0,0.0,0.0,4.9088,0.0,4.7811,0.0,0.0,0.0,0.0,0.0,0.0,0.0,0.0,0.0,0.0,0.0,0.0,0.0,0.0,0.0,0.0,0.0,0.0,0.0,0.0,8.452,8.7502,8.8581,8.8923,8.8633,8.8293,8.8084,8.8084,8.8084,8.8084,8.8084,8.8084,8.8084,8.8084,8.8455,8.931,9.0536,9.087,9.1762,9.2988,9.2988,9.2988,9.2988,9.2988,9.2988,9.2988,9.2988,9.2988,9.3099,9.3917,9.4734,9.5626,9.6926,9.7595,9.7892,9.7892,9.7892,9.7892,9.7892,9.7892,9.7892,9.7892,9.7892,9.7892,9.7892,9.7892,9.7892,9.7892,9.7892,9.7892,9.7752,9.7573,9.7469,9.758,9.7579,9.7269,9.6799,9.6579,9.6486,9.626,9.5715,9.5572,9.6024,9.5695,9.54,9.54,9.54,9.54,9.54,9.54,9.54,9.54,9.54,9.54,9.54,9.54,9.54,9.54,9.54,9.54,9.54,9.54,9.54,6.0692,0.0,0.0,0.0,0.0,0.0,0.0,0.0,0.0,0.0,0.0,0.0,0.0,0.0,0.0,4.9436,0.0,0.0,0.0,0.0,0.0,0.0,0.0,0.0,0.0,0.0,0.0,0.0,0.0,0.0,8.5304,8.6767,8.7525,8.7562,8.77,8.775,8.775,8.7973,8.8084,8.8084,8.8084,8.8084,8.8084,8.8084,8.8976,9.0499,9.0499,9.1428,9.2988,9.2988,9.2988,9.2988,9.2988,9.2988,9.2988,9.2988,9.2988,9.3062,9.3657,9.4548,9.5626,9.7074,9.7706,9.7892,9.7892,9.7892,9.7892,9.7892,9.7892,9.7892,9.7892,9.7892,9.7892,9.7892,9.7892,9.7892,9.7892,9.7822,9.7752,9.7644,9.7358,9.7063,9.6688,9.6535,9.618,9.5216,9.4749,9.4464,9.4525,9.4421,9.4572,9.5296,9.54,9.54,9.54,9.54,9.54,9.54,9.54,9.54,9.54,9.54,9.54,9.54,9.54,9.54,9.54,9.54,9.54,9.54,9.54,9.54,0.0,0.0,0.0,5.8294,0.0,0.0,0.0,0.0,5.1293,0.0,0.0,0.0,0.0,5.079,5.0519,4.9823,5.048,0.0,0.0,0.0,0.0,0.0,0.0,0.0,0.0,0.0,0.0,0.0,0.0,0.0,8.36,8.4518,8.516,8.6105,8.6631,8.6821,8.6821,8.7675,8.8084,8.8084,8.8084,8.8084,8.8084,8.8084,8.8976,9.0499,9.0499,9.1428,9.2988,9.2988,9.2988,9.2988,9.2988,9.2988,9.2988,9.2988,9.2988,9.2988,9.3025,9.4065,9.5551,9.6369,9.7223,9.7892,9.7892,9.7892,9.7892,9.7892,9.7892,9.7892,9.7892,9.7892,9.7892,9.7892,9.7892,9.7892,9.7892,9.7752,9.7573,9.7573,9.7285,9.6688,9.5676,9.5348,9.518,9.4928,9.4075,9.3618,9.4237,9.4261,9.4572,9.5296,9.54,9.54,9.54,9.54,9.54,9.54,9.54,9.54,9.54,9.54,9.54,9.54,9.54,9.54,9.54,9.54,9.54,9.54,9.54,9.54,0.0,0.0,7.0711,6.3013,0.0,0.0,0.0,0.0,0.0,0.0,0.0,0.0,0.0,5.1293,5.0828,5.0558,5.0712,5.0326,0.0,0.0,0.0,0.0,0.0,0.0,0.0,0.0,0.0,0.0,6.954,0.0,0.0,8.2082,8.3601,8.4919,8.5655,8.6264,8.6784,8.7081,8.7527,8.8084,8.8084,8.8084,8.8084,8.8084,8.8678,8.9756,9.0276,9.113,9.2171,9.2765,9.2988,9.2988,9.2988,9.2988,9.2988,9.2988,9.2988,9.3062,9.3619,9.4511,9.5514,9.6331,9.7186,9.7892,9.7892,9.7892,9.7892,9.7892,9.7892,9.7892,9.7892,9.7892,9.7892,9.7892,9.7892,9.7892,9.7892,9.7752,9.7573,9.743,9.6652,9.5874,9.5348,9.4195,9.3297,9.3201,9.3271,9.3444,9.3473,9.3951,9.4572,9.5296,9.54,9.54,9.54,9.54,9.54,9.54,9.54,9.54,9.54,9.54,9.54,9.54,9.54,9.54,9.54,9.54,9.54,9.54,9.54,9.54,7.4193,7.5082,0.0,0.0,6.6224,0.0,5.6553,0.0,0.0,0.0,0.0,0.0,0.0,0.0,5.2724,5.2724,5.1679,4.9823,0.0,4.6225,0.0,0.0,0.0,0.0,0.0,0.0,5.9339,6.487,6.5406,0.0,0.0,0.0,8.1366,8.2644,8.4555,8.5855,8.6375,8.6969,8.7527,8.8084,8.8084,8.8084,8.8084,8.8084,8.853,8.9347,9.0164,9.0945,9.1762,9.2653,9.2988,9.2988,9.2988,9.2988,9.2988,9.2988,9.2988,9.3062,9.3582,9.4474,9.5477,9.5997,9.6963,9.7892,9.7892,9.7892,9.7892,9.7892,9.7892,9.7892,9.7892,9.7892,9.7892,9.7892,9.7892,9.7892,9.7822,9.7681,9.7358,9.6764,9.5954,9.5181,9.4284,9.3097,9.2302,9.2302,9.2425,9.2546,9.2713,9.3399,9.4158,9.4917,9.5227,9.54,9.54,9.54,9.54,9.54,9.54,9.54,9.54,9.54,9.54,9.54,9.54,9.54,9.54,9.54,9.54,9.54,9.54,9.54]},{"header":{"parameterUnit":"m.s-1","parameterCategory":1,"la1":30.6,"la2":29.2853,"lo1":-89.7004,"lo2":-87.6739,"dy":0.0162,"dx":0.0183,"nx":112,"ny":82,"refTime":"2025-12-17T12:00:00:Z","depth":0,"parameterNumber":3,"parameterNumberName":"V-component_of_WINDS"},"data":[0.0,0.0,0.0,0.0,0.0,0.0,0.0,0.0,0.0,0.0,0.0,0.0,0.0,0.0,0.0,0.0,0.0,0.0,0.0,0.0,0.0,0.0,0.0,0.0,0.0,0.0,0.0,0.0,0.0,0.0,0.0,0.0,0.0,0.0,0.0,0.0,0.0,0.0,0.0,0.0,0.0,0.0,0.0,0.0,0.0,0.0,0.0,0.0,0.0,0.0,0.0,0.0,0.0,0.0,0.0,0.0,0.0,0.0,0.0,0.0,0.0,0.0,0.0,0.0,0.0,0.0,0.0,0.0,0.0,0.0,0.0,0.0,0.0,0.0,0.0,0.0,0.0,0.0,0.0,0.0,0.0,0.0,0.0,0.0,0.0,0.0,0.0,0.0,0.0,0.0,-2.5294,-2.7598,-3.068,-3.2412,-3.203,-3.1252,-2.9155,-2.5342,0.0,0.0,0.0,0.0,0.0,0.0,0.0,0.0,0.0,0.0,0.0,0.0,0.0,0.0,0.0,0.0,0.0,0.0,0.0,0.0,0.0,0.0,0.0,0.0,0.0,0.0,0.0,0.0,0.0,0.0,0.0,0.0,0.0,0.0,0.0,0.0,0.0,0.0,0.0,0.0,0.0,0.0,0.0,0.0,0.0,0.0,0.0,0.0,0.0,0.0,0.0,0.0,0.0,0.0,0.0,0.0,0.0,0.0,0.0,0.0,0.0,0.0,0.0,0.0,0.0,0.0,0.0,0.0,0.0,0.0,0.0,0.0,0.0,0.0,0.0,0.0,0.0,0.0,0.0,0.0,0.0,0.0,0.0,0.0,0.0,0.0,0.0,0.0,0.0,0.0,0.0,0.0,0.0,0.0,0.0,0.0,0.0,0.0,0.0,0.0,0.0,0.0,0.0,0.0,-2.5516,-3.0251,-3.2301,-3.3047,-3.2396,-3.1141,-2.8885,-2.5326,0.0,0.0,0.0,0.0,0.0,0.0,0.0,0.0,0.0,0.0,0.0,0.0,0.0,0.0,0.0,0.0,0.0,0.0,0.0,0.0,0.0,0.0,0.0,0.0,0.0,0.0,0.0,0.0,0.0,0.0,0.0,0.0,0.0,0.0,0.0,0.0,0.0,0.0,0.0,0.0,0.0,0.0,0.0,0.0,0.0,0.0,0.0,0.0,0.0,0.0,0.0,0.0,0.0,0.0,0.0,0.0,0.0,0.0,0.0,0.0,0.0,0.0,0.0,0.0,0.0,0.0,0.0,0.0,0.0,0.0,0.0,0.0,0.0,0.0,0.0,0.0,0.0,0.0,0.0,0.0,0.0,0.0,0.0,0.0,0.0,0.0,0.0,0.0,0.0,0.0,0.0,0.0,0.0,0.0,0.0,0.0,0.0,0.0,0.0,0.0,0.0,0.0,0.0,-2.5024,-2.7391,-3.1506,-3.2873,-3.319,-3.2475,-3.1125,-2.8916,-2.5612,-2.3356,0.0,0.0,0.0,0.0,0.0,0.0,0.0,0.0,0.0,0.0,0.0,0.0,0.0,0.0,0.0,0.0,0.0,0.0,0.0,0.0,0.0,0.0,0.0,0.0,0.0,0.0,0.0,0.0,0.0,0.0,0.0,0.0,0.0,0.0,0.0,0.0,0.0,0.0,0.0,0.0,0.0,0.0,0.0,0.0,0.0,0.0,0.0,0.0,0.0,0.0,0.0,0.0,0.0,0.0,0.0,0.0,0.0,0.0,0.0,0.0,0.0,0.0,0.0,0.0,0.0,0.0,0.0,0.0,0.0,0.0,0.0,0.0,0.0,0.0,0.0,0.0,0.0,0.0,0.0,0.0,0.0,0.0,0.0,0.0,0.0,0.0,0.0,0.0,0.0,0.0,0.0,0.0,0.0,0.0,0.0,0.0,0.0,0.0,0.0,0.0,0.0,0.0,-2.7963,-2.952,-3.2253,-3.3111,-3.319,-3.2475,-3.0823,-2.8583,-2.5691,-2.2641,0.0,0.0,0.0,0.0,0.0,0.0,0.0,0.0,0.0,0.0,0.0,0.0,0.0,0.0,0.0,0.0,0.0,0.0,0.0,0.0,0.0,0.0,0.0,0.0,0.0,0.0,0.0,0.0,0.0,0.0,0.0,0.0,0.0,0.0,0.0,0.0,0.0,0.0,0.0,0.0,0.0,0.0,0.0,0.0,0.0,0.0,0.0,0.0,0.0,0.0,0.0,0.0,0.0,0.0,0.0,0.0,0.0,0.0,0.0,0.0,0.0,0.0,0.0,0.0,0.0,0.0,0.0,0.0,0.0,0.0,0.0,0.0,0.0,0.0,0.0,0.0,0.0,0.0,0.0,0.0,0.0,0.0,0.0,0.0,0.0,0.0,0.0,0.0,0.0,0.0,0.0,0.0,0.0,0.0,0.0,0.0,0.0,0.0,0.0,0.0,0.0,0.0,-2.863,-3.122,-3.2761,-3.3254,-3.319,-3.2475,-2.9933,-2.7455,-2.5278,-2.1608,0.0,0.0,0.0,0.0,0.0,0.0,0.0,0.0,0.0,0.0,0.0,0.0,0.0,0.0,0.0,0.0,0.0,0.0,0.0,0.0,0.0,0.0,0.0,0.0,0.0,0.0,0.0,0.0,0.0,0.0,0.0,0.0,0.0,0.0,0.0,0.0,0.0,0.0,0.0,0.0,0.0,0.0,0.0,0.0,0.0,0.0,0.0,0.0,0.0,0.0,0.0,0.0,0.0,0.0,0.0,0.0,0.0,0.0,0.0,0.0,0.0,0.0,0.0,0.0,0.0,0.0,0.0,0.0,0.0,0.0,0.0,0.0,0.0,0.0,0.0,0.0,0.0,0.0,0.0,0.0,0.0,0.0,0.0,0.0,0.0,0.0,0.0,0.0,0.0,0.0,0.0,0.0,0.0,0.0,0.0,0.0,0.0,0.0,0.0,0.0,0.0,0.0,-2.783,-3.068,0.0,-3.327,-3.319,-3.2475,-3.0458,-2.7947,-2.496,0.0,0.0,0.0,0.0,0.0,0.0,0.0,0.0,0.0,0.0,0.0,0.0,0.0,0.0,0.0,0.0,0.0,0.0,0.0,0.0,0.0,0.0,0.0,0.0,0.0,0.0,0.0,0.0,0.0,0.0,0.0,0.0,0.0,0.0,0.0,0.0,0.0,0.0,0.0,0.0,0.0,0.0,0.0,0.0,0.0,0.0,0.0,0.0,0.0,0.0,0.0,0.0,0.0,0.0,0.0,0.0,0.0,0.0,0.0,0.0,0.0,0.0,0.0,0.0,0.0,0.0,0.0,0.0,0.0,0.0,0.0,0.0,0.0,0.0,0.0,0.0,0.0,0.0,0.0,0.0,0.0,0.0,0.0,0.0,0.0,0.0,0.0,0.0,0.0,0.0,0.0,0.0,0.0,0.0,0.0,0.0,0.0,0.0,0.0,0.0,0.0,0.0,-2.4295,-2.7911,-3.0982,0.0,-3.3667,-3.3572,-3.2968,-3.0918,-2.8249,-2.496,0.0,0.0,0.0,0.0,0.0,0.0,0.0,0.0,0.0,0.0,0.0,0.0,0.0,0.0,0.0,0.0,0.0,0.0,0.0,0.0,0.0,0.0,0.0,0.0,0.0,0.0,0.0,0.0,0.0,0.0,0.0,0.0,0.0,0.0,0.0,0.0,0.0,0.0,0.0,0.0,0.0,0.0,0.0,0.0,0.0,0.0,0.0,0.0,0.0,0.0,0.0,0.0,0.0,0.0,0.0,0.0,0.0,0.0,0.0,0.0,0.0,0.0,0.0,0.0,0.0,0.0,0.0,0.0,0.0,0.0,0.0,0.0,0.0,0.0,0.0,0.0,0.0,0.0,0.0,0.0,0.0,0.0,0.0,0.0,0.0,0.0,0.0,0.0,0.0,0.0,0.0,0.0,0.0,0.0,0.0,0.0,0.0,0.0,0.0,0.0,0.0,0.0,-2.4607,-2.8956,-3.2602,-3.4334,-3.4509,-3.4382,-3.4032,-3.1125,-2.8106,0.0,0.0,0.0,0.0,0.0,0.0,0.0,0.0,0.0,0.0,0.0,0.0,0.0,0.0,0.0,0.0,0.0,0.0,0.0,0.0,0.0,0.0,0.0,0.0,0.0,0.0,0.0,0.0,0.0,0.0,0.0,0.0,0.0,0.0,0.0,0.0,0.0,0.0,0.0,0.0,0.0,0.0,0.0,0.0,0.0,0.0,0.0,0.0,0.0,0.0,0.0,0.0,0.0,0.0,0.0,0.0,0.0,0.0,0.0,0.0,0.0,0.0,0.0,0.0,0.0,0.0,0.0,0.0,0.0,0.0,0.0,0.0,0.0,0.0,0.0,0.0,0.0,0.0,0.0,0.0,0.0,0.0,0.0,0.0,0.0,0.0,0.0,0.0,0.0,0.0,0.0,0.0,0.0,0.0,0.0,0.0,0.0,0.0,0.0,0.0,0.0,0.0,0.0,-2.3499,-2.8578,-3.2601,-3.3573,-3.3466,-3.3444,-3.3897,-3.1554,-2.8503,-2.496,0.0,0.0,0.0,0.0,0.0,0.0,0.0,0.0,0.0,0.0,0.0,0.0,0.0,0.0,0.0,0.0,0.0,0.0,0.0,0.0,0.0,0.0,0.0,0.0,0.0,0.0,0.0,0.0,0.0,0.0,0.0,0.0,0.0,0.0,0.0,0.0,0.0,0.0,0.0,0.0,0.0,0.0,0.0,0.0,0.0,0.0,0.0,0.0,0.0,0.0,0.0,0.0,0.0,0.0,0.0,0.0,0.0,0.0,0.0,0.0,0.0,0.0,0.0,0.0,0.0,0.0,0.0,0.0,0.0,0.0,0.0,0.0,0.0,0.0,0.0,0.0,0.0,0.0,0.0,0.0,0.0,0.0,0.0,0.0,0.0,0.0,0.0,0.0,0.0,0.0,0.0,0.0,0.0,0.0,0.0,0.0,0.0,0.0,0.0,0.0,0.0,0.0,-2.2935,-2.8547,-3.2639,-3.3561,-3.3898,-3.4185,-3.4684,-3.2491,-2.9457,-2.5453,0.0,0.0,0.0,0.0,0.0,0.0,0.0,0.0,0.0,0.0,0.0,0.0,0.0,0.0,0.0,0.0,0.0,0.0,0.0,0.0,0.0,0.0,0.0,0.0,0.0,0.0,0.0,0.0,0.0,0.0,0.0,0.0,0.0,0.0,0.0,0.0,0.0,0.0,0.0,0.0,0.0,0.0,0.0,0.0,0.0,0.0,0.0,0.0,0.0,0.0,0.0,0.0,0.0,0.0,0.0,0.0,0.0,0.0,0.0,0.0,0.0,0.0,0.0,0.0,0.0,0.0,0.0,0.0,0.0,0.0,0.0,0.0,0.0,0.0,0.0,0.0,0.0,0.0,0.0,0.0,0.0,0.0,0.0,0.0,0.0,0.0,0.0,0.0,0.0,0.0,0.0,0.0,0.0,0.0,0.0,0.0,0.0,0.0,0.0,0.0,0.0,0.0,-2.2736,-2.8372,-3.2572,-3.393,-3.4891,-3.5441,-3.5209,-3.3274,-3.0348,-2.6289,0.0,0.0,0.0,0.0,0.0,0.0,0.0,0.0,0.0,0.0,0.0,0.0,0.0,0.0,0.0,0.0,0.0,0.0,0.0,0.0,0.0,0.0,0.0,0.0,0.0,0.0,0.0,0.0,0.0,0.0,0.0,0.0,0.0,0.0,0.0,0.0,0.0,0.0,0.0,0.0,0.0,0.0,0.0,0.0,0.0,0.0,0.0,0.0,0.0,0.0,0.0,0.0,0.0,0.0,0.0,0.0,0.0,0.0,0.0,0.0,-1.2843,0.0,0.0,0.0,0.0,0.0,0.0,0.0,0.0,0.0,0.0,0.0,0.0,0.0,0.0,0.0,0.0,0.0,0.0,0.0,0.0,0.0,0.0,0.0,0.0,0.0,0.0,0.0,0.0,0.0,0.0,0.0,0.0,0.0,0.0,0.0,0.0,0.0,0.0,0.0,0.0,0.0,-2.2063,-2.707,-3.067,-3.0926,-3.1253,-3.1443,-3.1886,-3.0289,-2.7888,-2.4716,-2.1341,0.0,0.0,0.0,0.0,0.0,0.0,0.0,0.0,0.0,0.0,0.0,0.0,0.0,0.0,0.0,0.0,0.0,0.0,0.0,0.0,0.0,0.0,0.0,0.0,0.0,0.0,0.0,0.0,0.0,0.0,0.0,0.0,0.0,0.0,0.0,0.0,0.0,0.0,0.0,0.0,0.0,0.0,0.0,0.0,0.0,0.0,0.0,0.0,0.0,0.0,0.0,0.0,0.0,0.0,0.0,0.0,0.0,0.0,0.0,0.0,-1.3561,0.0,0.0,0.0,0.0,0.0,0.0,0.0,0.0,0.0,0.0,0.0,0.0,0.0,0.0,0.0,0.0,0.0,0.0,0.0,0.0,0.0,0.0,0.0,0.0,0.0,0.0,0.0,0.0,0.0,0.0,0.0,0.0,0.0,0.0,0.0,0.0,0.0,0.0,0.0,0.0,-2.1995,-2.6656,-2.9873,-3.0016,-3.0635,-3.1138,-3.1771,-3.0533,-2.8877,-2.689,-2.4029,0.0,0.0,0.0,0.0,0.0,0.0,0.0,0.0,0.0,0.0,0.0,0.0,0.0,0.0,0.0,0.0,0.0,0.0,0.0,0.0,0.0,0.0,0.0,0.0,0.0,0.0,0.0,0.0,0.0,0.0,0.0,0.0,0.0,0.0,0.0,0.0,0.0,0.0,0.0,0.0,0.0,0.0,0.0,0.0,0.0,0.0,0.0,0.0,0.0,0.0,0.0,0.0,0.0,0.0,0.0,-1.6849,-1.7265,-1.7454,-1.7398,-1.6358,-1.564,-1.512,0.0,0.0,0.0,0.0,0.0,0.0,0.0,0.0,0.0,0.0,0.0,0.0,0.0,0.0,0.0,0.0,0.0,0.0,0.0,0.0,0.0,0.0,0.0,0.0,0.0,-1.978,-1.9953,0.0,0.0,0.0,0.0,0.0,0.0,0.0,0.0,0.0,0.0,0.0,0.0,-2.2186,-2.65,-2.9299,-2.9505,-3.0434,-3.1304,-3.167,-3.0807,-2.9895,-2.8881,-2.6235,-2.3799,0.0,0.0,0.0,0.0,0.0,0.0,0.0,0.0,0.0,0.0,0.0,0.0,0.0,0.0,0.0,0.0,0.0,0.0,0.0,0.0,0.0,0.0,0.0,0.0,0.0,0.0,0.0,0.0,0.0,0.0,0.0,0.0,-1.1024,-1.1309,0.0,0.0,0.0,0.0,0.0,0.0,0.0,0.0,0.0,0.0,0.0,0.0,0.0,0.0,-1.5489,-1.6651,-1.7369,-1.7653,-1.8976,-1.9543,-1.9439,-1.9864,-2.0053,-2.0044,-1.9873,0.0,-1.6254,-1.5914,0.0,0.0,0.0,0.0,0.0,0.0,0.0,0.0,0.0,0.0,0.0,0.0,0.0,0.0,0.0,0.0,0.0,0.0,0.0,0.0,0.0,0.0,-2.2319,-2.2162,-2.2235,-2.2162,0.0,-1.8855,-1.6453,-1.5958,0.0,0.0,0.0,0.0,0.0,0.0,0.0,0.0,-2.2705,-2.5726,-2.7708,-2.7512,-2.7671,-2.7826,-2.7209,-2.661,-2.5762,-2.4698,-2.3117,-2.2192,-2.1991,-2.0027,0.0,0.0,0.0,0.0,0.0,0.0,0.0,0.0,0.0,0.0,0.0,0.0,0.0,0.0,0.0,0.0,0.0,0.0,0.0,0.0,0.0,0.0,0.0,0.0,0.0,0.0,0.0,0.0,0.0,-1.0753,-1.181,-1.1671,-1.1916,-1.1732,0.0,0.0,0.0,0.0,0.0,0.0,0.0,0.0,0.0,-1.6018,-1.6462,-1.7095,-1.7955,-1.8853,-1.9477,-1.9807,-2.0563,-2.0941,-2.0979,-2.1159,-2.1244,-2.1244,-2.1244,-2.0431,-1.9014,-1.7757,-1.6509,-1.5309,0.0,0.0,0.0,0.0,0.0,0.0,-1.5621,0.0,0.0,0.0,0.0,0.0,0.0,0.0,0.0,0.0,0.0,0.0,0.0,0.0,0.0,-2.3683,-2.3997,-2.4106,-2.3683,-2.1836,-1.9881,0.0,-1.7684,-1.6658,-1.5077,0.0,0.0,0.0,0.0,-2.1957,-2.3514,-2.5759,-2.716,-2.7039,-2.7135,-2.7292,-2.7322,-2.7046,-2.7109,-2.7565,-2.6566,-2.6136,-2.6349,-2.442,-2.2482,0.0,0.0,0.0,0.0,0.0,0.0,0.0,0.0,0.0,0.0,0.0,0.0,0.0,0.0,0.0,0.0,0.0,0.0,0.0,0.0,0.0,0.0,0.0,0.0,0.0,0.0,0.0,0.0,-1.199,-1.2694,-1.2215,-1.2822,-1.2757,0.0,0.0,0.0,0.0,0.0,0.0,-1.5271,-1.5876,-1.6793,-1.8097,-1.8541,-1.9184,-2.0062,-2.0544,-2.0989,-2.1404,-2.1556,-2.1745,-2.1943,-2.1943,-2.1943,-2.1943,-2.1896,-2.1688,-2.1253,-1.9325,-1.8031,-1.718,-1.6197,-1.5942,0.0,-1.6301,-1.6623,-1.7105,-1.7983,-1.822,-1.8012,-1.7294,0.0,-1.6477,-1.4935,0.0,0.0,0.0,0.0,-1.9341,-2.1296,0.0,-2.3937,-2.4661,-2.5144,-2.5325,-2.4927,-2.4045,-2.2802,0.0,-2.005,-1.8976,-1.7056,0.0,0.0,0.0,0.0,-2.3068,-2.4468,-2.6037,-2.7027,-2.7027,-2.6966,-2.7096,-2.7661,-2.7482,-2.7827,-2.8924,-2.8344,-2.8453,-2.9072,-2.7415,-2.5712,-2.4024,0.0,0.0,0.0,0.0,0.0,0.0,0.0,0.0,0.0,0.0,0.0,0.0,0.0,0.0,0.0,0.0,0.0,0.0,0.0,0.0,0.0,0.0,0.0,0.0,0.0,0.0,0.0,0.0,0.0,-1.341,-1.4383,0.0,0.0,0.0,0.0,-1.4128,-1.513,-1.6178,-1.7227,-1.8239,-1.9184,-2.0053,-2.0478,-2.0913,-2.1376,-2.1404,-2.1631,-2.2047,-2.2056,-2.217,-2.2359,-2.2359,-2.2359,-2.2349,-2.216,-2.2066,-2.1934,-2.044,-1.9675,-1.9354,-1.8513,-1.8314,-1.8503,-1.8513,-1.8787,-1.9117,-1.8976,-1.9061,-1.924,-1.9382,-1.9258,-1.8907,-1.8377,-1.8343,0.0,0.0,-2.0584,-2.1569,-2.3296,-2.4154,-2.4709,-2.5264,-2.5421,-2.5433,-2.5397,-2.4758,-2.384,0.0,-2.1667,-2.0762,-2.0146,0.0,-2.046,-2.1474,-2.2633,-2.3961,-2.5542,-2.6496,-2.7027,-2.7027,-2.681,-2.6544,-2.6242,-2.5759,-2.5398,-2.4992,-2.4686,-2.5244,-2.7144,-2.6458,-2.5941,-2.5993,-2.4248,0.0,0.0,0.0,0.0,0.0,0.0,0.0,0.0,0.0,0.0,0.0,0.0,0.0,0.0,0.0,0.0,0.0,0.0,0.0,0.0,0.0,0.0,0.0,0.0,0.0,0.0,0.0,0.0,-1.4629,-1.58,0.0,-1.4799,-1.5224,-1.5791,-1.6282,-1.7407,-1.8475,-1.9382,-2.0034,-2.0648,-2.1215,-2.1499,-2.1716,-2.1867,-2.2,-2.2132,-2.2283,-2.2283,-2.2321,-2.2387,-2.2387,-2.2387,-2.2387,-2.2312,-2.2283,-2.2236,-2.1584,-2.1036,-2.0563,-2.0129,-2.0006,-2.0072,-2.0072,-2.0337,-2.0667,-2.0459,-2.0526,-2.08,-2.0852,-2.0607,-2.0313,-2.0634,-2.1089,-2.1545,-2.236,-2.3175,-2.3925,-2.5144,-2.5651,-2.588,-2.5723,-2.582,-2.5844,-2.5506,-2.5083,-2.4649,-2.4263,-2.3333,-2.238,-2.1679,-2.2126,-2.2585,-2.2621,-2.3828,-2.512,-2.6206,-2.6749,-2.7027,-2.7027,-2.6798,-2.652,-2.6242,-2.5892,-2.5726,-2.5817,-2.5678,-2.617,-2.7309,-2.7812,-2.7763,-2.7694,-2.6903,-2.486,0.0,0.0,0.0,0.0,0.0,0.0,0.0,0.0,0.0,0.0,0.0,0.0,0.0,0.0,0.0,0.0,0.0,0.0,0.0,0.0,0.0,0.0,0.0,0.0,0.0,0.0,-1.5999,-1.5791,-1.7057,-1.7511,-1.6396,-1.7114,-1.7823,-1.8239,-1.9297,-2.0204,-2.0818,-2.1253,-2.1612,-2.1886,-2.2085,-2.2189,-2.2189,-2.2321,-2.2387,-2.2387,-2.2387,-2.2425,-2.2501,-2.2501,-2.2538,-2.2595,-2.2529,-2.2501,-2.2482,-2.2274,-2.1952,-2.1565,-2.1348,-2.1348,-2.1461,-2.1395,-2.1584,-2.1849,-2.1574,-2.1433,-2.1458,-2.179,-2.1916,-2.1905,-2.2594,-2.3393,-2.4147,-2.4485,-2.5092,-2.5566,-2.6085,-2.6363,-2.6411,-2.6049,-2.6097,-2.6097,-2.5663,-2.5433,-2.5289,-2.5192,-2.4456,-2.3683,-2.3152,-2.3792,-2.4226,-2.378,-2.4927,-2.6001,-2.6447,-2.681,-2.7027,-2.7027,-2.6713,-2.6387,-2.6109,-2.5602,-2.5359,-2.5539,-2.5384,-2.5846,-2.7003,-2.7093,-2.7511,-2.8177,-2.7556,-2.5999,-2.3512,0.0,0.0,0.0,0.0,0.0,0.0,0.0,0.0,0.0,0.0,0.0,0.0,0.0,0.0,0.0,0.0,0.0,0.0,0.0,0.0,0.0,0.0,0.0,-1.4355,-1.5971,-1.7086,-1.6916,-1.8154,-1.8711,-1.7898,-1.8749,-1.9524,-1.994,-2.0733,-2.1282,-2.148,-2.1877,-2.2104,-2.2113,-2.2302,-2.2406,-2.2406,-2.2406,-2.2406,-2.2406,-2.2406,-2.2519,-2.2727,-2.2727,-2.2831,-2.3001,-2.2803,-2.2727,-2.2708,-2.2501,-2.2406,-2.2387,-2.2179,-2.2349,-2.268,-2.2463,-2.2519,-2.2642,-2.2236,-2.1707,-2.1382,-2.2278,-2.307,-2.3586,-2.4651,-2.5536,-2.6242,-2.6242,-2.6242,-2.6242,-2.6242,-2.6242,-2.6242,-2.623,-2.623,-2.6158,-2.5892,-2.5844,-2.5771,-2.5518,-2.5035,-2.4673,-2.4661,-2.5096,-2.5373,-2.5132,-2.5977,0.0,-2.6278,-2.6701,-2.7027,-2.7003,-2.6532,-2.6097,-2.5832,-2.4842,-2.413,-2.3864,-2.3104,-2.3707,-2.6098,-2.4354,-2.489,-2.7788,-2.6261,-2.5311,-2.52,0.0,0.0,0.0,0.0,0.0,0.0,0.0,0.0,0.0,0.0,0.0,0.0,0.0,0.0,0.0,0.0,0.0,0.0,0.0,0.0,0.0,-1.4789,-1.5999,-1.5904,-1.7114,-1.821,-1.8768,-1.959,-2.0081,-1.9996,-2.0393,-2.0762,-2.1026,-2.1537,-2.1858,-2.1915,-2.217,-2.2378,-2.2538,-2.2595,-2.269,-2.2841,-2.2841,-2.2841,-2.2841,-2.2841,-2.2869,-2.2926,-2.2926,-2.2964,-2.3011,-2.2954,-2.2926,-2.2926,-2.2869,-2.2841,-2.2803,-2.2444,-2.2378,-2.2472,-2.2416,-2.2425,-2.2463,-2.2349,-2.2674,-2.3164,-2.4104,-2.4725,-2.5434,-2.6359,-2.6773,-2.681,-2.681,-2.681,-2.681,-2.681,-2.681,-2.6761,-2.6568,-2.652,-2.6447,-2.617,-2.6109,-2.6085,-2.6013,-2.588,-2.5723,-2.553,-2.5615,-2.5832,-2.6146,0.0,0.0,-2.6798,-2.693,-2.6882,-2.6484,-2.6134,-2.5832,-2.5566,-2.4733,-2.413,-2.3864,-2.3273,-2.3604,-2.4887,-2.582,-2.7848,-3.1236,-2.9687,-2.848,0.0,0.0,0.0,0.0,0.0,0.0,0.0,0.0,0.0,0.0,0.0,0.0,0.0,0.0,0.0,0.0,0.0,0.0,0.0,0.0,0.0,0.0,-1.6462,-1.7794,-1.8021,-1.8673,-1.941,-2.0166,-2.0658,-2.1017,-2.1215,-2.1433,-2.1603,-2.1716,-2.2028,-2.2255,-2.2349,-2.2463,-2.2623,-2.2831,-2.2841,-2.2897,-2.3011,-2.3011,-2.3011,-2.3011,-2.3011,-2.3058,-2.3143,-2.3143,-2.319,0.0,-2.3181,-2.3143,-2.3143,-2.3049,-2.3011,0.0,0.0,0.0,0.0,0.0,-2.2463,-2.2387,-2.2387,-2.2839,-2.382,-2.4769,-2.565,-2.6271,-2.7211,-2.7486,-2.7365,-2.7365,-2.7365,-2.7365,-2.7365,-2.7365,-2.7292,-2.7027,-2.6966,-2.6858,-2.6484,-2.6399,-2.6363,-2.6242,0.0,0.0,-2.617,-2.617,-2.6194,-2.6291,-2.6592,-2.6773,0.0,-2.6894,-2.6906,-2.6592,-2.6327,-2.6013,-2.5627,-2.4758,0.0,0.0,0.0,-2.3067,-2.3984,-2.5955,0.0,0.0,0.0,0.0,0.0,0.0,0.0,0.0,-2.8755,-2.8498,0.0,0.0,0.0,0.0,0.0,0.0,0.0,0.0,0.0,0.0,0.0,0.0,0.0,0.0,0.0,0.0,-1.804,-1.9429,-2.0214,-2.0365,-2.0601,-2.114,-2.1385,-2.1593,-2.1801,-2.199,-2.2104,-2.2123,-2.2312,-2.251,-2.2699,0.0,0.0,0.0,0.0,-2.3058,-2.3086,-2.3086,-2.3086,-2.3086,-2.3086,-2.3181,-2.337,-2.337,-2.3464,-2.3625,-2.3446,-2.337,-2.3351,-2.3162,-2.3086,-2.3077,-2.303,-2.3011,-2.2992,-2.2784,-2.2595,0.0,0.0,0.0,0.0,-2.4811,-2.5794,-2.6723,-2.7473,-2.7836,-2.7811,-2.7811,-2.7811,-2.7811,-2.7811,-2.7811,-2.7751,-2.7522,-2.7461,-2.7329,-2.6834,-2.6725,-2.6641,-2.6363,-2.6315,-2.6387,-2.6641,-2.6665,-2.6484,-2.6037,-2.6568,0.0,-2.6375,-2.6737,-2.7003,-2.6942,0.0,0.0,-2.5868,-2.4878,-2.4082,-2.3611,-2.2773,-2.2866,-2.4164,-2.6224,-2.8138,-2.9877,-3.1096,-3.2683,-3.4678,-3.5137,-3.576,-3.6366,-3.1579,-3.0882,0.0,0.0,0.0,0.0,0.0,0.0,0.0,0.0,0.0,0.0,0.0,0.0,0.0,0.0,0.0,-1.7322,-1.9032,-2.0412,-2.0913,-2.1272,-2.1471,-2.1414,-2.1603,-2.1811,-2.2009,-2.2066,-2.216,-2.2321,-2.2529,-2.2671,-2.2708,-2.2869,0.0,-2.3266,-2.3275,-2.3351,-2.3512,-2.3512,-2.3512,-2.3512,0.0,0.0,-2.3578,-2.3578,-2.3597,-2.3635,-2.3597,-2.3578,-2.3568,-2.3531,-2.3512,-2.3483,-2.3143,-2.3011,-2.2992,-2.2784,-2.269,-2.2623,-2.2453,-2.3336,-2.4667,-2.5249,-2.6241,-2.7381,-2.7936,-2.798,0.0,-2.7811,-2.7811,-2.7811,-2.7811,-2.7811,-2.7799,-2.7751,-2.7739,-2.7655,-2.7341,-2.7268,-2.7196,-2.693,-2.687,-2.6894,-2.6942,-2.6773,-2.6677,-2.6785,-2.693,-2.6991,-2.6882,-2.6966,-2.6858,-2.6423,-2.6327,-2.617,-2.5856,-2.5047,-2.4504,-2.4407,-2.4863,-2.6101,-2.8417,-3.0346,-3.247,-3.483,-3.5394,-3.5906,-3.6366,-3.7081,-3.7686,-3.8126,-3.6127,-3.554,0.0,0.0,0.0,0.0,0.0,0.0,0.0,0.0,0.0,0.0,0.0,-1.4288,-1.5224,0.0,-1.7794,-1.8947,-2.01,-2.1007,-2.1423,-2.1745,-2.1943,-2.1934,-2.1934,-2.2066,-2.2368,-2.2406,-2.2444,-2.2548,-2.2746,-2.2907,-2.302,-2.3115,-2.3266,-2.3474,-2.3483,-2.3531,-2.3635,-2.3635,-2.3635,-2.3635,-2.3635,-2.3635,-2.3635,-2.3635,-2.3635,-2.3635,-2.3635,-2.3635,-2.3635,-2.3635,-2.3635,-2.3616,-2.3408,-2.3266,-2.3153,-2.2935,-2.286,-2.285,-2.2737,-2.3819,-2.5299,-2.5495,-2.6692,-2.8033,-2.8415,-2.8318,-2.8222,-2.8222,-2.8222,-2.8222,-2.8222,-2.8222,-2.8186,-2.8041,-2.8005,-2.7932,-2.7667,-2.7618,-2.7582,-2.7449,-2.7425,-2.7425,-2.7425,-2.7317,-2.7184,-2.7051,-2.7256,-2.7377,-2.7244,-2.722,-2.7123,-2.6846,-2.6701,-2.652,-2.6254,-2.5494,-2.4975,-2.4842,-2.5313,-2.7037,-3.0111,-3.1417,-3.3647,-3.7099,-3.7723,-3.8126,-3.8346,-3.9153,-3.9648,-3.9832,-3.9447,-3.8933,0.0,0.0,0.0,0.0,0.0,0.0,0.0,-1.2524,-1.3429,-1.4345,-1.5139,-1.6056,-1.735,-1.8239,-1.9193,-2.0459,-2.1045,-2.148,-2.1858,-2.2085,-2.2302,-2.2548,-2.2359,-2.234,-2.268,-2.2746,-2.2775,-2.2775,-2.2964,-2.3153,-2.3323,-2.337,-2.3464,-2.3625,-2.3635,-2.3635,-2.3635,-2.3635,-2.3635,-2.3635,-2.3635,-2.3635,-2.3635,-2.3635,-2.3635,-2.3635,-2.3635,-2.3635,-2.3635,-2.3635,-2.3635,-2.3635,-2.3635,-2.3531,-2.337,-2.3153,-2.3077,-2.3068,-2.303,-2.4098,-2.573,-2.5927,-2.7146,-2.85,-2.8693,-2.8656,-2.862,-2.862,-2.862,-2.862,-2.862,-2.862,-2.856,-2.8343,-2.8282,-2.821,-2.7944,-2.7884,-2.7872,-2.7824,-2.7811,-2.7811,-2.7811,-2.786,-2.7727,-2.7256,-2.7546,-2.7739,-2.7522,-2.7498,-2.7498,-2.7498,-2.7304,-2.7075,-2.681,-2.6194,-2.5711,-2.5446,-2.5736,-2.7569,-3.0795,-3.164,-3.3936,-3.8058,-3.8707,-3.9559,-4.0327,-4.0969,-4.1299,-4.1299,-4.1721,-4.1299,-0.8471,-0.9129,-0.9527,-1.0755,-1.1167,-1.2139,0.0,-1.598,-1.6103,-1.7312,-1.7927,-1.8475,-1.9184,-1.9855,-2.0469,-2.1007,-2.1603,-2.2066,-2.2293,-2.251,-2.2794,-2.3181,-2.2879,-2.2661,-2.2708,-2.2879,-2.2983,-2.2983,-2.3181,-2.3313,-2.3332,-2.3502,-2.3616,-2.3635,-2.3635,-2.3635,-2.3635,-2.3635,-2.3635,-2.3635,-2.3635,-2.3635,-2.3635,-2.3635,-2.3635,-2.3635,-2.3635,-2.3635,-2.3635,-2.3635,-2.3635,-2.3635,-2.3635,-2.3616,-2.3578,-2.337,-2.3294,-2.3266,-2.3077,-2.3997,-2.5587,-2.5976,-2.7198,-2.8374,-2.8776,-2.8813,-2.862,-2.862,-2.862,-2.862,-2.862,-2.862,-2.862,-2.8584,-2.8572,-2.85,-2.8222,-2.8162,-2.8089,-2.786,-2.7811,-2.7811,-2.7811,-2.8005,-2.8065,-2.7775,-2.7775,-2.7799,-2.7775,-2.7775,-2.7775,-2.7775,-2.7739,-2.7618,-2.7353,-2.7256,-2.7087,-2.6822,-2.7671,-2.906,-3.0951,-3.2004,-3.4436,-3.8632,-3.8718,-3.9823,-4.2014,-4.2106,-4.2142,-4.2142,-4.2546,-4.2289,-0.8711,-0.9579,-1.0009,-1.0531,-1.1909,-1.3612,-1.5249,-1.6455,-1.7558,-1.8569,-1.9203,-1.9722,-2.0233,-2.0743,-2.1253,0.0,-2.2104,-2.2387,-2.2708,-2.2727,-2.2727,-2.2784,-2.2746,-2.2803,-2.3049,-2.3039,-2.3068,-2.319,-2.3389,-2.3512,-2.3512,-2.3587,-2.3635,-2.3635,-2.3635,-2.3635,-2.3635,-2.3635,-2.3635,-2.3635,-2.3635,-2.3635,-2.3635,-2.3635,-2.3635,-2.3635,-2.3635,-2.3635,-2.3635,-2.3635,-2.3635,-2.3635,-2.3635,-2.3635,-2.3625,-2.354,-2.3923,-2.4529,-2.443,-2.553,-2.7036,-2.7225,-2.7962,-2.8617,-2.9019,-2.8825,-2.862,-2.862,-2.862,-2.862,-2.862,-2.8741,-2.8813,-2.8656,-2.8741,-2.8777,-2.8512,-2.8451,-2.8415,-2.8306,-2.8282,-2.8331,-2.8487,-2.8475,-2.8463,-2.85,-2.8379,-2.8222,-2.8065,-2.8041,-2.798,-2.7824,-2.7811,-2.7763,-2.7655,-2.7655,-2.7792,-2.7867,-2.859,-3.0381,-3.3754,-3.4484,-3.6676,-4.0767,-4.0998,-4.172,-4.2619,-4.2858,-4.2858,-4.2637,-4.3041,-4.2931,-0.8573,-0.9371,-1.004,-1.0211,-1.2409,-1.4585,-1.5455,-1.7252,-1.8872,-1.9656,-2.0166,-2.0629,-2.1102,-2.1433,-2.182,-2.2387,-2.2491,-2.2614,-2.2964,-2.2841,-2.2652,-2.2501,-2.2519,-2.2727,-2.32,-2.3209,-2.3275,-2.3493,-2.3644,-2.3729,-2.3729,-2.3663,-2.3635,-2.3635,-2.3635,-2.3635,-2.3635,-2.3635,-2.3635,-2.3635,-2.3635,-2.3663,-2.3729,-2.3729,-2.3691,-2.3635,-2.3635,-2.3635,-2.3635,-2.3635,-2.3635,-2.3644,-2.3701,-2.3691,-2.3644,-2.3701,-2.4313,-2.5089,-2.5295,-2.6412,-2.8087,-2.8289,-2.8802,-2.9224,-2.9224,-2.9043,-2.8837,-2.8837,-2.8837,-2.8837,-2.8837,-2.8982,-2.9067,-2.8886,-2.8982,-2.9067,-2.8886,-2.8837,-2.8837,-2.8837,-2.8837,-2.8898,-2.9091,-2.897,-2.8898,-2.9091,-2.8958,-2.8717,-2.8367,-2.8318,-2.827,-2.8162,-2.8137,-2.8137,-2.8137,-2.8137,-2.8302,-2.8805,-2.9343,-3.1394,-3.5304,-3.5774,-3.7941,-4.1868,-4.2207,-4.2492,-4.3041,-4.3463,-4.3499,-4.3206,-4.3628,-4.3646,-0.8248,-0.8435,-0.9632,-1.0427,-1.2575,-1.5026,-1.7083,-1.8936,-2.0337,-2.0979,-2.113,-2.1329,-2.1943,-2.2066,-2.2208,-2.2633,-2.2699,-2.2775,-2.2983,-2.2841,-2.2708,-2.2699,-2.2349,-2.2349,0.0,-2.3379,-2.371,-2.3928,-2.3946,-2.3956,-2.3956,-2.3748,-2.3635,-2.3635,-2.3635,-2.3635,-2.3635,-2.3635,-2.3635,-2.3635,-2.3635,-2.3748,-2.3956,-2.3956,-2.3833,-2.3635,-2.3635,-2.3635,-2.3635,-2.3635,-2.3635,-2.3653,-2.3871,-2.3824,-2.3663,-2.3871,-2.424,-2.4677,-2.5089,-2.6313,-2.7736,-2.8348,-2.919,-2.9779,-2.9779,-2.9586,-2.9381,-2.9381,-2.9381,-2.9381,-2.9381,-2.9393,-2.9393,-2.9381,-2.9393,-2.9393,-2.9381,-2.9381,-2.9381,-2.9381,-2.9381,-2.9381,-2.9393,-2.9381,-2.9381,-2.9393,-2.9381,-2.9188,-2.8681,-2.8608,-2.8705,-2.8958,-2.8982,-2.8982,-2.8982,-2.8982,-2.9055,-2.9375,-2.9721,-3.135,-3.4463,-3.4566,-3.6777,-4.1012,-4.0686,-4.1616,-4.3481,-4.3884,-4.405,-4.405,-4.4453,-4.4636,-0.8303,-0.8928,-0.9928,-0.9652,-1.183,-1.4256,-1.5336,-1.6834,-1.8305,-1.9628,-1.9657,-1.9683,-2.0861,-2.1168,-2.1442,-2.2009,-2.2444,-2.2784,-2.2983,-2.2954,-2.2708,-2.217,-2.2217,0.0,0.0,0.0,0.0,-2.371,-2.3748,-2.3748,-2.3748,-2.3672,-2.3635,-2.3635,-2.3635,-2.3635,-2.3635,-2.3635,-2.3635,-2.3635,-2.3786,-2.3965,-2.4164,-2.4164,-2.4126,-2.4041,-2.3909,-2.3852,-2.3852,-2.3852,-2.3852,-2.3871,-2.4079,-2.4031,-2.3861,-2.3937,-2.4657,-2.5687,-2.6108,-2.7133,-2.8359,-2.9389,-2.9819,-2.9791,-2.9791,-2.961,-2.9405,-2.9405,-2.9405,-2.9405,-2.9405,-2.9538,-2.9622,-2.9441,-2.9538,-2.9622,-2.9441,-2.9405,-2.9405,-2.9405,-2.9405,-2.9465,-2.9634,-2.9513,-2.9405,-2.9405,-2.9405,-2.9344,-2.9163,-2.9139,-2.9175,-2.926,-2.9272,-2.9272,-2.9272,-2.9272,-2.9432,-2.9933,-3.0311,-3.1878,-3.4454,-3.4928,-3.7192,-4.1271,-4.1337,-4.2206,-4.427,-4.4416,-4.4471,-4.4471,-4.46,-4.4673,-0.7642,-0.8375,-0.9277,-0.9121,-1.1237,-1.3529,-1.414,-1.5357,-1.689,-1.797,-1.8317,-1.8484,-1.9446,-1.9878,-2.0327,-2.0755,-2.1165,-2.1585,-2.2223,-2.2123,-2.202,-2.217,-2.2217,-2.2321,0.0,0.0,0.0,-2.3587,-2.371,-2.3786,-2.3852,-2.372,-2.3701,-2.3852,-2.3786,-2.3786,-2.3861,-2.3786,-2.3748,-2.3757,-2.405,-2.4211,-2.4268,-2.4343,-2.4334,-2.4258,-2.4126,-2.4069,-2.4069,-2.4069,-2.4069,-2.4088,-2.4296,-2.4211,-2.3975,-2.4041,-2.4715,-2.5687,-2.6518,-2.7747,-2.8971,-3.0011,-3.0093,-2.9948,-2.9948,-2.9827,-2.9695,-2.9695,-2.9695,-2.9695,-2.9695,-2.9815,-2.99,-2.9731,-2.9827,-2.99,-2.9731,-2.9695,-2.9695,-2.9695,-2.9695,-2.9743,-2.9912,-2.9803,-2.9695,-2.9695,-2.9695,-2.9622,-2.9429,-2.9405,-2.9441,-2.9538,-2.955,-2.955,-2.955,-2.955,-2.991,-3.0415,-3.0796,-3.2181,-3.5169,-3.5454,-3.7531,-4.1663,-4.1714,-4.2592,-4.4673,-4.482,-4.4893,-4.4911,-4.504,-4.5113,-0.6499,-0.6982,-0.7802,-0.884,-1.074,-1.2565,-1.3649,-1.4911,-1.5899,-1.6464,-1.6978,-1.753,-1.7679,-1.83,-1.8974,-1.8879,-1.904,-1.9412,-2.0655,-2.0376,-2.0698,0.0,0.0,0.0,0.0,0.0,0.0,-2.3372,0.0,-2.4013,-2.422,-2.3861,-2.3833,-2.423,-2.4069,-2.4069,-2.4258,-2.4069,-2.3984,-2.4003,-2.44,-2.4485,-2.4306,-2.4504,-2.4485,-2.4296,-2.4277,-2.4277,-2.4277,-2.4277,-2.4268,-2.4287,-2.4513,-2.4334,-2.3984,-2.4183,-2.4413,-2.4873,-2.6313,-2.7951,-2.9389,-3.0011,-3.0214,-3.0214,-3.0214,-3.0214,-3.0214,-3.0214,-3.0214,-3.0214,-3.0214,-3.0214,-3.0214,-3.0214,-3.0214,-3.0214,-3.0214,-3.0214,-3.0214,-3.0214,-3.0214,-3.0214,-3.0214,-3.0214,-3.0214,-3.0214,-3.0214,-3.0033,-2.9513,-2.9441,-2.9538,-2.9791,-2.9815,-2.9815,-2.9815,-2.9815,-3.0117,-3.0859,-3.1031,-3.2509,-3.5709,-3.5614,-3.7494,-4.2055,-4.1697,-4.2644,-4.4728,-4.515,-4.5352,-4.537,-4.5773,-4.5957,-0.6231,-0.6916,-0.7764,-0.8128,-0.9789,-1.1417,-1.1558,-1.2621,-1.353,-1.4269,-1.4022,-1.3824,-1.475,-1.6394,-1.7909,-1.8363,-2.0297,-2.1854,-2.2213,-2.1247,-2.0898,-2.2098,0.0,-1.9958,-2.2585,-2.1935,0.0,0.0,-2.2633,-2.3587,-2.3786,-2.3852,-2.3928,-2.4031,-2.4135,-2.4211,-2.4258,-2.4211,-2.4268,-2.4428,-2.4532,-2.4636,-2.4731,-2.4778,-2.4778,-2.4721,-2.457,-2.4504,-2.4504,-2.4504,-2.4409,-2.4296,-2.4665,-2.4457,-2.3984,-2.4183,-2.5042,-2.6313,-2.6723,-2.7542,-2.8371,-2.9808,-3.0214,-3.0214,-3.0214,-3.0214,-3.0214,-3.0214,-3.0214,-3.0214,-3.0214,-3.0214,-3.0214,-3.0214,-3.0214,-3.0214,-3.0214,-3.0214,-3.0214,-3.0214,-3.0214,-3.0214,-3.0214,-3.0214,-3.0214,-3.0214,-3.0214,-3.0165,-3.0033,-3.0008,-3.0033,-3.0105,-3.0105,-3.0105,-3.0105,-3.0509,-3.0875,-3.1014,-3.1803,-3.2628,-3.3479,-3.381,-3.5941,-4.0319,-4.0222,-4.1913,-4.5572,-4.5975,-4.6177,-4.6195,-4.6599,-4.68,-0.6259,-0.6884,-0.7456,-0.7527,-0.8936,-1.025,-1.0131,-1.088,-1.165,-1.1843,-1.1798,-1.1704,-1.2422,-1.4621,-1.6495,-1.6968,-1.9182,-2.0934,-2.0892,-2.0118,-1.9857,-2.0612,-1.9363,-1.9037,-2.0798,-2.0373,-1.9839,0.0,-2.2016,-2.3184,-2.2834,-2.3518,-2.3657,-2.3277,-2.3304,-2.3322,-2.3322,-2.4056,-2.4551,-2.4589,-2.4674,-2.4778,-2.4882,-2.4882,-2.4882,-2.4873,0.0,-2.4721,-2.4721,-2.4721,-2.4646,-2.4561,-2.4787,-2.4617,-2.4249,-2.4362,-2.546,-2.6805,-2.6905,-2.7774,-2.8872,-2.9879,-3.0214,-3.0214,-3.0214,-3.0214,-3.0214,-3.0214,-3.0214,-3.0214,-3.0214,-3.0214,-3.0214,-3.0214,-3.0214,-3.0214,-3.0214,-3.0214,-3.0214,-3.0214,-3.0214,-3.025,-3.0371,-3.0395,-3.0431,-3.0539,-3.0564,-3.0564,-3.0564,-3.0358,-3.0262,-3.0371,-3.0395,-3.0431,-3.0552,-3.0757,-3.1166,-3.178,-3.2379,-3.2786,-3.3409,-3.4597,-3.6763,-4.0117,-4.1114,-4.3272,-4.6434,-4.6635,-4.6764,-4.6764,-4.7002,-4.7112,-0.6224,-0.6754,-0.7215,-0.7465,-0.8417,-0.9399,-0.9399,-0.9959,-1.034,-0.9769,-0.9959,-1.0335,-1.0365,-1.2873,-1.5105,-1.5539,-1.7451,-1.8986,-1.9059,-1.8596,-1.8574,-1.8793,-1.8308,-1.8236,-1.866,-1.855,-1.8266,-1.8266,-2.1204,-2.2598,-2.1422,-2.283,-2.3223,-2.1781,-2.1649,-2.1782,-2.1999,-2.3693,-2.4571,-2.4627,-2.4806,-2.4882,-2.4882,-2.4882,-2.4882,-2.4882,0.0,0.0,-2.4882,-2.4882,-2.4873,-2.4844,-2.4873,-2.474,-2.4542,-2.457,-2.5506,-2.6755,-2.7183,-2.851,-3.0094,-3.0226,-3.0286,-3.031,-3.0274,-3.0262,-3.0262,-3.0226,-3.0214,-3.0214,-3.0214,-3.0214,-3.0214,-3.0214,-3.0214,-3.0214,-3.0214,-3.0238,-3.0262,-3.0226,-3.0274,-3.0383,-3.0576,-3.0636,-3.0733,-3.0962,-3.0998,-3.0998,-3.0998,-3.06,-3.0407,-3.0636,-3.066,-3.0745,-3.0974,-3.0998,-3.1622,-3.2646,-3.2853,-3.3279,-3.4322,-3.6111,-3.8111,-4.0306,-4.2509,-4.4511,-4.6707,-4.6955,-4.7185,-4.7185,-4.724,-4.7259,-0.6447,-0.6545,-0.6991,-0.7766,-0.8661,-0.9379,-0.9676,-1.0139,-1.0073,-0.915,-0.869,-0.852,-0.8598,-1.0747,-1.3406,-1.5717,-1.8325,-1.997,-2.0621,-1.9454,-1.8611,-1.8483,-1.6273,-1.5698,-1.8448,-1.7697,0.0,0.0,0.0,-1.9638,-1.9341,-2.1292,-2.1549,-2.0035,-2.0027,-2.0654,-2.2185,-2.2446,-2.332,-2.4835,-2.4863,-2.4882,-2.4882,-2.4882,-2.4882,-2.4882,0.0,0.0,-2.4882,-2.4882,-2.4787,-2.4655,-2.4816,-2.4655,-2.4343,-2.4513,-2.5506,-2.6786,-2.7375,-2.8655,-3.0117,-3.043,-3.0684,-3.0817,-3.06,-3.0539,-3.0491,-3.0274,-3.0214,-3.0214,-3.0214,-3.0214,-3.0214,-3.0214,-3.0214,-3.0214,-3.0214,-3.0383,-3.0479,-3.0262,-3.0564,-3.0805,-3.0636,-3.0781,-3.095,-3.0986,-3.0998,-3.0998,-3.0998,-3.0914,-3.0877,-3.0926,-3.0926,-3.095,-3.0998,-3.1414,-3.2025,-3.2646,-3.3072,-3.3704,-3.4322,-3.472,-3.5921,-3.7909,-4.0106,-4.2295,-4.4281,-4.6626,-4.7589,-4.7607,-4.7919,-4.8084,-0.6556,-0.6616,-0.6828,-0.7994,-0.8772,-0.9114,-0.9158,-0.9447,-0.9383,-0.8176,-0.7796,-0.7698,-0.7758,-0.9927,-1.2185,-1.3966,-1.6113,-1.7796,-1.8119,-1.743,-1.6625,-1.6264,-1.4891,-1.469,-1.6124,-1.5747,-1.5325,0.0,0.0,0.0,-1.7843,-1.8704,-1.9097,-1.8281,-1.8302,-1.8736,-1.939,-2.136,-2.2673,-2.3565,-2.4437,-2.4882,-2.4882,-2.4882,-2.4882,-2.4882,0.0,0.0,-2.4882,-2.4882,-2.4825,-2.475,-2.4844,-2.4759,-2.4598,-2.4702,-2.5957,-2.7558,-2.7642,-2.918,-3.0951,-3.1107,-3.101,-3.0974,-3.0853,-3.0805,-3.0781,-3.066,-3.0624,-3.0624,-3.0624,-3.0624,-3.0624,-3.0624,-3.0624,-3.0624,-3.0624,-3.0721,-3.0769,-3.0648,-3.0829,-3.0998,-3.101,-3.1119,-3.1252,-3.1397,-3.1421,-3.1421,-3.1421,-3.1421,-3.136,-3.1215,-3.1203,-3.1264,-3.1409,-3.183,-3.2461,-3.3091,-3.3523,-3.415,-3.4776,-3.5789,-3.7002,-3.8017,-4.1246,-4.3557,-4.4762,-4.7203,-4.8432,-4.8634,-4.8836,-4.8909,-0.6635,-0.6881,-0.7277,-0.8205,-0.8879,-0.9053,-0.9001,-0.882,-0.8515,-0.7377,-0.7154,-0.7214,-0.7317,-0.9087,-1.0987,-1.2065,-1.3877,-1.5174,-1.5367,-1.5401,-1.501,-1.4387,-1.4276,-1.4249,-1.4151,-1.414,0.0,0.0,0.0,0.0,-1.6801,-1.669,-1.6526,-1.6526,-1.6526,-1.6533,-1.6969,-2.005,-2.1798,-2.2236,-2.4001,-2.4882,-2.4882,-2.4882,-2.4882,-2.4882,0.0,0.0,0.0,-2.4882,-2.4882,-2.4882,-2.4882,-2.4882,-2.4882,-2.51,-2.6393,-2.8091,-2.8337,-2.9686,-3.1557,-3.1553,-3.1336,-3.1155,-3.1095,-3.1083,-3.1071,-3.101,-3.0998,-3.0998,-3.0998,-3.0998,-3.0998,-3.0998,-3.0998,-3.0998,-3.0998,-3.1046,-3.1071,-3.101,-3.1095,-3.1215,-3.136,-3.1433,-3.1553,-3.1771,-3.1807,-3.1831,-3.1879,-3.1891,-3.1831,-3.1662,-3.1541,-3.1566,-3.1795,-3.2234,-3.286,-3.3498,-3.3922,-3.4583,-3.5284,-3.6929,-3.799,-3.8062,-4.2371,-4.4785,-4.5072,-4.7773,-4.9203,-4.9496,-4.9496,-4.9496,-0.6739,-0.7435,-0.844,-0.9254,-0.9665,-0.9779,-0.9879,-0.9023,-0.7941,-0.7113,-0.6834,-0.6817,-0.7258,-0.7801,-0.9115,-1.1816,-1.2848,-1.381,-1.5022,-1.5596,-1.5301,-1.4288,-1.4151,-1.4151,-1.414,-1.414,-1.4222,0.0,0.0,0.0,0.0,-1.5413,-1.4547,-1.4547,-1.4547,-1.5424,-1.6969,-1.8942,-2.0709,-2.2236,-2.4001,-2.4882,-2.4882,-2.4882,-2.4882,-2.4882,0.0,0.0,0.0,-2.4882,-2.4882,-2.4882,-2.4882,-2.4882,-2.51,-2.5959,-2.6826,-2.7691,-2.9393,-3.0477,-3.1142,-3.1557,-3.1759,-3.1686,-3.1433,-3.1348,-3.13,-3.1071,-3.0998,-3.0998,-3.0998,-3.0998,-3.0998,-3.0998,-3.0998,-3.0998,-3.0998,-3.1179,-3.1276,-3.1046,-3.1397,-3.1662,-3.1433,-3.1602,-3.1783,-3.1807,-3.1807,-3.1891,-3.2133,-3.2169,-3.2242,-3.2459,-3.2048,-3.1783,-3.1807,-3.2234,-3.286,-3.3498,-3.3922,-3.4675,-3.5578,-3.5791,-3.5926,-3.641,-4.0816,-4.2916,-4.3157,-4.7348,-4.9459,-4.9496,-4.9496,-4.9496,-0.6722,-0.7453,-0.8249,-0.9053,-0.9387,-0.9608,-0.9427,-0.8834,-0.7859,-0.7176,-0.685,-0.6812,-0.7078,-0.7355,-0.8043,-0.9498,-0.9997,-1.0643,-1.2223,-1.274,-1.3037,-1.3455,-1.3792,-1.4042,-1.4336,0.0,-1.4407,0.0,0.0,0.0,0.0,-1.4758,-1.432,-1.432,-1.432,-1.4758,-1.5424,-1.7197,-1.8949,-2.0717,-2.2463,-2.3783,-2.4882,-2.4882,-2.4882,-2.4882,0.0,0.0,0.0,-2.4882,-2.4882,-2.4882,-2.4882,-2.4882,-2.51,-2.6176,-2.7259,-2.8123,-2.963,-3.0714,-3.1581,-3.1807,-3.1807,-3.1795,-3.1674,-3.1638,-3.1626,-3.1517,-3.1481,-3.1481,-3.1481,-3.1481,-3.1481,-3.1481,-3.1481,-3.1481,-3.1481,-3.1566,-3.1614,-3.1505,-3.1662,-3.1771,-3.1662,-3.1735,-3.1807,-3.1807,-3.194,-3.2085,-3.2181,-3.2338,-3.2471,-3.2592,-3.2266,-3.2109,-3.2266,-3.2564,-3.3172,-3.3994,-3.4424,-3.5121,-3.5885,-3.5899,-3.5952,-3.6072,-4.0483,-4.2898,-4.3089,-4.7753,-5.001,-5.023,-5.023,-5.023,-0.6853,-0.7411,-0.8006,-0.861,-0.8868,-0.9207,-0.8816,-0.8398,-0.783,-0.7149,-0.6888,-0.6839,-0.6964,-0.7149,-0.7432,-0.7877,-0.816,-0.8829,-1.0302,-1.0808,-1.1509,-1.2819,-1.3265,-1.364,0.0,-1.4363,0.0,0.0,0.0,0.0,0.0,-1.4379,-1.4379,-1.4379,-1.4336,-1.4336,-1.4379,-1.6108,-1.7846,-1.961,-2.136,-2.311,-2.4882,-2.4882,-2.4882,0.0,0.0,0.0,0.0,-2.4882,-2.4882,-2.4882,-2.4882,-2.51,-2.5535,-2.661,-2.7897,-2.8974,-3.0274,-3.1154,-3.1807,-3.1807,-3.1807,-3.1807,-3.1807,-3.1807,-3.1807,-3.1807,-3.1807,-3.1807,-3.1807,-3.1807,-3.1807,-3.1807,-3.1807,-3.1807,-3.1807,-3.1807,-3.1807,-3.1807,-3.1807,-3.1807,-3.1807,-3.1807,-3.1807,-3.1807,-3.2036,-3.2229,-3.2302,-3.2555,-3.2724,-3.2821,-3.2592,-3.2471,-3.2592,-3.2989,-3.36,-3.4312,-3.4976,-3.5666,-3.6193,-3.6206,-3.6667,-3.7399,-4.1195,-4.3639,-4.4516,-4.8383,-5.045,-5.0725,-5.0725,-5.0725,-0.7322,-0.7931,-0.8348,-0.8123,-0.8504,-0.877,-0.8211,-0.7731,-0.7368,-0.7022,-0.6888,-0.6839,-0.6964,-0.7078,-0.7274,-0.7644,-0.8399,-0.928,-1.0253,-1.0895,-1.1542,-1.2275,-1.2569,-1.2857,-1.3216,-1.401,0.0,0.0,0.0,0.0,0.0,0.0,-1.4504,-1.4504,-1.4379,-1.4379,-1.4504,-1.6157,-1.7846,-1.961,-2.136,-2.311,-2.4882,-2.4882,0.0,0.0,0.0,0.0,0.0,-2.4882,-2.4882,-2.4882,-2.4882,-2.5535,-2.6826,-2.7897,-2.8974,-3.0274,-3.1368,-3.1807,-3.1807,-3.1807,-3.1807,-3.1807,-3.1807,-3.1807,-3.1807,-3.1807,-3.1807,-3.1807,-3.1807,-3.1807,-3.1807,-3.1807,-3.1807,-3.1807,-3.1807,-3.1807,-3.1807,-3.1807,-3.1807,-3.1807,-3.1807,-3.1807,-3.1807,-3.1807,-3.2036,-3.229,-3.2555,-3.2821,-3.3074,-3.334,-3.3147,-3.2881,-3.2616,-3.3434,-3.4032,-3.4312,-3.5423,-3.6206,-3.65,-3.65,-3.7715,-4.0387,-4.2543,-4.4907,-4.7262,-4.9627,-5.0706,-5.0725,-5.0725,-5.0725,-0.6835,-0.7614,-0.8229,-0.751,-0.8365,-0.9002,-0.8266,-0.8,-0.775,-0.723,-0.7008,-0.6964,-0.7078,-0.7133,-0.7464,-0.8405,-0.878,-0.9313,-1.0356,-1.102,-1.1574,-1.2047,-1.3037,-1.3798,0.0,0.0,0.0,0.0,0.0,0.0,0.0,0.0,-1.4504,-1.4504,-1.4461,-1.4461,-1.4504,-1.5043,-1.6089,-1.7846,-1.961,-2.136,-2.311,-2.4437,0.0,0.0,0.0,0.0,0.0,-2.4882,-2.4882,-2.4882,-2.4882,-2.5535,-2.6826,-2.7897,-2.8974,-3.0274,-3.1368,-3.1807,-3.1807,-3.1807,-3.1807,-3.1807,-3.1807,-3.1807,-3.1807,-3.1807,-3.1807,-3.1807,-3.1807,-3.1807,-3.1807,-3.1807,-3.1807,-3.1807,-3.1807,-3.1807,-3.1807,-3.1807,-3.1807,-3.1807,-3.1807,-3.1807,-3.1807,-3.1807,-3.2181,-3.2495,-3.2592,-3.2978,-3.328,-3.3376,-3.3147,-3.3248,-3.3777,-3.3776,-3.4398,-3.5546,-3.578,-3.6273,-3.6794,-3.6794,-3.7936,-4.0402,-4.2558,-4.4907,-4.7279,-4.9645,-5.0725,-5.0725,-5.0725,-5.0725,-0.687,-0.7366,-0.7638,-0.7379,-0.8037,-0.8668,-0.7836,-0.7811,-0.7774,-0.7258,-0.71,-0.7073,-0.7143,-0.7192,-0.7486,-0.828,-0.8677,-0.9166,-0.997,-1.0721,-1.1417,-1.2053,0.0,0.0,0.0,0.0,0.0,0.0,0.0,0.0,0.0,0.0,-1.4602,-1.4504,-1.4504,-1.4504,-1.4504,-1.4379,-1.5197,-1.6969,-1.8736,-2.049,-2.2236,0.0,0.0,0.0,0.0,0.0,0.0,-2.4882,-2.4882,-2.4882,-2.5317,-2.6176,-2.7465,-2.8544,-2.963,-3.0928,-3.1593,-3.1807,-3.1807,-3.1807,-3.1807,-3.1807,-3.1807,-3.1807,-3.1807,-3.1807,-3.1807,-3.1807,-3.1807,-3.1807,-3.1807,-3.1807,-3.1807,-3.1807,-3.1807,-3.1807,-3.1807,-3.1807,-3.1807,-3.1843,-3.194,-3.1952,-3.1988,-3.2085,-3.2471,-3.2748,-3.2748,-3.3111,-3.3376,-3.3376,-3.3243,-3.343,-3.4259,-3.4245,-3.4871,-3.6041,-3.6263,-3.6484,-3.6941,-3.6941,-3.8018,-4.0402,-4.2558,-4.4907,-4.7279,-4.9645,-5.0798,-5.0945,-5.0945,-5.0945,0.0,-0.744,-0.6927,-0.7413,-0.7623,-0.781,-0.742,-0.7531,0.0,-0.723,-0.7154,-0.716,-0.7176,-0.7269,-0.7399,-0.76,-0.8318,-0.8976,-0.934,-1.0226,0.0,0.0,-1.2759,0.0,0.0,0.0,0.0,0.0,0.0,0.0,0.0,0.0,0.0,-1.4504,-1.4504,-1.4504,-1.4504,-1.4379,-1.5197,-1.6741,-1.8736,-2.049,-2.2008,0.0,0.0,0.0,0.0,0.0,0.0,-2.4891,-2.4882,-2.51,-2.6176,-2.7249,-2.8544,-2.9619,-3.0714,-3.1807,-3.1807,-3.1807,-3.1807,-3.1807,-3.1807,-3.1807,-3.1807,-3.1807,-3.1807,-3.1807,-3.1807,-3.1807,-3.1807,-3.1807,-3.1807,-3.1807,-3.1807,-3.1807,-3.1807,-3.1807,-3.1819,-3.1831,-3.1843,-3.1916,-3.2181,-3.2229,-3.2314,-3.2555,-3.2821,-3.2978,-3.2978,-3.3207,-3.3376,-3.3376,-3.3376,-3.3588,-3.4271,-3.4701,-3.5105,-3.6054,-3.6498,-3.6941,-3.6941,-3.6941,-3.8018,-4.062,-4.299,-4.535,-4.749,-4.9645,-5.0927,-5.1312,-5.1312,-5.133,-0.7049,0.0,-0.7022,-0.6881,-0.7423,-0.779,0.0,-0.7443,-0.7486,-0.7209,-0.7154,-0.7214,-0.7399,-0.7377,-0.7649,-0.86,-0.9226,-0.9748,-1.0199,-1.1172,0.0,-1.3439,-1.3656,0.0,0.0,0.0,0.0,0.0,0.0,0.0,0.0,0.0,0.0,-1.4504,-1.4504,-1.4504,-1.4504,-1.4379,-1.4547,-1.4986,-1.8074,-1.9838,-2.0262,0.0,0.0,0.0,0.0,0.0,0.0,-2.4958,-2.4882,-2.51,-2.6176,-2.7249,-2.8544,-2.9619,-3.0714,-3.1807,-3.1807,-3.1807,-3.1807,-3.1807,-3.1807,-3.1807,-3.1807,-3.1807,-3.1807,-3.1807,-3.1807,-3.1807,-3.1807,-3.1807,-3.1807,-3.1807,-3.1807,-3.1807,-3.1807,-3.1807,-3.1867,-3.2073,-3.2109,-3.2193,-3.2459,-3.2495,-3.2519,-3.2592,-3.2821,-3.2978,-3.2978,-3.3207,-3.3376,-3.3376,-3.3376,-3.3836,-3.4941,-3.5113,-3.531,-3.6054,-3.6498,-3.6941,-3.6941,-3.6941,-3.8898,-4.299,-4.7067,-4.9418,-4.9854,-5.0498,-5.0927,-5.1312,-5.1312,-5.1477,-0.6557,-0.6965,-0.7084,-0.7266,-0.7622,-0.7823,-0.7644,-0.7432,-0.722,-0.7029,-0.7035,-0.7133,-0.7317,-0.7388,-0.7703,-0.8579,-0.9166,0.0,0.0,0.0,-1.27,-1.3896,-1.3988,0.0,0.0,0.0,0.0,0.0,0.0,0.0,0.0,0.0,0.0,0.0,-1.4477,-1.4477,-1.4417,-1.4347,-1.432,-1.432,-1.7846,-1.961,-1.9618,0.0,0.0,0.0,0.0,0.0,-2.5062,-2.4929,-2.5317,-2.5742,-2.7033,-2.8113,-2.9189,-3.05,-3.1368,-3.1807,-3.1807,-3.1807,-3.1807,-3.1807,-3.1807,-3.1807,-3.1807,-3.1807,-3.1807,-3.1807,-3.1807,-3.1807,-3.1807,-3.1807,-3.1807,-3.1807,-3.1807,-3.1807,-3.1807,-3.1807,-3.1891,-3.2145,-3.2205,-3.2314,-3.2688,-3.2785,-3.2821,-3.2917,-3.3074,-3.3171,-3.3171,-3.328,-3.3376,-3.3376,-3.3376,-3.3824,-3.473,-3.4954,-3.5609,-3.6498,-3.6733,-3.6941,-3.6941,-3.6941,-3.9118,-4.3636,-4.7279,-4.9645,-5.0725,-5.0908,-5.1202,-5.1605,-5.1788,-5.199,-0.6344,-0.692,-0.724,-0.776,-0.7856,-0.778,-0.7649,-0.7301,-0.698,-0.6877,-0.6953,-0.7084,-0.7236,-0.7481,-0.7828,-0.8367,0.0,0.0,-1.2145,-1.2477,-1.2939,-1.408,0.0,0.0,0.0,0.0,0.0,0.0,0.0,0.0,0.0,0.0,0.0,0.0,-1.4417,-1.4417,-1.432,-1.432,-1.432,-1.432,-1.7846,-1.961,-1.9618,-2.3337,0.0,0.0,0.0,0.0,-2.4929,-2.4901,-2.5525,-2.661,-2.7897,-2.8974,-3.0274,-3.1368,-3.1807,-3.1807,-3.1807,-3.1807,-3.1807,-3.1807,-3.1807,-3.1807,-3.1807,-3.1807,-3.1807,-3.1807,-3.1807,-3.1807,-3.1807,-3.1807,-3.1807,-3.1807,-3.1807,-3.1807,-3.1807,-3.1843,-3.194,-3.2205,-3.229,-3.2471,-3.2954,-3.305,-3.3111,-3.334,-3.3376,-3.3376,-3.3376,-3.3376,-3.3376,-3.3376,-3.3376,-3.3824,-3.4495,-3.4941,-3.5831,-3.6927,-3.6941,-3.6941,-3.6941,-3.7162,-3.9528,-4.3636,-4.6202,-4.8368,-5.0817,-5.1147,-5.155,-5.2027,-5.2375,-5.2559,-0.6743,-0.7159,-0.7272,-0.7134,-0.7361,-0.7513,-0.729,-0.7182,-0.7122,-0.7105,-0.7198,-0.7377,-0.7703,-0.8046,-0.8535,-0.9323,0.0,-1.1786,0.0,0.0,-1.3591,0.0,0.0,0.0,0.0,0.0,0.0,0.0,0.0,0.0,0.0,0.0,0.0,0.0,0.0,-1.4336,-1.432,-1.432,-1.432,-1.432,-1.7846,-1.961,-1.9618,-2.3337,-2.4986,0.0,0.0,0.0,-2.5137,-2.4958,-2.5525,-2.661,-2.7897,-2.8974,-3.0274,-3.1368,-3.1807,-3.1807,-3.1807,-3.1807,-3.1807,-3.1807,-3.1807,-3.1807,-3.1807,-3.1807,-3.1807,-3.1807,-3.1807,-3.1807,-3.1807,-3.1807,-3.1807,-3.1807,-3.1807,-3.1807,-3.1807,-3.1988,-3.2217,-3.2483,-3.2724,-3.2954,-3.3268,-3.3304,-3.334,-3.3376,-3.3376,-3.3376,-3.3376,-3.3376,-3.3376,-3.3376,-3.38,-3.4495,-3.4954,-3.5622,-3.6263,-3.6927,-3.6941,-3.6941,-3.6941,-3.8898,-4.1041,-4.3851,-4.6202,-4.8509,-5.122,-5.1275,-5.1697,-5.243,-5.2504,-5.2705,-0.6513,-0.692,-0.7284,-0.7377,-0.7644,-0.7861,-0.7682,-0.7491,-0.735,-0.735,-0.7448,-0.7644,-0.8002,-0.8573,-0.94,-1.0628,0.0,-1.2558,0.0,0.0,0.0,0.0,0.0,0.0,0.0,0.0,0.0,0.0,0.0,0.0,0.0,0.0,0.0,0.0,-1.432,-1.432,-1.432,-1.432,-1.432,-1.432,-1.7846,-1.961,-1.9618,-2.3337,-2.4929,0.0,0.0,-2.4929,-2.5033,-2.5573,-2.6393,-2.7681,-2.8759,-3.0059,-3.1154,-3.1593,-3.1807,-3.1807,-3.1807,-3.1807,-3.1807,-3.1807,-3.1807,-3.1807,-3.1807,-3.1807,-3.1807,-3.1807,-3.1807,-3.1807,-3.1807,-3.1807,-3.1807,-3.1807,-3.1807,-3.1807,-3.1807,-3.2012,-3.2278,-3.2531,-3.2785,-3.3074,-3.334,-3.3376,-3.3376,-3.3376,-3.3376,-3.3376,-3.3376,-3.3376,-3.3376,-3.3376,-3.4035,-3.4482,-3.5151,-3.5831,-3.6276,-3.6941,-3.6941,-3.6941,-3.6941,-3.9089,-4.1475,-4.3851,-4.6403,-4.8754,-5.1312,-5.1752,-5.2155,-5.254,-5.2742,-5.2944,-0.638,-0.685,-0.729,-0.7687,-0.7992,-0.822,-0.8323,-0.8068,-0.785,-0.7992,-0.8051,-0.8171,-0.8475,-0.9329,0.0,-1.177,-1.2602,0.0,0.0,0.0,0.0,0.0,0.0,0.0,0.0,0.0,0.0,0.0,0.0,0.0,0.0,0.0,0.0,0.0,-1.432,-1.432,-1.432,-1.432,-1.4547,-1.4986,-1.8074,-1.9838,-2.0262,-2.3565,-2.4882,-2.4882,-2.4882,-2.4882,-2.4882,-2.6176,-2.7249,-2.8328,-2.963,-3.0714,-3.1807,-3.1807,-3.1807,-3.1807,-3.1807,-3.1807,-3.1807,-3.1807,-3.1807,-3.1807,-3.1807,-3.1807,-3.1807,-3.1807,-3.1807,-3.1807,-3.1807,-3.1807,-3.1807,-3.1807,-3.1807,-3.1807,-3.1807,-3.206,-3.235,-3.2555,-3.2857,-3.3147,-3.334,-3.3376,-3.3376,-3.3376,-3.3376,-3.3376,-3.3376,-3.3376,-3.3376,-3.3588,-3.4247,-3.4705,-3.5609,-3.6041,-3.6511,-3.6941,-3.6941,-3.6941,-3.6941,-3.9089,-4.1475,-4.3851,-4.657,-4.8929,-5.1312,-5.2137,-5.2522,-5.254,-5.2925,-5.3109,-0.6995,-0.729,-0.7437,-0.791,-0.8046,-0.8269,-0.9041,-0.8938,-0.884,-0.94,-0.934,-0.9231,-0.9372,-1.0541,-1.1699,-1.2373,-1.345,0.0,0.0,0.0,0.0,0.0,0.0,0.0,0.0,0.0,0.0,0.0,0.0,0.0,0.0,0.0,0.0,0.0,0.0,-1.432,-1.432,-1.432,-1.5197,-1.6741,-1.8736,-2.049,-2.2008,-2.4001,-2.4882,-2.4882,-2.4882,-2.4882,-2.4882,-2.6176,-2.7249,-2.8328,-2.963,-3.0714,-3.1807,-3.1807,-3.1807,-3.1807,-3.1807,-3.1807,-3.1807,-3.1807,-3.1807,-3.1807,-3.1807,-3.1807,-3.1807,-3.1807,-3.1807,-3.1807,-3.1807,-3.1807,-3.1807,-3.1807,-3.1807,-3.1807,-3.1807,-3.2205,-3.2555,-3.2592,-3.3014,-3.334,-3.3376,-3.3376,-3.3376,-3.3376,-3.3376,-3.3376,-3.3376,-3.3376,-3.3588,-3.4259,-3.4705,-3.5622,-3.6719,-3.6927,-3.6927,-3.6941,-3.6941,-3.6941,-3.6941,-3.9089,-4.1475,-4.3851,-4.657,-4.8929,-5.1312,-5.2137,-5.2522,-5.254,-5.2925,-5.3109,-0.6594,-0.6997,-0.7394,-0.8106,-0.8508,-0.8845,-0.9313,-0.9487,-0.972,-1.0324,-1.0313,-1.0302,-1.0645,0.0,-1.2303,-1.2977,0.0,0.0,0.0,0.0,0.0,0.0,0.0,0.0,0.0,0.0,0.0,0.0,0.0,0.0,0.0,0.0,0.0,0.0,0.0,-1.432,-1.432,-1.432,-1.564,-1.8515,-1.9397,-2.049,-2.2236,-2.4001,-2.4882,-2.4882,-2.4882,-2.5317,-2.5959,-2.7249,-2.8328,-2.963,-3.0714,-3.1368,-3.1807,-3.1807,-3.1807,-3.1807,-3.1807,-3.1807,-3.1807,-3.1807,-3.1807,-3.1807,-3.1807,-3.1807,-3.1807,-3.1807,-3.1807,-3.1807,-3.1807,-3.1807,-3.1807,-3.1807,-3.1807,-3.1855,-3.2012,-3.2338,-3.2628,-3.2785,-3.3111,-3.3376,-3.3376,-3.3376,-3.3376,-3.3376,-3.3376,-3.3376,-3.3376,-3.3376,-3.3588,-3.4259,-3.5164,-3.6054,-3.6927,-3.6941,-3.6941,-3.6941,-3.6941,-3.7577,-3.9104,-3.9965,-4.2126,-4.5989,-4.7229,-4.8929,-5.1312,-5.2137,-5.2394,-5.2174,-5.2815,-5.298,-0.654,-0.6877,-0.7377,-0.8073,-0.8747,-0.9356,-0.9786,-1.0161,-1.0617,-1.1335,-1.1297,-1.1221,-1.1514,-1.2058,0.0,0.0,0.0,0.0,0.0,0.0,0.0,0.0,0.0,0.0,0.0,0.0,0.0,0.0,0.0,0.0,0.0,0.0,0.0,0.0,0.0,0.0,-1.432,-1.432,-1.6089,-1.961,-1.961,-2.0701,-2.311,-2.4437,-2.4882,-2.4882,-2.5317,-2.5959,-2.6826,-2.8328,-2.963,-3.0714,-3.1581,-3.1807,-3.1807,-3.1807,-3.1807,-3.1807,-3.1807,-3.1807,-3.1807,-3.1807,-3.1807,-3.1807,-3.1807,-3.1807,-3.1807,-3.1807,-3.1807,-3.1807,-3.1807,-3.1807,-3.1807,-3.1807,-3.1807,-3.1855,-3.2036,-3.235,-3.2652,-3.2821,-3.3147,-3.3376,-3.3376,-3.3376,-3.3376,-3.3376,-3.3376,-3.3376,-3.3376,-3.3588,-3.4048,-3.4705,-3.5831,-3.6484,-3.6941,-3.6941,-3.6941,-3.6941,-3.7591,-3.8664,-4.0387,-4.1909,-4.405,-4.7262,-4.8294,-4.9743,-5.1128,-5.1935,-5.2137,-5.1752,-5.243,-5.2669,-0.6834,-0.7062,-0.7426,-0.779,-0.8698,-0.9715,-1.0558,-1.1025,-1.1552,-1.2515,-1.233,-1.1966,-1.1851,-1.2314,0.0,0.0,0.0,0.0,0.0,0.0,0.0,0.0,0.0,0.0,0.0,0.0,0.0,0.0,0.0,0.0,0.0,0.0,0.0,0.0,0.0,0.0,-1.432,-1.432,-1.6089,-1.961,-1.961,-2.1368,-2.4882,-2.4882,-2.4882,-2.4882,-2.6176,-2.661,-2.6826,-2.9189,-3.0714,-3.1807,-3.1807,-3.1807,-3.1807,-3.1807,-3.1807,-3.1807,-3.1807,-3.1807,-3.1807,-3.1807,-3.1807,-3.1807,-3.1807,-3.1807,-3.1807,-3.1807,-3.1807,-3.1807,-3.1807,-3.1807,-3.1807,-3.1807,-3.1807,-3.1807,-3.1819,-3.2229,-3.2592,-3.2592,-3.3014,-3.3376,-3.3376,-3.3376,-3.3376,-3.3376,-3.3376,-3.3376,-3.3376,-3.4035,-3.4705,-3.6041,-3.6484,-3.6941,-3.6941,-3.6941,-3.6941,-3.6941,-3.9089,-4.0402,-4.0402,-4.4907,-4.7279,-4.7279,-5.0004,-5.111,-5.0725,-5.1532,-5.1715,-5.1312,-5.1733,-5.2137,-0.6626,-0.7122,-0.7758,-0.8459,-0.9443,-1.0503,-1.1514,-1.183,-1.2129,-1.2917,-1.2835,-1.2613,-1.2574,-1.2852,0.0,0.0,0.0,0.0,0.0,0.0,0.0,0.0,0.0,0.0,0.0,0.0,0.0,0.0,0.0,0.0,0.0,0.0,0.0,0.0,0.0,0.0,-1.432,-1.432,-1.6089,-1.961,-1.961,-2.1368,-2.4882,-2.4882,-2.4882,-2.4882,-2.6176,-2.7033,-2.7897,-3.0285,-3.1581,-3.1807,-3.1807,-3.1807,-3.1807,-3.1807,-3.1807,-3.1807,-3.1807,-3.1807,-3.1807,-3.1807,-3.1807,-3.1807,-3.1807,-3.1807,-3.1807,-3.1807,-3.1807,-3.1807,-3.1807,-3.1807,-3.1807,-3.1807,-3.1807,-3.1904,-3.2278,-3.2483,-3.2688,-3.3074,-3.3268,-3.3376,-3.3376,-3.3376,-3.3376,-3.3376,-3.3376,-3.3576,-3.4035,-3.4482,-3.5164,-3.6041,-3.6484,-3.6941,-3.6941,-3.6941,-3.6941,-3.6941,-4.0605,-4.2774,-4.2774,-4.576,-4.8123,-4.9645,-5.0399,-5.0835,-5.0725,-5.1238,-5.1293,-5.0908,-5.1605,-5.2009,-0.7065,-0.7682,-0.8388,-0.9177,-1.0112,-1.1139,-1.227,-1.2602,-1.2803,-1.3287,-1.3194,-1.3042,-1.3091,-1.3216,0.0,0.0,0.0,0.0,0.0,0.0,0.0,0.0,0.0,0.0,0.0,0.0,0.0,0.0,0.0,0.0,0.0,0.0,0.0,0.0,0.0,0.0,-1.432,-1.4986,-1.6741,-1.961,-2.0262,-2.2034,-2.4882,-2.4882,-2.51,-2.5752,-2.7259,-2.8554,-2.9845,-3.1154,-3.1807,-3.1807,-3.1807,-3.1807,-3.1807,-3.1807,-3.1807,-3.1807,-3.1807,-3.1807,-3.1807,-3.1807,-3.1807,-3.1807,-3.1807,-3.1807,-3.1807,-3.1807,-3.1807,-3.1807,-3.1807,-3.1807,-3.1807,-3.1807,-3.1807,-3.1891,-3.2217,-3.2447,-3.2688,-3.3014,-3.3243,-3.3376,-3.3376,-3.3376,-3.3376,-3.3376,-3.3376,-3.36,-3.4482,-3.4941,-3.5609,-3.6276,-3.6733,-3.6941,-3.6941,-3.6941,-3.6941,-3.6941,-4.1258,-4.3851,-4.3851,-4.6855,-4.9209,-5.0725,-5.0725,-5.0725,-5.0725,-5.0963,-5.0945,-5.0725,-5.122,-5.1532,-0.7899,-0.8492,-0.9166,-0.9916,-1.0775,-1.1726,-1.2835,-1.3259,-1.345,-1.3553,0.0,-1.3292,-1.3417,0.0,0.0,0.0,0.0,0.0,0.0,0.0,0.0,0.0,0.0,0.0,0.0,0.0,0.0,0.0,0.0,0.0,0.0,0.0,0.0,0.0,0.0,0.0,-1.4292,-1.6047,0.0,0.0,-2.1319,-2.3075,-2.5071,-2.509,-2.5742,-2.7033,-2.9189,-3.0714,-3.1807,-3.1807,-3.1807,-3.1807,-3.1807,-3.1807,-3.1807,-3.1807,-3.1807,-3.1807,-3.1807,-3.1807,-3.1807,-3.1807,-3.1807,-3.1807,-3.1807,-3.1807,-3.1807,-3.1807,-3.1807,-3.1807,-3.1807,-3.1807,-3.1807,-3.1807,-3.1807,-3.1819,-3.1867,-3.2254,-3.2592,-3.2652,-3.305,-3.3376,-3.3376,-3.3376,-3.3376,-3.3376,-3.3376,-3.3836,-3.4954,-3.5164,-3.5596,-3.6706,-3.6941,-3.6941,-3.6941,-3.6941,-3.6941,-3.6941,-4.1258,-4.3851,-4.3851,-4.814,-5.0725,-5.0725,-5.0725,-5.0725,-5.0725,-5.0725,-5.0725,-5.0725,-5.0725,-5.0927,-0.7605,-0.8486,-0.947,-1.0476,-1.171,-1.2776,-1.3124,-1.3314,-1.3401,-1.333,-1.3352,-1.3417,0.0,0.0,0.0,0.0,0.0,0.0,0.0,0.0,0.0,0.0,0.0,0.0,0.0,0.0,0.0,0.0,0.0,0.0,0.0,0.0,0.0,0.0,0.0,-1.4037,-1.4037,-1.5772,-1.75,0.0,-2.0085,-2.2311,-2.5938,-2.6097,-2.7465,-2.9415,-2.9845,-3.0714,-3.1807,-3.1807,-3.1807,-3.1807,-3.1807,-3.1807,-3.1807,-3.1807,-3.1807,-3.1807,-3.1807,-3.1807,-3.1807,-3.1807,-3.1807,-3.1807,-3.1807,-3.1807,-3.1807,-3.1807,-3.1807,-3.1807,-3.1807,-3.1807,-3.1807,-3.1807,-3.1807,-3.1928,-3.2338,-3.2519,-3.2724,-3.3111,-3.3304,-3.3376,-3.3376,-3.3376,-3.3376,-3.3376,-3.3376,-3.3836,-3.4954,-3.5164,-3.5596,-3.6706,-3.6941,-3.6941,-3.6941,-3.6941,-3.6941,-3.6941,-4.1258,-4.3851,-4.3851,-4.814,-5.0725,-5.0725,-5.0725,-5.0725,-5.0725,-5.0725,-5.0725,-5.0725,-5.0725,-5.0927,-0.7916,-0.8916,-0.9976,-1.1351,-1.2428,-1.3151,-1.3156,-1.3249,-1.3281,-1.3107,-1.3211,-1.3368,0.0,0.0,0.0,0.0,0.0,0.0,0.0,0.0,0.0,0.0,0.0,0.0,0.0,0.0,0.0,0.0,0.0,0.0,0.0,0.0,0.0,0.0,-1.3955,-1.3955,-1.3955,-1.6537,-1.8259,-1.9103,-2.1678,-2.4509,-2.7833,-2.8177,-2.8974,-3.0059,-3.0714,-3.1154,-3.1807,-3.1807,-3.1807,-3.1807,-3.1807,-3.1807,-3.1807,-3.1807,-3.1807,-3.1807,-3.1807,-3.1807,-3.1807,-3.1807,-3.1807,-3.1807,-3.1807,-3.1807,-3.1807,-3.1807,-3.1807,-3.1807,-3.1807,-3.1807,-3.1807,-3.1807,-3.1807,-3.1879,-3.2157,-3.241,-3.2652,-3.2954,-3.3207,-3.3376,-3.3376,-3.3376,-3.3376,-3.3376,-3.3491,-3.3888,-3.5151,-3.5271,-3.5676,-3.6706,-3.6941,-3.6941,-3.6941,-3.6941,-3.737,-3.8445,-4.1909,-4.4281,-4.535,-4.8789,-5.0725,-5.0725,-5.0725,-5.0725,-5.0725,-5.0725,-5.0725,-5.0725,-5.0725,-5.0835,-0.8285,-0.9378,-1.0579,-1.2118,-1.2841,-1.3151,-1.3058,-1.3113,-1.3124,-1.2928,-1.3058,0.0,0.0,0.0,0.0,0.0,0.0,0.0,0.0,0.0,0.0,0.0,0.0,0.0,0.0,0.0,0.0,0.0,0.0,0.0,0.0,0.0,-1.3896,-1.3896,-1.3896,-1.3896,-1.3896,-1.7317,-1.9021,-1.8815,-2.3529,-2.6944,-2.9051,-2.9929,-3.0384,-3.043,-3.1344,-3.1807,-3.1807,-3.1807,-3.1807,-3.1807,-3.1807,-3.1807,-3.1807,-3.1807,-3.1807,-3.1807,-3.1807,-3.1807,-3.1807,-3.1807,-3.1807,-3.1807,-3.1807,-3.1807,-3.1807,-3.1807,-3.1807,-3.1807,-3.1807,-3.1807,-3.1807,-3.1807,-3.1807,-3.1819,-3.1867,-3.2217,-3.2531,-3.2592,-3.2978,-3.3304,-3.3376,-3.334,-3.3304,-3.3304,-3.3506,-3.4108,-3.5049,-3.5313,-3.5948,-3.6901,-3.6941,-3.6941,-3.6941,-3.6941,-3.7811,-4.0198,-4.2558,-4.4923,-4.7262,-4.9418,-5.0725,-5.0725,-5.0725,-5.0725,-5.0725,-5.0725,-5.0725,-5.0725,-5.0725,-5.0725,-0.766,-0.9367,-1.1188,-1.214,-1.2661,-1.2933,-1.2917,-1.2922,-1.2928,0.0,0.0,0.0,0.0,0.0,0.0,0.0,0.0,0.0,0.0,0.0,0.0,0.0,0.0,0.0,0.0,0.0,0.0,0.0,0.0,0.0,0.0,-1.3651,-1.3651,-1.3651,-1.3651,0.0,-1.3651,-1.7012,-1.8273,-1.744,-2.3034,-2.6473,-2.772,-2.9909,-3.1018,-3.1246,-3.1698,-3.1807,-3.1807,-3.1807,-3.1807,-3.1807,-3.1807,-3.1807,-3.1807,-3.1807,-3.1807,-3.1807,-3.1807,-3.1807,-3.1807,-3.1807,-3.1807,-3.1807,-3.1807,-3.1807,-3.1807,-3.1807,-3.1807,-3.1807,-3.1807,-3.1807,-3.1807,-3.1807,-3.1807,-3.1867,-3.2097,-3.2205,-3.2314,-3.2555,-3.2821,-3.3111,-3.334,-3.3183,-3.305,-3.305,-3.3237,-3.3833,-3.477,-3.521,-3.5948,-3.6901,-3.6941,-3.6941,-3.6941,-3.6941,-3.7811,-4.0198,-4.2558,-4.4923,-4.7262,-4.9418,-5.0725,-5.0725,-5.0725,-5.0725,-5.0725,-5.0725,-5.0725,-5.0725,-5.0725,-5.0725,-0.822,-0.9726,-1.1118,-1.2025,-1.2471,-1.2689,-1.2689,-1.2738,-1.2765,-1.2705,0.0,0.0,0.0,0.0,0.0,0.0,0.0,0.0,0.0,0.0,0.0,0.0,0.0,0.0,0.0,0.0,0.0,0.0,0.0,0.0,-1.3602,-1.3602,-1.3602,-1.3602,-1.3602,0.0,-1.3602,-1.5908,-1.8611,-2.1103,-2.4106,-2.6656,-2.894,-3.0236,-3.0926,-3.1179,-3.1457,-3.1493,-3.1372,-3.1686,-3.171,-3.159,-3.1747,-3.1807,-3.1807,-3.1807,-3.1807,-3.1807,-3.1807,-3.1807,-3.1807,-3.1807,-3.1807,-3.1807,-3.1807,-3.1807,-3.1807,-3.1807,-3.1807,-3.1807,-3.1807,-3.1807,-3.1807,-3.1807,-3.1807,-3.1843,-3.1952,-3.2097,-3.2278,-3.2531,-3.2688,-3.2785,-3.2917,-3.2845,-3.2748,-3.2748,-3.3186,-3.3981,-3.4464,-3.5245,-3.5962,-3.6647,-3.6687,-3.6754,-3.6941,-3.8032,-3.9965,-4.2126,-4.4479,-4.6839,-4.9209,-5.0081,-5.0725,-5.0725,-5.0725,-5.0725,-5.0725,-5.0725,-5.0725,-5.0725,-5.0725,-5.0725,-0.8399,-0.953,-1.0427,-1.1422,-1.1944,-1.2237,-1.233,0.0,-1.2564,0.0,0.0,0.0,0.0,0.0,0.0,0.0,0.0,0.0,0.0,0.0,0.0,0.0,0.0,0.0,0.0,0.0,0.0,0.0,0.0,0.0,-1.351,-1.3542,-1.3558,-1.3558,-1.3586,-1.3813,-1.4229,-1.5697,-1.9438,-2.545,-2.5049,-2.6702,-3.0226,-3.0419,-3.0612,-3.0817,-3.1143,-3.1179,-3.1034,-3.1433,-3.1481,-3.1312,-3.159,-3.1698,-3.171,-3.1783,-3.1807,-3.1807,-3.1807,-3.1807,-3.1807,-3.1807,-3.1807,-3.1807,-3.1807,-3.1807,-3.1807,-3.1807,-3.1807,-3.1807,-3.1807,-3.1807,-3.1807,-3.1807,-3.1807,-3.1807,-3.1807,-3.1964,-3.2181,-3.2447,-3.2495,-3.2519,-3.2592,-3.2531,-3.2495,-3.2495,-3.3347,-3.3918,-3.4185,-3.5121,-3.5859,-3.6433,-3.65,-3.662,-3.6901,-3.9118,-4.1258,-4.3636,-4.5989,-4.8351,-5.0517,-5.0725,-5.0725,-5.0725,-5.0725,-5.0725,-5.0725,-5.0725,-5.0725,-5.0725,-5.0725,-5.0725,-0.7448,-0.8231,-0.8959,-1.0036,-1.0824,-1.1427,-1.1775,0.0,-1.2265,0.0,0.0,0.0,0.0,0.0,0.0,0.0,0.0,0.0,0.0,0.0,0.0,0.0,0.0,0.0,0.0,0.0,0.0,0.0,0.0,0.0,-1.3259,-1.3368,-1.3433,-1.3433,-1.3542,-1.444,-1.5908,-1.7161,-2.131,-2.8348,-2.5245,-2.6066,-3.0214,-3.0226,-3.025,-3.0286,-3.0793,-3.101,-3.0998,-3.1022,-3.1034,-3.1046,-3.1312,-3.1409,-3.1445,-3.171,-3.1807,-3.1807,-3.1807,-3.1807,-3.1807,-3.1807,-3.1807,-3.1807,-3.1807,-3.1807,-3.1807,-3.1807,-3.1807,-3.1807,-3.1807,-3.1807,-3.1807,-3.1807,-3.1807,-3.1807,-3.1807,-3.1819,-3.1904,-3.2169,-3.2217,-3.2302,-3.2555,-3.2386,-3.2217,-3.2217,-3.306,-3.3625,-3.3905,-3.499,-3.5859,-3.6433,-3.65,-3.662,-3.6901,-3.9118,-4.1258,-4.3636,-4.5989,-4.8351,-5.0517,-5.0725,-5.0725,-5.0725,-5.0725,-5.0725,-5.0725,-5.0725,-5.0725,-5.0725,-5.0725,-5.0725,-0.704,-0.7731,-0.8465,-0.9394,-1.0112,-1.0699,-1.1139,-1.1607,-1.1993,0.0,0.0,0.0,0.0,0.0,0.0,0.0,0.0,0.0,0.0,0.0,0.0,0.0,0.0,0.0,0.0,0.0,0.0,0.0,0.0,0.0,-1.3238,-1.3281,-1.3303,-1.3303,-1.4376,-1.6093,-1.8654,-1.815,-2.0895,-2.6885,-2.4618,-2.5861,-3.0214,-3.0214,-3.0214,-3.0226,-3.0419,-3.0491,-3.0527,-3.0853,-3.0902,-3.0793,-3.1215,-3.1384,-3.1421,-3.171,-3.1807,-3.1807,-3.1807,-3.1807,-3.1807,-3.1807,-3.1807,-3.1807,-3.1807,-3.1807,-3.1807,-3.1807,-3.1807,-3.1807,-3.1807,-3.1807,-3.1807,-3.1807,-3.1807,-3.1807,-3.1807,-3.1807,-3.1843,-3.1928,-3.1952,-3.1976,-3.2073,-3.2012,-3.2045,-3.1891,-3.291,-3.362,-3.3574,-3.4861,-3.5778,-3.6179,-3.6393,-3.7278,-3.9075,-4.1258,-4.362,-4.5989,-4.814,-4.9854,-5.0725,-5.0725,-5.0725,-5.0725,-5.0725,-5.0725,-5.0725,-5.0725,-5.0725,-5.0725,-5.0725,-5.0725,-0.6513,-0.7084,-0.7796,-0.8715,-0.9247,-0.9786,-1.071,-1.1166,-1.1509,0.0,0.0,0.0,0.0,0.0,0.0,0.0,0.0,0.0,0.0,0.0,0.0,0.0,0.0,0.0,0.0,0.0,0.0,0.0,0.0,0.0,-1.3118,-1.3162,-1.3405,-1.4053,-1.6095,-1.8579,-2.113,-2.0044,-2.2186,-2.7377,-2.5532,-2.6617,-3.0214,-3.0214,-3.0214,-3.0214,-3.0214,-3.0214,-3.0238,-3.0588,-3.0636,-3.0515,-3.095,-3.1119,-3.1167,-3.1529,-3.1662,-3.1686,-3.1771,-3.1807,-3.1807,-3.1807,-3.1807,-3.1807,-3.1807,-3.1807,-3.1807,-3.1807,-3.1807,-3.1807,-3.1807,-3.1807,-3.1807,-3.1807,-3.1807,-3.1807,-3.1807,-3.1807,-3.1807,-3.1807,-3.1807,-3.1807,-3.1807,-3.1879,-3.2033,-3.2288,-3.3048,-3.3864,-3.4111,-3.4993,-3.5885,-3.6193,-3.6393,-3.7469,-4.0154,-4.2558,-4.4693,-4.705,-4.9418,-5.0725,-5.0725,-5.0725,-5.0725,-5.0725,-5.0725,-5.0725,-5.0725,-5.0725,-5.0725,-5.0725,-5.0725,-5.0725,0.0,0.0,0.0,-0.7915,-0.8193,-0.8666,-1.0438,0.0,-1.078,0.0,0.0,0.0,0.0,0.0,0.0,0.0,0.0,0.0,0.0,0.0,0.0,0.0,0.0,0.0,0.0,0.0,0.0,0.0,0.0,-1.289,-1.289,-1.2999,-1.3926,-1.5673,-1.8932,-2.1563,-2.3757,-2.3184,-2.5312,-2.9779,-2.756,-2.7896,-3.0202,-3.0214,-3.0214,-3.0214,-3.0214,-3.0214,-3.0214,-3.0214,-3.0214,-3.0238,-3.0503,-3.0612,-3.0672,-3.1191,-3.1384,-3.1433,-3.171,-3.1807,-3.1807,-3.1807,-3.1807,-3.1807,-3.1807,-3.1807,-3.1807,-3.1807,-3.1807,-3.1807,-3.1807,-3.1807,-3.1807,-3.1807,-3.1807,-3.1807,-3.1807,-3.1807,-3.1807,-3.1819,-3.1819,-3.1819,-3.1819,-3.2036,-3.2409,-3.3044,-3.3688,-3.4516,-3.5167,-3.5613,-3.6179,-3.6473,-3.6513,-3.7702,-4.0373,-4.2558,-4.4923,-4.7279,-4.9418,-5.0725,-5.0725,-5.0725,-5.0725,-5.0725,-5.0725,-5.0725,-5.0725,-5.0725,-5.0725,-5.0725,-5.0725,-5.0725,-0.5763,0.0,0.0,0.0,0.0,0.0,0.0,0.0,0.0,0.0,0.0,0.0,0.0,0.0,0.0,0.0,0.0,0.0,0.0,0.0,0.0,0.0,0.0,0.0,0.0,0.0,0.0,0.0,-1.289,-1.289,-1.289,-1.4113,-1.5738,-1.8153,-2.0283,-2.3144,-2.6332,-2.4916,-2.5829,-2.9513,-2.7482,-2.7605,-2.9924,-3.0117,-3.0214,-3.0214,-3.0214,-3.0214,-3.0214,-3.0214,-3.0214,-3.0238,-3.0503,-3.0612,-3.0672,-3.1191,-3.1384,-3.1433,-3.171,-3.1807,-3.1807,-3.1807,-3.1807,-3.1807,-3.1807,-3.1807,-3.1807,-3.1807,-3.1807,-3.1807,-3.1807,-3.1807,-3.1807,-3.1807,-3.1807,-3.1807,-3.1807,-3.1807,-3.1867,-3.206,-3.2097,-3.2097,-3.2097,-3.2145,-3.2503,-3.296,-3.3383,-3.3922,-3.498,-3.5618,-3.5939,-3.6473,-3.6687,-3.8375,-4.2543,-4.3421,-4.5563,-4.9436,-5.029,-5.0725,-5.0725,-5.0725,-5.0725,-5.0725,-5.0725,-5.0725,-5.0725,-5.0725,-5.0725,-5.0725,-5.0725,-5.0725,-0.5844,-0.6051,-0.6388,-0.6725,0.0,0.0,-0.8339,-0.8709,0.0,0.0,0.0,0.0,0.0,0.0,0.0,0.0,0.0,0.0,0.0,0.0,0.0,0.0,0.0,0.0,0.0,0.0,0.0,0.0,-1.289,-1.309,-1.329,-1.5658,-1.7825,-1.9396,-2.2079,-2.4711,-2.7273,-2.6234,-2.6748,-2.9248,-2.7996,-2.8368,-2.9803,-2.9972,-3.0105,-3.0214,-3.0214,-3.0214,-3.0214,-3.0214,-3.0214,-3.0238,-3.0383,-3.0443,-3.0491,-3.0914,-3.1131,-3.1264,-3.1541,-3.171,-3.1807,-3.1807,-3.1807,-3.1807,-3.1807,-3.1807,-3.1807,-3.1807,-3.1807,-3.1807,-3.1807,-3.1807,-3.1807,-3.1807,-3.1807,-3.1807,-3.1807,-3.1891,-3.2012,-3.2169,-3.2205,-3.2193,-3.2409,-3.2723,-3.2903,-3.3876,-3.4128,-3.4523,-3.567,-3.6072,-3.6734,-3.7934,-3.8347,-4.0154,-4.4907,-4.5334,-4.6855,-5.0498,-5.0725,-5.0725,-5.0725,-5.0725,-5.0725,-5.0725,-5.0725,-5.0725,-5.0725,-5.0725,-5.0725,-5.0725,-5.0725,-5.0725,-0.6094,-0.6323,-0.6757,-0.7154,-0.6883,0.0,-0.8481,-0.8622,-0.878,0.0,0.0,0.0,0.0,0.0,0.0,0.0,0.0,0.0,0.0,0.0,0.0,0.0,0.0,0.0,0.0,0.0,-1.2873,-1.2884,-1.289,-1.309,-1.369,-1.7232,-1.9593,-2.0192,-2.3736,-2.61,-2.726,-2.726,-2.7763,-2.897,-2.9006,-2.926,-2.9707,-2.9767,-2.9936,-3.0165,-3.0202,-3.0214,-3.0214,-3.0214,-3.0214,-3.0214,-3.0214,-3.0214,-3.025,-3.0503,-3.0757,-3.0998,-3.1288,-3.1553,-3.1771,-3.1795,-3.1807,-3.1807,-3.1807,-3.1807,-3.1807,-3.1807,-3.1807,-3.1807,-3.1807,-3.1807,-3.1807,-3.1807,-3.1807,-3.1807,-3.1807,-3.1988,-3.2169,-3.2193,-3.2217,-3.2458,-3.2878,-3.3292,-3.3902,-3.5028,-3.5402,-3.5869,-3.6666,-3.7081,-3.7949,-4.0184,-4.062,-4.2558,-4.6839,-4.7262,-4.8351,-5.0498,-5.0725,-5.0725,-5.0725,-5.0725,-5.0725,-5.0725,-5.0725,-5.0725,-5.0725,-5.0725,-5.0725,-5.0725,-5.0725,-5.0725,-0.6671,-0.6768,-0.6888,-0.6785,0.0,0.0,-0.697,-0.7209,-0.7644,0.0,0.0,0.0,0.0,0.0,0.0,0.0,0.0,0.0,0.0,0.0,0.0,0.0,0.0,0.0,0.0,0.0,-1.2781,-1.2879,-1.289,-1.309,-1.369,-1.7232,-1.9782,-2.1165,-2.4903,-2.726,-2.8236,-2.8236,-2.8452,-2.8705,-2.891,-2.9067,-2.9175,-2.9598,-2.9827,-2.9888,-3.0117,-3.0214,-3.0214,-3.0214,-3.0214,-3.0214,-3.0214,-3.0214,-3.025,-3.0503,-3.0636,-3.0745,-3.1228,-3.1421,-3.1505,-3.1735,-3.1807,-3.1807,-3.1807,-3.1807,-3.1807,-3.1807,-3.1807,-3.1807,-3.1807,-3.1807,-3.1807,-3.1807,-3.1807,-3.1807,-3.1807,-3.1843,-3.1952,-3.2157,-3.2374,-3.2725,-3.3379,-3.3428,-3.3977,-3.5287,-3.5206,-3.5423,-3.6626,-3.8027,-3.9401,-4.0343,-4.2126,-4.4264,-4.705,-4.7262,-4.8351,-5.0498,-5.0725,-5.0725,-5.0725,-5.0725,-5.0725,-5.0725,-5.0725,-5.0725,-5.0725,-5.0725,-5.0725,-5.0725,-5.0725,-5.0725,-0.6975,-0.7024,-0.7143,-0.7084,0.0,0.0,0.0,-0.7067,-0.7345,-0.8008,0.0,0.0,0.0,0.0,0.0,0.0,0.0,0.0,0.0,0.0,0.0,0.0,0.0,0.0,0.0,0.0,-1.2754,-1.2879,-1.289,-1.3684,-1.5466,-1.841,-2.1156,-2.3511,-2.626,-2.8043,-2.862,-2.862,-2.862,-2.862,-2.8753,-2.8886,-2.9019,-2.9284,-2.955,-2.9803,-2.9948,-3.0081,-3.0214,-3.0214,-3.0214,-3.0214,-3.0214,-3.0214,-3.0238,-3.0358,-3.0491,-3.066,-3.1059,-3.1276,-3.1433,-3.1722,-3.1807,-3.1807,-3.1807,-3.1807,-3.1807,-3.1807,-3.1807,-3.1807,-3.1807,-3.1807,-3.1807,-3.1807,-3.1807,-3.1807,-3.1807,-3.1916,-3.2,-3.2,-3.2434,-3.3038,-3.3688,-3.3688,-3.4172,-3.5397,-3.6435,-3.7131,-3.8342,-4.009,-4.1988,-4.3557,-4.4907,-4.6414,-4.8771,-4.8999,-4.9418,-5.0725,-5.0725,-5.0725,-5.0725,-5.0725,-5.0725,-5.0725,-5.0725,-5.0725,-5.0725,-5.0725,-5.0725,-5.0725,-5.0725,-5.0725,0.0,0.0,-0.7589,0.0,0.0,-0.7143,0.0,0.0,0.0,-0.7785,0.0,0.0,0.0,0.0,0.0,0.0,0.0,0.0,0.0,0.0,0.0,0.0,0.0,0.0,0.0,0.0,-1.2585,-1.2803,-1.2732,-1.4102,-1.7181,-1.9568,-2.233,-2.5076,-2.7442,-2.862,-2.862,-2.862,-2.862,-2.862,-2.862,-2.8729,-2.8934,-2.8994,-2.9272,-2.9719,-2.9779,-2.9948,-3.0214,-3.0214,-3.0214,-3.0214,-3.0214,-3.0214,-3.0214,-3.0214,-3.0346,-3.0564,-3.0829,-3.1095,-3.136,-3.1638,-3.1759,-3.1807,-3.1807,-3.1807,-3.1807,-3.1807,-3.1807,-3.1807,-3.1807,-3.1807,-3.1807,-3.1807,-3.1807,-3.1807,-3.1807,-3.1976,-3.206,-3.1855,-3.2405,-3.321,-3.369,-3.3918,-3.4587,-3.6193,-3.7886,-3.9561,-4.058,-4.2554,-4.4793,-4.7016,-4.7701,-4.8771,-5.0498,-5.0725,-5.0725,-5.0725,-5.0725,-5.0725,-5.0725,-5.0725,-5.0725,-5.0725,-5.0725,-5.0725,-5.0725,-5.0725,-5.0725,-5.0725,-5.0725,-5.0725,0.0,0.0,0.0,0.0,-0.7801,0.0,0.0,0.0,-0.7056,-0.6714,0.0,0.0,0.0,0.0,0.0,0.0,0.0,0.0,0.0,0.0,0.0,0.0,0.0,0.0,0.0,0.0,0.0,-1.2536,-1.2556,-1.3664,-1.6021,-1.9502,-2.2144,-2.4115,-2.7056,-2.862,-2.862,-2.862,-2.862,-2.862,-2.862,-2.8644,-2.8681,-2.891,-2.9175,-2.9465,-2.9695,-2.9948,-3.0214,-3.0214,-3.0214,-3.0214,-3.0214,-3.0214,-3.0214,-3.0214,-3.0238,-3.0298,-3.0564,-3.0817,-3.1083,-3.1348,-3.1602,-3.1807,-3.1807,-3.1807,-3.1807,-3.1807,-3.1807,-3.1807,-3.1807,-3.1807,-3.1807,-3.1807,-3.1807,-3.1807,-3.1807,-3.1831,-3.1843,-3.1819,-3.2258,-3.2985,-3.3652,-3.4347,-3.5792,-3.9099,-3.9601,-4.0795,-4.3096,-4.5497,-4.6999,-4.7262,-4.9209,-5.0498,-5.0725,-5.0725,-5.0725,-5.0725,-5.0725,-5.0725,-5.0725,-5.0725,-5.0725,-5.0725,-5.0725,-5.0725,-5.0725,-5.0725,-5.0725,-5.0725,-5.0725,-5.0725,0.0,0.0,0.0,0.0,0.0,0.0,-0.6899,0.0,-0.6719,0.0,0.0,0.0,0.0,0.0,0.0,0.0,0.0,0.0,0.0,0.0,0.0,0.0,0.0,0.0,0.0,0.0,0.0,0.0,0.0,-1.3954,-1.82,-2.0044,-2.279,-2.6465,-2.7839,-2.862,-2.862,-2.862,-2.862,-2.862,-2.862,-2.862,-2.862,-2.8741,-2.9019,-2.9417,-2.9526,-2.9815,-3.0214,-3.0214,-3.0214,-3.0214,-3.0214,-3.0214,-3.0214,-3.0214,-3.0214,-3.025,-3.0515,-3.0781,-3.1071,-3.1493,-3.171,-3.1807,-3.1807,-3.1807,-3.1807,-3.1807,-3.1807,-3.1807,-3.1807,-3.1807,-3.1807,-3.1807,-3.1807,-3.1807,-3.1807,-3.1807,-3.1807,-3.2234,-3.2648,-3.3323,-3.4077,-3.4315,-3.5643,-3.8619,-4.0499,-4.2204,-4.4887,-4.7461,-4.8959,-4.9191,-5.0081,-5.0725,-5.0725,-5.0725,-5.0725,-5.0725,-5.0725,-5.0725,-5.0725,-5.0725,-5.0725,-5.0725,-5.0725,-5.0725,-5.0725,-5.0725,-5.0725,-5.0725,-5.0725,-5.0725,-0.853,0.0,0.0,0.0,0.0,0.0,0.0,0.0,0.0,0.0,0.0,0.0,0.0,0.0,0.0,-0.6948,0.0,0.0,0.0,0.0,0.0,0.0,0.0,0.0,0.0,0.0,0.0,0.0,0.0,0.0,-1.9302,-2.0431,-2.3043,-2.7818,-2.8284,-2.8512,-2.8512,-2.8584,-2.862,-2.862,-2.862,-2.862,-2.862,-2.862,-2.891,-2.9405,-2.9405,-2.9707,-3.0214,-3.0214,-3.0214,-3.0214,-3.0214,-3.0214,-3.0214,-3.0214,-3.0214,-3.0238,-3.0431,-3.0721,-3.1071,-3.1541,-3.1747,-3.1807,-3.1807,-3.1807,-3.1807,-3.1807,-3.1807,-3.1807,-3.1807,-3.1807,-3.1807,-3.1807,-3.1807,-3.1807,-3.1807,-3.202,-3.2234,-3.2435,-3.3286,-3.4134,-3.4953,-3.5375,-3.6439,-3.9197,-4.169,-4.43,-4.6871,-4.8891,-5.0285,-5.067,-5.0725,-5.0725,-5.0725,-5.0725,-5.0725,-5.0725,-5.0725,-5.0725,-5.0725,-5.0725,-5.0725,-5.0725,-5.0725,-5.0725,-5.0725,-5.0725,-5.0725,-5.0725,-5.0725,-5.0725,0.0,0.0,0.0,-0.8193,0.0,0.0,0.0,0.0,-0.7209,0.0,0.0,0.0,0.0,-0.7138,-0.71,-0.7002,-0.7095,0.0,0.0,0.0,0.0,0.0,0.0,0.0,0.0,0.0,0.0,0.0,0.0,0.0,-1.796,-2.0096,-2.2818,-2.6325,-2.7523,-2.821,-2.821,-2.8487,-2.862,-2.862,-2.862,-2.862,-2.862,-2.862,-2.891,-2.9405,-2.9405,-2.9707,-3.0214,-3.0214,-3.0214,-3.0214,-3.0214,-3.0214,-3.0214,-3.0214,-3.0214,-3.0214,-3.0226,-3.0564,-3.1046,-3.1312,-3.159,-3.1807,-3.1807,-3.1807,-3.1807,-3.1807,-3.1807,-3.1807,-3.1807,-3.1807,-3.1807,-3.1807,-3.1807,-3.1807,-3.1807,-3.2234,-3.2648,-3.2648,-3.3498,-3.4953,-3.7206,-3.804,-3.9182,-4.1769,-4.4118,-4.6676,-4.9581,-5.012,-5.0285,-5.067,-5.0725,-5.0725,-5.0725,-5.0725,-5.0725,-5.0725,-5.0725,-5.0725,-5.0725,-5.0725,-5.0725,-5.0725,-5.0725,-5.0725,-5.0725,-5.0725,-5.0725,-5.0725,-5.0725,-5.0725,0.0,0.0,-0.9938,-0.8856,0.0,0.0,0.0,0.0,0.0,0.0,0.0,0.0,0.0,-0.7209,-0.7143,-0.7105,-0.7127,-0.7073,0.0,0.0,0.0,0.0,0.0,0.0,0.0,0.0,0.0,0.0,-1.0393,0.0,0.0,-1.9706,-2.2597,-2.6979,-2.7625,-2.8029,-2.8198,-2.8294,-2.8439,-2.862,-2.862,-2.862,-2.862,-2.862,-2.8813,-2.9163,-2.9332,-2.961,-2.9948,-3.0141,-3.0214,-3.0214,-3.0214,-3.0214,-3.0214,-3.0214,-3.0214,-3.0238,-3.0419,-3.0708,-3.1034,-3.13,-3.1578,-3.1807,-3.1807,-3.1807,-3.1807,-3.1807,-3.1807,-3.1807,-3.1807,-3.1807,-3.1807,-3.1807,-3.1807,-3.1807,-3.1807,-3.2234,-3.2648,-3.3073,-3.494,-3.6803,-3.804,-4.0713,-4.3011,-4.3956,-4.4989,-4.6589,-4.9439,-4.9955,-5.0285,-5.067,-5.0725,-5.0725,-5.0725,-5.0725,-5.0725,-5.0725,-5.0725,-5.0725,-5.0725,-5.0725,-5.0725,-5.0725,-5.0725,-5.0725,-5.0725,-5.0725,-5.0725,-5.0725,-5.0725,-5.0725,-1.0427,-1.0552,0.0,0.0,-0.9307,0.0,-0.7948,0.0,0.0,0.0,0.0,0.0,0.0,0.0,-0.741,-0.741,-0.7263,-0.7002,0.0,-0.6497,0.0,0.0,0.0,0.0,0.0,0.0,-0.8339,-0.9117,-0.9775,0.0,0.0,0.0,-2.2183,-2.6653,-2.7473,-2.7896,-2.8065,-2.8258,-2.8439,-2.862,-2.862,-2.862,-2.862,-2.862,-2.8765,-2.9031,-2.9296,-2.955,-2.9815,-3.0105,-3.0214,-3.0214,-3.0214,-3.0214,-3.0214,-3.0214,-3.0214,-3.0238,-3.0407,-3.0696,-3.1022,-3.1191,-3.1505,-3.1807,-3.1807,-3.1807,-3.1807,-3.1807,-3.1807,-3.1807,-3.1807,-3.1807,-3.1807,-3.1807,-3.1807,-3.1807,-3.202,-3.2447,-3.3286,-3.4742,-3.6593,-3.8456,-4.0507,-4.3165,-4.5019,-4.5019,-4.583,-4.7155,-4.9037,-4.9661,-5.0065,-5.0468,-5.0633,-5.0725,-5.0725,-5.0725,-5.0725,-5.0725,-5.0725,-5.0725,-5.0725,-5.0725,-5.0725,-5.0725,-5.0725,-5.0725,-5.0725,-5.0725,-5.0725,-5.0725,-5.0725,-5.0725]}]]